[[{"header":{"parameterUnit":"m.s-1","parameterCategory":1,"la1":30.6,"la2":28.766,"lo1":-90.7593,"lo2":-88.6598,"dy":0.0162,"dx":0.0183,"nx":116,"ny":114,"refTime":"2023-10-11T00:00:00:Z","depth":0,"parameterNumber":2,"parameterNumberName":"U-component_of_WINDS"},"data":[0.0,0.0,0.0,0.0,0.0,0.0,0.0,0.0,0.0,0.0,0.0,0.0,0.0,0.0,0.0,0.0,0.0,0.0,0.0,0.0,0.0,0.0,0.0,0.0,0.0,0.0,0.0,0.0,0.0,0.0,0.0,0.0,0.0,0.0,0.0,0.0,0.0,0.0,0.0,0.0,0.0,0.0,0.0,0.0,0.0,0.0,0.0,0.0,0.0,0.0,0.0,0.0,0.0,0.0,0.0,0.0,0.0,0.0,0.0,0.0,0.0,0.0,0.0,0.0,0.0,0.0,0.0,0.0,0.0,0.0,0.0,0.0,0.0,0.0,0.0,0.0,0.0,0.0,0.0,0.0,0.0,0.0,0.0,0.0,0.0,0.0,0.0,0.0,0.0,0.0,0.0,0.0,0.0,0.0,0.0,0.0,0.0,0.0,0.0,0.0,0.0,0.0,0.0,0.0,0.0,0.0,0.0,0.0,0.0,0.0,0.0,0.0,0.0,0.0,0.0,0.0,0.0,0.0,0.0,0.0,0.0,0.0,0.0,0.0,0.0,0.0,0.0,0.0,0.0,0.0,0.0,0.0,0.0,0.0,0.0,0.0,0.0,0.0,0.0,0.0,0.0,0.0,0.0,0.0,0.0,0.0,0.0,0.0,0.0,0.0,0.0,0.0,0.0,0.0,0.0,0.0,0.0,0.0,0.0,0.0,0.0,0.0,0.0,0.0,0.0,0.0,0.0,0.0,0.0,0.0,0.0,0.0,0.0,0.0,0.0,0.0,0.0,0.0,0.0,0.0,0.0,0.0,0.0,0.0,0.0,0.0,0.0,0.0,0.0,0.0,0.0,0.0,0.0,0.0,0.0,0.0,0.0,0.0,0.0,0.0,0.0,0.0,0.0,0.0,0.0,0.0,0.0,0.0,0.0,0.0,0.0,0.0,0.0,0.0,0.0,0.0,0.0,0.0,0.0,0.0,0.0,0.0,0.0,0.0,0.0,0.0,0.0,0.0,0.0,0.0,0.0,0.0,0.0,0.0,0.0,0.0,0.0,0.0,0.0,0.0,0.0,0.0,0.0,0.0,0.0,0.0,0.0,0.0,0.0,0.0,0.0,0.0,0.0,0.0,0.0,0.0,0.0,0.0,0.0,0.0,0.0,0.0,0.0,0.0,0.0,0.0,0.0,0.0,0.0,0.0,0.0,0.0,0.0,0.0,0.0,0.0,0.0,0.0,0.0,0.0,0.0,0.0,0.0,0.0,0.0,0.0,0.0,0.0,0.0,0.0,0.0,0.0,0.0,0.0,0.0,0.0,0.0,0.0,0.0,0.0,0.0,0.0,0.0,0.0,0.0,0.0,0.0,0.0,0.0,0.0,0.0,0.0,0.0,0.0,0.0,0.0,0.0,0.0,0.0,0.0,0.0,0.0,0.0,0.0,0.0,0.0,0.0,0.0,0.0,0.0,0.0,0.0,0.0,0.0,0.0,0.0,0.0,0.0,0.0,0.0,0.0,0.0,0.0,0.0,0.0,0.0,0.0,0.0,0.0,0.0,0.0,0.0,0.0,0.0,0.0,0.0,0.0,0.0,0.0,0.0,0.0,0.0,0.0,0.0,0.0,0.0,0.0,0.0,0.0,0.0,0.0,0.0,0.0,0.0,0.0,0.0,0.0,0.0,0.0,0.0,0.0,0.0,0.0,0.0,0.0,0.0,0.0,0.0,0.0,0.0,0.0,0.0,0.0,0.0,0.0,0.0,0.0,0.0,0.0,0.0,0.0,0.0,0.0,0.0,0.0,0.0,0.0,0.0,0.0,0.0,0.0,0.0,0.0,0.0,0.0,0.0,0.0,0.0,0.0,0.0,0.0,0.0,0.0,0.0,0.0,0.0,0.0,0.0,0.0,0.0,0.0,0.0,0.0,0.0,0.0,0.0,0.0,0.0,0.0,0.0,0.0,0.0,0.0,0.0,0.0,0.0,0.0,0.0,0.0,0.0,0.0,0.0,0.0,0.0,0.0,0.0,0.0,0.0,0.0,0.0,0.0,0.0,0.0,0.0,0.0,0.0,0.0,0.0,0.0,0.0,0.0,0.0,0.0,0.0,0.0,0.0,0.0,0.0,0.0,0.0,0.0,0.0,0.0,0.0,0.0,0.0,0.0,0.0,0.0,0.0,0.0,0.0,0.0,0.0,0.0,0.0,0.0,0.0,0.0,0.0,0.0,0.0,0.0,0.0,0.0,0.0,0.0,0.0,0.0,0.0,0.0,0.0,0.0,0.0,0.0,0.0,0.0,0.0,0.0,0.0,0.0,0.0,0.0,0.0,0.0,0.0,0.0,0.0,0.0,0.0,0.0,0.0,0.0,0.0,0.0,0.0,0.0,0.0,0.0,0.0,0.0,0.0,0.0,0.0,0.0,0.0,0.0,0.0,0.0,0.0,0.0,0.0,0.0,0.0,0.0,0.0,0.0,0.0,0.0,0.0,0.0,0.0,0.0,0.0,0.0,0.0,0.0,0.0,0.0,0.0,0.0,0.0,0.0,0.0,0.0,0.0,0.0,0.0,0.0,0.0,0.0,0.0,0.0,0.0,0.0,0.0,0.0,0.0,0.0,0.0,0.0,0.0,0.0,0.0,0.0,0.0,0.0,0.0,0.0,0.0,0.0,0.0,0.0,0.0,0.0,0.0,0.0,0.0,0.0,0.0,0.0,0.0,0.0,0.0,0.0,0.0,0.0,0.0,0.0,0.0,0.0,0.0,0.0,0.0,0.0,0.0,0.0,0.0,0.0,0.0,0.0,0.0,0.0,0.0,0.0,0.0,0.0,0.0,0.0,0.0,0.0,0.0,0.0,0.0,0.0,0.0,0.0,0.0,0.0,0.0,0.0,0.0,0.0,0.0,0.0,0.0,0.0,0.0,0.0,0.0,0.0,0.0,0.0,0.0,0.0,0.0,0.0,0.0,0.0,0.0,0.0,0.0,0.0,0.0,0.0,0.0,0.0,0.0,0.0,0.0,0.0,0.0,0.0,0.0,0.0,0.0,0.0,0.0,0.0,0.0,0.0,0.0,0.0,0.0,0.0,0.0,0.0,0.0,0.0,0.0,0.0,0.0,0.0,0.0,0.0,0.0,0.0,0.0,0.0,0.0,0.0,0.0,0.0,0.0,0.0,0.0,0.0,0.0,0.0,0.0,0.0,0.0,0.0,0.0,0.0,0.0,0.0,0.0,0.0,0.0,0.0,0.0,0.0,0.0,0.0,0.0,0.0,0.0,0.0,0.0,0.0,0.0,0.0,0.0,0.0,0.0,0.0,0.0,0.0,0.0,0.0,0.0,0.0,0.0,0.0,0.0,0.0,0.0,0.0,0.0,0.0,0.0,0.0,0.0,0.0,0.0,0.0,0.0,0.0,0.0,0.0,0.0,0.0,0.0,0.0,0.0,0.0,0.0,0.0,0.0,0.0,0.0,0.0,0.0,0.0,0.0,0.0,0.0,0.0,0.0,0.0,0.0,0.0,0.0,0.0,0.0,0.0,0.0,0.0,0.0,0.0,0.0,0.0,0.0,0.0,0.0,0.0,0.0,0.0,0.0,0.0,0.0,0.0,0.0,0.0,0.0,0.0,0.0,0.0,0.0,0.0,0.0,0.0,0.0,0.0,0.0,0.0,0.0,0.0,0.0,0.0,0.0,0.0,0.0,0.0,0.0,0.0,0.0,0.0,0.0,0.0,0.0,0.0,0.0,0.0,0.0,0.0,0.0,0.0,0.0,0.0,0.0,0.0,0.0,0.0,0.0,0.0,0.0,0.0,0.0,0.0,0.0,0.0,0.0,0.0,0.0,0.0,0.0,0.0,0.0,0.0,0.0,0.0,0.0,0.0,0.0,0.0,0.0,0.0,0.0,0.0,0.0,0.0,0.0,0.0,0.0,0.0,0.0,0.0,0.0,0.0,0.0,0.0,0.0,0.0,0.0,0.0,0.0,0.0,0.0,0.0,0.0,0.0,0.0,0.0,0.0,0.0,0.0,0.0,0.0,0.0,0.0,0.0,0.0,0.0,0.0,0.0,0.0,0.0,0.0,0.0,0.0,0.0,0.0,0.0,0.0,0.0,0.0,0.0,0.0,0.0,0.0,0.0,0.0,0.0,0.0,0.0,0.0,0.0,0.0,0.0,0.0,0.0,0.0,0.0,0.0,0.0,0.0,0.0,0.0,0.0,0.0,0.0,0.0,0.0,0.0,0.0,0.0,0.0,0.0,0.0,0.0,0.0,0.0,0.0,0.0,0.0,0.0,0.0,0.0,0.0,0.0,0.0,0.0,0.0,0.0,0.0,0.0,0.0,0.0,0.0,0.0,0.0,0.0,0.0,0.0,0.0,0.0,0.0,0.0,0.0,0.0,0.0,0.0,0.0,0.0,0.0,0.0,0.0,0.0,0.0,0.0,0.0,0.0,0.0,0.0,0.0,0.0,0.0,0.0,0.0,0.0,0.0,0.0,0.0,0.0,0.0,0.0,0.0,0.0,0.0,0.0,0.0,0.0,0.0,0.0,0.0,0.0,0.0,0.0,0.0,0.0,0.0,0.0,0.0,0.0,0.0,0.0,0.0,0.0,0.0,0.0,0.0,0.0,0.0,0.0,0.0,0.0,0.0,0.0,0.0,0.0,0.0,0.0,0.0,0.0,0.0,0.0,0.0,0.0,0.0,0.0,0.0,0.0,0.0,0.0,0.0,0.0,0.0,0.0,0.0,0.0,0.0,0.0,0.0,0.0,0.0,0.0,0.0,0.0,0.0,0.0,0.0,0.0,0.0,0.0,0.0,0.0,0.0,0.0,0.0,0.0,0.0,0.0,0.0,0.0,0.0,0.0,0.0,0.0,0.0,0.0,0.0,0.0,0.0,0.0,0.0,0.0,0.0,0.0,0.0,0.0,0.0,0.0,0.0,0.0,0.0,0.0,0.0,0.0,0.0,0.0,0.0,0.0,0.0,0.0,0.0,0.0,0.0,0.0,0.0,0.0,0.0,0.0,0.0,0.0,0.0,0.0,0.0,0.0,0.0,0.0,0.0,0.0,0.0,0.0,0.0,0.0,0.0,0.0,0.0,0.0,0.0,0.0,0.0,0.0,0.0,0.0,0.0,0.0,0.0,0.0,0.0,0.0,0.0,0.0,0.0,0.0,0.0,0.0,0.0,0.0,0.0,0.0,0.0,0.0,0.0,0.0,0.0,0.0,0.0,0.0,0.0,0.0,0.0,0.0,0.0,0.0,0.0,0.0,0.0,0.0,0.0,0.0,0.0,0.0,0.0,0.0,0.0,0.0,0.0,0.0,0.0,0.0,0.0,0.0,0.0,0.0,0.0,0.0,0.0,0.0,0.0,0.0,0.0,0.0,0.0,0.0,0.0,0.0,0.0,0.0,0.0,0.0,0.0,0.0,0.0,0.0,0.0,0.0,0.0,0.0,0.0,0.0,0.0,0.0,0.0,0.0,0.0,0.0,0.0,0.0,0.0,0.0,0.0,0.0,0.0,0.0,0.0,0.0,0.0,0.0,0.0,0.0,0.0,0.0,0.0,0.0,0.0,0.0,0.0,0.0,0.0,0.0,0.0,0.0,0.0,0.0,0.0,0.0,0.0,0.0,0.0,0.0,0.0,0.0,0.0,0.0,0.0,0.0,0.0,0.0,0.0,0.0,0.0,0.0,0.0,0.0,0.0,0.0,0.0,0.0,0.0,0.0,0.0,0.0,0.0,0.0,0.0,0.0,0.0,0.0,0.0,0.0,0.0,0.0,0.0,0.0,0.0,0.0,0.0,0.0,0.0,0.0,0.0,0.0,0.0,0.0,0.0,0.0,0.0,0.0,0.0,0.0,0.0,0.0,0.0,0.0,0.0,0.0,0.0,0.0,0.0,0.0,0.0,0.0,0.0,0.0,0.0,0.0,0.0,0.0,0.0,0.0,0.0,0.0,0.0,0.0,0.0,0.0,0.0,0.0,0.0,0.0,0.0,0.0,0.0,0.0,0.0,0.0,0.0,0.0,0.0,0.0,0.0,0.0,0.0,0.0,0.0,0.0,0.0,0.0,0.0,0.0,0.0,0.0,0.0,0.0,0.0,0.0,-0.9592,-0.9465,0.0,0.0,0.0,0.0,0.0,0.0,0.0,0.0,0.0,0.0,0.0,0.0,0.0,0.0,0.0,0.0,0.0,0.0,0.0,0.0,0.0,0.0,0.0,0.0,0.0,0.0,0.0,0.0,0.0,0.0,0.0,0.0,0.0,0.0,0.0,0.0,0.0,-1.1368,-1.1764,-1.2228,-1.2848,-1.3136,-1.3622,-1.4222,0.0,0.0,0.0,0.0,0.0,0.0,0.0,0.0,0.0,0.0,0.0,0.0,0.0,0.0,0.0,0.0,0.0,0.0,0.0,0.0,0.0,0.0,0.0,0.0,0.0,0.0,0.0,0.0,0.0,0.0,0.0,0.0,0.0,0.0,0.0,0.0,0.0,0.0,0.0,0.0,0.0,0.0,0.0,0.0,0.0,0.0,0.0,0.0,0.0,0.0,0.0,0.0,0.0,0.0,0.0,0.0,0.0,0.0,0.0,0.0,0.0,0.0,0.0,0.0,0.0,0.0,0.0,0.0,0.0,0.0,-0.9819,-0.9754,0.0,0.0,0.0,0.0,0.0,0.0,0.0,0.0,0.0,0.0,0.0,0.0,0.0,0.0,0.0,0.0,0.0,0.0,0.0,0.0,0.0,0.0,0.0,-0.9533,-0.9569,-0.9631,-1.0052,-1.0224,0.0,0.0,0.0,0.0,0.0,0.0,-1.116,-1.1132,-1.1445,-1.2105,-1.1689,-1.2083,-1.3232,-1.3794,-1.4196,-1.4424,-1.4356,0.0,0.0,0.0,0.0,0.0,0.0,0.0,0.0,0.0,0.0,0.0,0.0,0.0,0.0,0.0,0.0,0.0,0.0,0.0,0.0,0.0,0.0,0.0,0.0,0.0,0.0,0.0,0.0,0.0,0.0,0.0,0.0,0.0,0.0,0.0,0.0,0.0,0.0,0.0,0.0,0.0,0.0,0.0,0.0,0.0,0.0,0.0,0.0,0.0,0.0,0.0,0.0,0.0,0.0,0.0,0.0,0.0,0.0,0.0,0.0,0.0,0.0,0.0,-1.1385,-1.1648,-1.1966,-1.1697,-1.1715,-1.1836,-1.0819,-1.0586,-1.0816,-1.0121,0.0,0.0,0.0,0.0,0.0,0.0,0.0,0.0,0.0,0.0,0.0,0.0,0.0,0.0,0.0,0.0,0.0,0.0,0.0,0.0,0.0,-0.8904,-0.9068,-0.9412,-0.9484,-0.9629,-0.9796,0.0,0.0,0.0,0.0,0.0,-1.0597,-1.0699,-1.0771,-1.0829,-1.1573,-1.251,-1.3611,-1.4205,-1.479,-1.5394,-1.4468,-1.402,-1.402,0.0,0.0,0.0,0.0,0.0,0.0,0.0,0.0,0.0,0.0,0.0,0.0,0.0,0.0,0.0,0.0,0.0,0.0,0.0,0.0,0.0,0.0,0.0,0.0,0.0,0.0,0.0,0.0,0.0,0.0,0.0,0.0,0.0,0.0,0.0,0.0,0.0,0.0,0.0,0.0,0.0,-1.0522,-1.0522,0.0,0.0,0.0,0.0,0.0,0.0,0.0,0.0,0.0,0.0,0.0,0.0,0.0,-1.1458,-1.178,-1.2343,-1.2526,-1.2336,-1.2614,-1.3029,-1.3507,-1.3459,-1.3991,-1.4962,-1.3979,0.0,-1.0939,-1.1386,0.0,0.0,0.0,0.0,0.0,0.0,0.0,0.0,0.0,0.0,0.0,0.0,0.0,0.0,0.0,0.0,0.0,0.0,0.0,0.0,0.0,-0.904,-0.9095,-0.929,-0.9803,-1.0003,-0.969,-1.0295,0.0,0.0,0.0,-1.0641,-1.0873,-1.116,-1.1332,-1.1483,-1.2485,-1.3447,-1.4467,-1.5079,-1.5742,-1.6321,-1.5551,-1.4903,-1.4371,-1.4163,0.0,0.0,0.0,0.0,0.0,0.0,0.0,0.0,0.0,0.0,0.0,0.0,0.0,0.0,0.0,0.0,0.0,0.0,0.0,0.0,0.0,0.0,0.0,0.0,0.0,0.0,0.0,0.0,0.0,0.0,0.0,0.0,0.0,0.0,0.0,0.0,0.0,0.0,0.0,-1.0902,-1.0899,-1.0561,-1.0812,-1.0891,0.0,0.0,0.0,0.0,0.0,0.0,0.0,0.0,0.0,-1.1933,-1.2226,-1.2621,-1.3126,-1.3973,-1.4452,-1.4692,-1.5412,-1.5947,-1.6343,-1.5644,-1.5598,-1.5982,-1.5208,-1.4206,-1.2906,-1.2223,-1.1831,-1.1654,0.0,0.0,0.0,0.0,-1.1378,-1.1735,0.0,0.0,0.0,0.0,0.0,0.0,0.0,0.0,0.0,0.0,0.0,0.0,-0.9197,-0.9424,-0.9557,-0.9547,-1.0221,-1.0394,-0.9779,-1.0458,-1.0673,-1.0156,-1.0694,-1.1042,-1.1138,-1.1475,-1.1757,-1.2032,-1.3205,-1.4316,-1.5349,-1.6214,-1.6978,-1.7492,-1.703,-1.617,-1.502,-1.4435,-1.4143,-1.4143,0.0,0.0,0.0,0.0,0.0,0.0,0.0,0.0,0.0,0.0,0.0,0.0,0.0,0.0,0.0,0.0,0.0,0.0,0.0,0.0,0.0,0.0,0.0,0.0,0.0,0.0,0.0,0.0,0.0,0.0,0.0,0.0,0.0,0.0,0.0,0.0,0.0,-1.1193,-1.1368,-1.0685,-1.1289,-1.1463,0.0,0.0,0.0,0.0,0.0,0.0,-1.2161,-1.2513,-1.3065,-1.3712,-1.39,-1.441,-1.5219,-1.6,-1.662,-1.7154,-1.7852,-1.8346,-1.8664,-1.7808,-1.7441,-1.7374,-1.683,-1.6296,-1.5605,-1.3655,-1.2763,-1.2603,-1.1811,-1.1701,-1.2006,-1.2088,-1.2494,-1.2983,0.0,0.0,0.0,0.0,0.0,0.0,0.0,0.0,0.0,0.0,0.0,-0.8867,-0.9185,-0.9992,-1.0526,-1.0417,-1.0539,-1.0447,-1.0085,-0.994,-0.9932,-1.0005,-1.0226,-1.0549,-1.0897,-1.1253,-1.1448,-1.1519,-1.3124,-1.4702,-1.6239,-1.7493,-1.8501,-1.9225,-1.8664,-1.7561,-1.6052,-1.5103,-1.4609,-1.444,-1.4153,0.0,0.0,0.0,0.0,0.0,0.0,0.0,0.0,0.0,0.0,0.0,0.0,0.0,0.0,0.0,0.0,0.0,0.0,0.0,0.0,0.0,0.0,0.0,0.0,0.0,0.0,0.0,0.0,0.0,0.0,0.0,0.0,0.0,0.0,0.0,0.0,0.0,0.0,-1.105,-1.1884,0.0,0.0,0.0,0.0,-1.215,-1.2749,-1.31,-1.3137,-1.3609,-1.4487,-1.5739,-1.6405,-1.7327,-1.8516,-1.8961,-1.9075,-1.9118,-1.9195,-1.9441,-1.9852,-1.9797,-1.9958,-2.0362,-1.9753,-1.9235,-1.8668,-1.6305,-1.489,-1.4195,-1.3979,-1.3691,-1.3414,-1.3662,-1.3818,-1.3901,0.0,0.0,0.0,0.0,0.0,0.0,0.0,0.0,-0.881,-0.851,-0.8933,-0.9445,-0.9814,-1.0588,-1.0961,-1.0773,-1.0963,-1.0816,-1.0111,-0.997,-1.0007,-1.0213,-1.0097,-1.0335,-1.0954,-1.1301,-1.1817,-1.2519,-1.447,-1.6095,-1.7387,-1.8927,-1.9981,-2.039,-2.004,-1.9544,-1.8867,-1.6642,-1.5265,-1.463,-1.4384,-1.4142,0.0,0.0,0.0,0.0,0.0,0.0,0.0,0.0,0.0,0.0,0.0,0.0,0.0,0.0,0.0,0.0,0.0,0.0,0.0,0.0,0.0,0.0,0.0,0.0,0.0,0.0,0.0,0.0,0.0,0.0,0.0,0.0,0.0,0.0,0.0,0.0,0.0,-1.3004,-1.3926,0.0,-1.3236,-1.3344,-1.3431,-1.3512,-1.3851,-1.4204,-1.4624,-1.5606,-1.6582,-1.7403,-1.8267,-1.9092,-1.9712,-2.0474,-2.0817,-2.0817,-2.1438,-2.1664,-2.152,-2.0976,-2.0579,-2.0372,-1.9609,-1.8991,-1.8543,-1.7464,-1.6506,-1.5682,-1.4708,-1.4418,-1.4538,-1.4616,-1.4827,-1.5029,0.0,0.0,0.0,0.0,0.0,0.0,0.0,0.0,-0.8857,-0.9061,-0.9664,-1.0272,-1.0762,-1.1697,-1.2071,-1.1648,-1.1816,-1.155,-1.05,-1.0339,-1.0308,-1.0316,-1.0495,-1.0867,-1.1418,-1.222,-1.3059,-1.395,-1.6075,-1.7707,-1.8844,-2.0237,-2.1039,-2.1243,-2.1236,-2.1048,-2.0561,-1.8625,-1.7041,-1.5818,-1.5088,-1.4805,-1.4753,0.0,0.0,0.0,0.0,0.0,0.0,0.0,0.0,0.0,0.0,0.0,0.0,0.0,0.0,0.0,0.0,0.0,0.0,0.0,0.0,0.0,0.0,0.0,0.0,0.0,0.0,0.0,0.0,0.0,0.0,0.0,0.0,0.0,0.0,-1.4097,-1.4612,-1.492,-1.5614,-1.5636,-1.4545,-1.4911,-1.5208,-1.5204,-1.5903,-1.659,-1.6961,-1.7977,-1.8908,-1.9571,-2.0218,-2.0784,-2.1132,-2.1872,-2.2148,-2.2148,-2.264,-2.2705,-2.2275,-2.1562,-2.0917,-2.0391,-1.982,-1.9428,-1.9089,-1.8609,-1.7952,-1.7133,-1.5652,-1.5194,-1.5313,-1.546,-1.568,-1.5881,0.0,0.0,0.0,0.0,0.0,0.0,0.0,-0.8804,-0.9008,-0.9517,-1.0424,-1.1284,-1.2053,-1.3286,-1.383,-1.3104,-1.3104,-1.2545,-1.121,-1.0957,-1.071,-1.0368,-1.1375,-1.2075,-1.2415,-1.4084,-1.5207,-1.5765,-1.7803,-1.9363,-2.0629,-2.1408,-2.1722,-2.1754,-2.2222,-2.1861,-2.0942,-2.1002,-1.9942,-1.8179,-1.6155,-1.5825,-1.6208,0.0,0.0,0.0,0.0,0.0,0.0,0.0,0.0,0.0,0.0,0.0,0.0,0.0,0.0,0.0,0.0,0.0,0.0,0.0,0.0,0.0,0.0,0.0,0.0,0.0,0.0,0.0,0.0,0.0,0.0,0.0,0.0,0.0,-1.601,-1.6227,-1.6469,-1.6633,-1.6781,-1.6397,-1.5138,-1.6578,-1.7514,-1.7245,-1.9059,-2.0114,-2.0114,-2.0633,-2.1284,-2.1924,-2.2003,-2.2375,-2.3028,-2.3125,-2.3125,-2.3135,-2.2715,-2.2295,-2.1865,-2.1435,-2.0986,-2.0566,-2.0566,-2.0566,-2.0537,-1.9889,-1.9314,-1.8514,-1.6954,-1.6101,-1.579,-1.6221,-1.6376,-1.6422,0.0,0.0,0.0,0.0,0.0,0.0,-0.8811,-0.8804,-0.9008,-0.9517,-1.0424,-1.1382,-1.241,-1.3626,-1.4072,-1.3483,-1.3424,-1.2761,-1.1317,-1.0864,-1.078,-1.1099,-1.229,-1.3432,-1.4483,-1.5663,-1.6751,-1.7786,-1.9352,-2.0348,-2.0798,-2.1595,-2.209,-2.2272,-2.2562,-2.2734,-2.2797,-2.2603,-2.2083,-2.1292,-1.8344,-1.703,-1.6736,0.0,0.0,0.0,0.0,0.0,0.0,0.0,0.0,0.0,0.0,0.0,0.0,0.0,0.0,0.0,0.0,0.0,0.0,0.0,0.0,0.0,0.0,0.0,0.0,0.0,0.0,0.0,0.0,0.0,0.0,0.0,-1.762,-1.8086,-1.7162,-1.7986,-1.8725,-1.884,-1.9712,-2.0112,-1.9598,-1.9947,-2.0131,-1.9861,-2.0324,-2.0686,-2.0686,-2.1144,-2.1497,-2.1603,-2.193,-2.2279,-2.2685,-2.2685,-2.2832,-2.3135,-2.2715,-2.2295,-2.1865,-2.1435,-2.0986,-2.0566,-2.0566,-2.0411,-2.007,-1.9583,-1.9108,-1.86,-1.7756,-1.725,-1.7046,-1.7477,-1.7633,-1.7559,0.0,0.0,0.0,0.0,0.0,0.0,-0.8804,-0.8804,-0.9061,-0.9814,-1.07,-1.1685,-1.2726,-1.3765,-1.4147,-1.3616,-1.331,-1.2679,-1.1567,-1.1217,-1.153,-1.2534,-1.3864,-1.5079,-1.6103,-1.7422,-1.8577,-1.9439,-2.0653,-2.1401,-2.1845,-2.2314,-2.261,-2.2791,-2.3148,-2.3377,-2.3617,-2.3507,-2.3621,-2.3634,-2.13,-1.9822,-1.8878,-1.7388,-1.7402,-1.7986,-1.6503,-1.6693,-1.7571,-1.6699,0.0,0.0,0.0,0.0,0.0,0.0,0.0,0.0,0.0,0.0,0.0,0.0,0.0,0.0,0.0,0.0,0.0,0.0,0.0,0.0,0.0,0.0,0.0,0.0,-2.0083,-2.0807,-2.0155,-2.0442,-2.0921,-2.1377,-2.1805,-2.1779,-2.1311,-2.1658,-2.1845,-2.1569,-2.2022,-2.2296,-2.2296,-2.2428,-2.2386,-2.214,-2.2173,-2.233,-2.251,-2.2334,-2.2461,-2.2871,-2.2266,-2.1846,-2.1592,-2.1162,-2.081,-2.0566,-2.0566,-2.0411,-2.0079,-1.9841,-1.941,-1.8794,0.0,0.0,0.0,0.0,-1.7651,-1.7321,0.0,0.0,0.0,0.0,0.0,0.0,-0.8804,-0.8804,-0.9159,-1.0261,-1.1048,-1.1957,-1.2959,-1.3796,-1.4012,-1.3523,-1.3086,-1.2567,-1.1908,-1.2043,-1.2832,-1.4361,-1.5703,-1.6799,-1.7652,-1.9373,-2.0471,-2.0856,-2.1866,-2.2632,-2.32,-2.3148,-2.3215,-2.3287,-2.3691,-2.3908,-2.395,-2.4106,-2.4583,-2.5212,-2.4414,-2.3351,-2.1943,-1.9828,-2.0172,-2.1615,-1.9527,-1.9347,-1.9892,-1.9022,0.0,0.0,0.0,0.0,0.0,0.0,0.0,0.0,0.0,0.0,0.0,0.0,0.0,0.0,0.0,0.0,0.0,0.0,0.0,0.0,0.0,0.0,0.0,0.0,-2.2343,-2.3617,-2.4078,-2.3398,-2.3075,-2.3761,-2.3119,-2.2407,-2.1695,-2.2473,-2.2931,-2.2668,-2.3657,-2.4196,-2.4206,-2.3727,0.0,0.0,0.0,-2.2231,-2.2363,-2.2051,-2.207,-2.2432,-2.1621,-2.123,-2.1221,-2.0771,-2.0566,-2.0566,-2.0566,-2.0411,-2.0264,-2.0264,-1.9724,-1.8963,-1.8414,-1.8192,-1.8137,-1.7724,-1.7147,-1.6624,0.0,0.0,0.0,0.0,0.0,0.0,-0.8804,-0.8804,-0.9159,-1.0261,-1.0841,-1.1564,-1.2828,-1.3468,-1.3679,-1.3391,-1.3455,-1.3355,-1.2995,-1.3489,-1.4382,-1.5743,-1.7205,-1.8516,-1.9786,-2.1219,-2.2125,-2.2597,-2.316,-2.3515,-2.369,-2.3384,-2.3391,-2.3743,-2.3836,-2.4074,-2.4405,-2.5125,-2.5532,-2.576,-2.6054,-2.5442,-2.4071,-2.306,-2.2846,-2.2823,-2.1209,-2.1463,-2.2333,-2.0252,-1.9989,-2.0306,-1.8992,-1.7881,0.0,0.0,0.0,0.0,0.0,0.0,0.0,0.0,0.0,0.0,0.0,0.0,0.0,0.0,0.0,0.0,0.0,0.0,0.0,-2.2642,-2.4013,-2.5093,-2.5971,-2.587,-2.527,-2.3988,-2.4306,-2.4412,-2.3947,-2.409,-2.4186,-2.41,-2.4272,-2.4378,-2.4206,-2.3441,-2.2828,-2.2416,-2.1897,-2.1558,-2.1475,-2.1748,-2.1924,-2.2002,-2.1484,0.0,-2.1221,-2.0771,-2.0566,-2.0566,-2.0411,-2.0186,-1.9942,-1.9794,-1.9502,-1.9224,-1.8751,-1.8595,-1.855,-1.8146,-1.8109,-1.8164,0.0,0.0,0.0,0.0,0.0,0.0,-0.8804,-0.8804,-0.9113,-0.9917,-1.0363,-1.0875,-1.1636,-1.2447,-1.28,-1.2499,-1.2733,-1.2969,-1.3109,-1.4179,-1.5417,-1.6768,-1.8475,-1.9934,-2.1093,-2.2025,-2.2766,-2.3308,-2.3703,-2.3935,-2.4027,-2.3919,-2.3991,-2.4209,-2.4209,-2.4577,-2.5179,-2.5579,-2.6318,-2.7139,-2.7395,-2.7261,-2.6795,-2.5327,-2.4964,-2.5001,-2.3398,-2.3191,-2.3418,-2.1602,-2.0854,-2.0454,-1.9636,-1.8662,-1.77,0.0,0.0,0.0,0.0,0.0,0.0,0.0,0.0,0.0,0.0,0.0,0.0,0.0,0.0,-1.9758,-2.0628,0.0,-2.3356,-2.4502,-2.5384,-2.6144,-2.6817,-2.691,-2.6558,-2.531,-2.5614,-2.572,-2.5254,-2.5016,-2.4892,-2.4892,-2.4502,-2.4368,-2.4368,-2.3266,-2.2615,-2.2533,-2.165,-2.1253,-2.1391,-2.1301,-2.1338,-2.1553,-2.1113,-2.0898,-2.0889,-2.0664,-2.0566,-2.0566,-2.042,-2.0186,-2.0108,-1.9724,-1.9598,-1.9577,-1.9164,-1.8889,-1.8687,-1.8495,-1.8284,-1.8073,0.0,0.0,0.0,0.0,0.0,0.0,0.0,-0.8804,-0.9008,-0.9517,-0.9886,-1.0204,-1.0549,-1.1413,-1.1954,-1.1837,-1.2067,-1.2566,-1.3233,-1.476,-1.6307,-1.7754,-1.964,-2.1009,-2.1845,-2.248,-2.3106,-2.3643,-2.394,-2.4169,-2.4346,-2.4459,-2.454,-2.454,-2.47,-2.5105,-2.583,-2.6152,-2.7058,-2.8383,-2.8303,-2.8554,-2.8834,-2.693,-2.6574,-2.699,-2.5295,-2.4443,-2.3843,-2.2488,-2.1175,-2.0081,-1.9973,-1.9275,-1.841,-1.7881,-1.7195,0.0,0.0,0.0,0.0,0.0,0.0,0.0,0.0,-1.8622,-1.9265,-2.0052,-2.1341,-2.2516,-2.3374,-2.4296,-2.5157,-2.5913,-2.6403,-2.6837,-2.721,-2.7179,-2.6993,-2.661,-2.6486,-2.6258,-2.5802,-2.5357,-2.514,-2.5223,-2.4718,-2.4344,-2.433,-2.3286,-2.2695,-2.2788,-2.169,-2.1283,-2.1461,-2.1036,-2.0918,-2.1103,-2.0732,-2.0566,-2.0566,-2.0566,-2.0566,-2.0566,-2.042,-2.0312,-2.0232,-1.9752,-1.9672,-1.9769,-1.943,-1.9109,-1.8815,-1.8742,-1.8339,-1.788,0.0,0.0,0.0,0.0,0.0,0.0,0.0,0.0,-0.9008,-0.9517,-0.9643,-0.9859,-1.0372,-1.1082,-1.1822,-1.2529,-1.2725,-1.3389,-1.468,-1.579,-1.7169,-1.8922,-2.0541,-2.1594,-2.2183,-2.3358,-2.4073,-2.4126,-2.4567,-2.4787,-2.4787,-2.4594,-2.454,-2.454,-2.5348,-2.5746,-2.5902,-2.7232,-2.7971,-2.8223,-2.8554,-2.8791,-2.8743,-2.7831,-2.7615,-2.7706,-2.613,-2.4949,-2.3806,-2.2078,-2.1368,-2.1139,-2.067,-2.0093,-1.9504,-1.8963,-1.7772,-1.6763,-1.77,-1.7775,-1.7973,-1.9446,-1.9028,-1.8955,0.0,-2.204,-2.2106,-2.3056,-2.4061,-2.4864,-2.4943,-2.5743,-2.6394,-2.6495,-2.6879,-2.72,-2.7251,-2.691,-2.663,-2.6579,-2.6206,-2.5782,-2.5347,-2.4892,-2.4788,-2.5202,-2.5093,-2.4625,-2.3645,-2.3502,-2.3018,-2.2297,-2.2106,-2.1816,-2.124,-2.1572,-2.1367,-2.0635,-2.0586,-2.0566,-2.0566,-2.0566,-2.0566,-2.0566,-2.042,-2.0327,-2.0239,-1.9795,-1.9506,-1.9366,-1.932,-1.9274,-1.9191,-1.8843,-1.888,-1.9054,0.0,0.0,0.0,0.0,0.0,0.0,0.0,0.0,0.0,-0.889,-0.8995,-0.9093,-0.9347,-1.0269,-1.1301,-1.2372,-1.2529,-1.3113,-1.4484,-1.589,-1.7476,-1.916,-2.0797,-2.2068,-2.2951,-2.3505,-2.3907,-2.4176,-2.4361,-2.4444,-2.4444,-2.4368,-2.4368,-2.454,-2.5274,-2.5924,-2.6505,-2.7789,-2.8497,-2.8749,-2.9132,-2.9071,-2.867,-2.7288,-2.6456,-2.5864,-2.4909,-2.3494,0.0,-2.0849,-2.0466,-2.037,-1.9841,-1.9504,-1.9155,-1.8326,-1.782,-1.7601,-1.8043,-1.8846,-1.9652,-1.9711,-2.0566,-2.1754,-2.275,-2.3504,-2.417,-2.4847,-2.5983,-2.6726,-2.6491,-2.6977,-2.7302,-2.7035,-2.7138,-2.7169,-2.69,-2.6455,-2.5978,-2.5451,-2.4995,-2.4954,-2.5554,-2.5202,-2.5026,-2.5223,-2.481,-2.4378,-2.3731,-2.3606,-2.3235,-2.2533,-2.2441,-2.2068,-2.1391,-2.1416,-2.1191,-2.0566,-2.0566,-2.0566,-2.0566,-2.0566,-2.0566,-2.042,-2.0342,-2.0134,-1.9888,-1.9711,-1.9626,-1.9641,-1.9393,-1.9448,-1.9613,-1.921,-1.9164,-1.9283,0.0,0.0,0.0,0.0,0.0,0.0,0.0,0.0,0.0,0.0,-0.8474,-0.8679,-0.8981,-0.985,-1.0931,-1.2175,-1.2274,-1.2851,-1.4099,-1.5534,-1.7074,-1.8786,-2.0589,-2.201,-2.3152,-2.35,-2.388,-2.4206,-2.4206,-2.4206,-2.4206,-2.411,-2.4282,-2.47,-2.5443,-2.6257,-2.7174,-2.8198,-2.8823,-2.8986,-2.9071,-2.8579,-2.7669,-2.607,-2.4434,-2.2991,-2.2907,-2.162,-1.9865,-1.9312,-1.9131,-1.9083,-1.8855,-1.877,-1.8686,-1.8205,-1.8446,-1.8845,-1.8614,-1.9767,-2.0918,-2.0732,-2.2363,-2.3951,-2.3995,-2.5022,-2.6026,-2.6245,-2.7228,-2.7778,-2.7078,-2.7306,-2.7429,-2.6973,-2.6982,-2.6951,-2.662,-2.6072,-2.5409,-2.4633,-2.4033,-2.4074,-2.5037,-2.485,-2.4778,-2.5026,-2.4563,-2.4258,-2.4293,-2.3971,-2.3659,-2.3268,-2.2858,-2.2389,-2.1745,-2.1556,-2.1191,-2.0752,-2.0625,-2.0566,-2.0566,-2.0566,-2.0557,-2.0516,-2.0391,-2.0175,-1.9883,-1.9692,-1.9654,-1.9723,-1.9421,-1.9494,-1.9723,-1.9412,-1.9301,-1.9301,0.0,0.0,0.0,0.0,0.0,0.0,0.0,0.0,0.0,0.0,0.0,0.0,0.0,-1.0312,-1.0931,-1.2175,-1.2274,-1.2729,-1.3736,-1.4592,-1.588,-1.7765,-1.9687,-2.1174,-2.2205,-2.3483,-2.4196,-2.4206,-2.4206,-2.4206,-2.4206,-2.3927,-2.4262,-2.52,-2.608,-2.6976,-2.7799,-2.8486,-2.8816,-2.8755,-2.8035,-2.6815,-2.5288,-2.4242,-2.1885,-1.9287,-2.031,-1.9636,-1.8193,-1.7664,-1.7484,-1.7568,-1.8073,-1.8229,-1.8422,-1.942,-2.0105,-2.0423,-1.9995,-2.0476,-2.157,-2.3553,-2.4282,-2.4825,-2.6201,-2.7261,-2.7818,-2.737,-2.7687,-2.7572,-2.6213,-2.6338,-2.6478,-2.6007,-2.6299,-2.6589,-2.6568,-2.5813,-2.5078,-2.4602,-2.3753,-2.3225,-2.3267,-2.3256,-2.3608,-2.4498,-2.4464,-2.4661,-2.5153,-2.4682,-2.4461,-2.4445,-2.3649,-2.2914,-2.2471,-2.207,-2.165,-2.1211,-2.0771,-2.0566,-2.0566,-2.0566,-2.0801,-2.1111,-2.0526,-2.0416,-2.0529,-1.9883,-1.9478,-1.932,-1.9301,-1.9311,-1.932,-1.9301,-1.9301,-1.9301,0.0,0.0,0.0,0.0,0.0,0.0,0.0,0.0,0.0,0.0,0.0,0.0,0.0,0.0,0.0,0.0,-1.2175,-1.2526,-1.3403,-1.4129,-1.5109,-1.6626,-1.8184,-1.9568,-2.0789,-2.1749,-2.2509,-2.2892,-2.2892,-2.2892,-2.2902,-2.3108,-2.3418,-2.3926,-2.5543,-2.6423,-2.6857,-2.8443,-2.8698,-2.7975,-2.7007,-2.5901,-2.4518,-2.2053,-2.0237,-1.8903,0.0,-1.7388,-1.656,-1.638,-1.6548,-1.6859,-1.6644,-1.6871,-1.7436,-1.8843,-1.9654,-2.0346,-2.1389,-2.2662,-2.3787,-2.4646,-2.5859,-2.6977,-2.7457,-2.7807,-2.7905,-2.7413,-2.6682,-2.5855,-2.4884,-2.474,-2.4798,-2.5152,-2.5706,-2.6113,-2.6113,-2.6472,-2.5936,-2.3888,-2.3907,-2.362,-2.2403,-2.2832,-2.3318,-2.3619,-2.4479,-2.4602,-2.3646,-2.4587,-2.4619,-2.3418,-2.3373,-2.3146,-2.2519,-2.2373,-2.209,-2.166,-2.1221,-2.1016,-2.1016,-2.1016,-2.125,-2.166,-2.124,-2.0933,-2.0566,-2.0192,-1.9719,-1.9301,-1.9301,-1.9301,-1.9301,-1.9301,-1.9301,-1.9347,0.0,0.0,0.0,0.0,0.0,0.0,0.0,0.0,0.0,0.0,0.0,0.0,0.0,0.0,0.0,0.0,0.0,-1.2296,-1.2828,-1.3385,-1.4204,-1.536,-1.6543,-1.7791,-1.8994,-1.9781,-2.0367,-2.0807,-2.0807,-2.0807,-2.0817,-2.1174,-2.1758,-2.2475,-2.3859,-2.4859,-2.5424,-2.6581,-2.6647,-2.5937,-2.4855,-2.3664,-2.2306,-2.0069,-1.865,0.0,-1.6714,-1.608,-1.5792,-1.5792,-1.602,-1.6272,-1.6116,-1.6871,-1.7939,-1.903,-2.01,-2.1336,-2.2969,-2.4296,-2.5336,-2.6023,-2.713,-2.8036,-2.8036,-2.7905,-2.7501,-2.6507,-2.5426,-2.4266,-2.3048,-2.2787,-2.3048,-2.3656,-2.4272,-2.5065,-2.6066,-2.6139,-2.5637,-2.4341,-2.461,-2.4334,-2.2889,-2.3592,-2.3881,-2.3414,-2.476,-2.515,-2.4041,-2.5239,-2.5344,-2.4053,-2.4268,-2.4193,-2.3642,-2.3237,-2.2621,-2.1885,-2.1602,-2.1465,-2.1465,-2.1465,-2.1621,-2.1885,-2.1598,-2.1192,-2.0576,-2.0423,-1.9928,-1.932,-1.9467,-1.9522,-1.954,-1.9687,-1.9732,-1.9732,0.0,0.0,0.0,0.0,0.0,0.0,0.0,0.0,0.0,0.0,0.0,0.0,0.0,0.0,0.0,0.0,0.0,0.0,-1.2076,-1.2424,-1.3081,-1.4026,-1.4849,-1.5745,-1.6825,-1.7619,-1.8065,-1.8085,-1.823,-1.8297,-1.8307,-1.8518,-1.939,-2.0762,-2.1232,-2.2287,-2.3652,-2.3147,-2.2919,-2.2811,-2.1716,-2.0346,-1.8891,-1.8301,-1.7147,-1.5792,-1.5792,-1.5792,-1.5792,-1.5828,-1.5876,-1.6008,-1.6536,-1.8181,-1.9917,-1.9995,-2.1509,-2.3375,-2.4612,-2.5383,-2.6086,-2.761,-2.8058,-2.8025,-2.7981,-2.7555,-2.6638,-2.476,-2.3908,-2.2872,-2.0885,-2.0732,-2.1172,-2.1922,-2.2376,-2.3587,-2.6428,-2.5295,-2.4661,-2.5891,-2.5705,-2.5242,-2.4746,-2.5461,-2.5321,-2.3985,-2.5508,-2.6381,-2.5995,-2.654,-2.6637,-2.6119,-2.6163,-2.6019,-2.5735,-2.4472,-2.3215,-2.2079,-2.1997,-2.1997,-2.1997,-2.1914,-2.1934,-2.1953,-2.1665,-2.1259,-2.0642,-2.0398,-1.9993,-1.9402,-1.9806,-1.9962,-2.0008,-2.0383,-2.0521,-2.0411,0.0,0.0,0.0,0.0,0.0,0.0,0.0,0.0,0.0,0.0,0.0,0.0,0.0,0.0,0.0,0.0,0.0,0.0,-1.1528,-1.1615,-1.1857,-1.231,-1.3095,-1.3983,-1.4893,-1.5681,-1.6338,-1.6792,-1.6931,-1.6986,-1.6996,-1.781,-1.8471,-1.8874,-2.0303,-2.1178,-2.1578,-2.2186,-2.2161,-2.168,-2.0201,-1.9119,-1.8253,-1.6943,-1.6152,-1.5792,-1.5792,-1.5792,-1.5852,-1.6248,-1.6955,-1.7688,-1.8217,-1.9588,-2.1104,-2.1518,-2.3179,-2.5036,-2.5822,-2.6727,-2.7601,-2.8353,-2.8309,-2.7861,-2.7151,-2.6059,-2.476,-2.3198,-2.1614,-2.026,-1.9334,-1.9329,-2.0143,-2.2336,-2.3755,-2.5458,-2.789,-2.846,-2.804,-2.6523,-2.6941,-2.73,-2.7238,-2.7323,-2.6919,-2.6146,-2.651,-2.6523,-2.587,-2.6944,-2.7058,-2.5891,-2.5902,-2.5579,-2.4829,-2.4459,-2.4336,-2.4378,-2.3639,-2.3318,-2.3318,-2.2671,-2.2519,-2.2822,-2.2553,-2.2064,-2.1513,-2.124,-2.0829,-2.0218,-2.0328,-2.0365,-2.0383,-2.0484,-2.0521,-2.0484,0.0,0.0,0.0,0.0,0.0,0.0,0.0,0.0,0.0,0.0,0.0,0.0,0.0,0.0,0.0,0.0,0.0,0.0,0.0,-1.1326,-1.1427,-1.1678,-1.2155,-1.2644,-1.329,-1.3801,-1.4223,-1.4515,-1.4687,-1.4744,-1.4754,-1.5866,-1.6465,-1.6764,-1.8278,-1.908,-1.9309,-1.9606,-1.9576,0.0,0.0,-1.7436,-1.7063,-1.6128,-1.5792,-1.5792,-1.5792,-1.6236,-1.6991,-1.7748,-1.841,-1.9071,-2.0081,-2.138,-2.2651,-2.3491,-2.4739,-2.606,-2.6849,-2.7744,-2.8375,-2.8429,-2.7927,-2.7119,-2.595,-2.4574,-2.3067,-2.1385,-2.0009,-1.8884,-1.8196,-1.8008,-1.8865,-2.1487,-2.2761,-2.4567,-2.7848,-2.8248,-2.8087,-2.7762,-2.8061,-2.8359,-2.8509,-2.8816,-2.8983,-2.8741,-2.8598,-2.7903,-2.6528,-2.79,-2.8045,-2.6577,-2.6823,-2.6588,-2.5663,-2.5673,-2.546,-2.4858,-2.4357,-2.3852,-2.3438,-2.2945,-2.3083,-2.3647,-2.3057,-2.264,-2.2405,-2.1712,-2.1135,-2.0539,-2.0714,-2.0778,-2.0796,-2.0989,-2.1053,-2.1053,0.0,0.0,0.0,0.0,0.0,0.0,0.0,0.0,0.0,0.0,0.0,0.0,0.0,0.0,0.0,0.0,0.0,0.0,0.0,0.0,-1.1326,-1.1619,-1.1628,-1.1778,-1.2076,-1.2224,-1.2274,-1.2274,-1.2431,-1.248,-1.249,-1.3581,-1.4289,-1.4817,-1.5894,-1.665,-1.7123,-1.6667,-1.6476,-1.644,-1.5972,-1.5792,-1.5792,0.0,-1.5792,-1.5792,-1.5792,-1.6726,-1.8097,-1.9444,-2.0033,-2.0502,-2.2123,-2.3416,-2.448,-2.5489,-2.6219,-2.6856,-2.7787,-2.8386,-2.8637,-2.8156,-2.7228,-2.6059,-2.4618,-2.3067,-2.1417,-1.9604,-1.884,-1.825,-1.7431,-1.7143,-1.7861,-2.0527,-2.1316,-2.3052,-2.7332,-2.6921,-2.7013,-2.9116,-2.9009,-2.8803,-2.901,-2.9856,-3.0616,-3.0916,-3.0673,-2.972,-2.7837,-2.9285,-2.9403,-2.7754,-2.8182,-2.8078,-2.7348,-2.7267,-2.6423,-2.4829,-2.4744,-2.4155,-2.3309,-2.3135,-2.3647,-2.4413,-2.3396,-2.3006,-2.3237,-2.2141,-2.1247,-2.0714,-2.1053,-2.119,-2.1236,-2.1603,-2.1741,-2.1741,0.0,0.0,0.0,0.0,0.0,0.0,0.0,0.0,0.0,0.0,-0.8131,-0.8988,0.0,0.0,0.0,0.0,0.0,0.0,0.0,0.0,0.0,-1.1326,-1.1377,-1.1628,-1.2076,-1.2126,-1.2126,-1.2126,-1.2283,-1.2323,-1.2382,-1.3385,-1.3894,-1.4037,-1.5165,-1.5727,-1.5818,-1.5915,-1.5924,-1.5924,-1.5828,-1.5792,-1.5792,-1.5792,0.0,0.0,-1.5792,-1.5972,-1.6632,-1.9516,-2.1344,-2.2723,-2.4319,-2.5573,-2.6531,-2.682,-2.7592,-2.8244,-2.8061,-2.8386,-2.8637,-2.8156,-2.6715,-2.5043,-2.3591,-2.1527,-1.9604,-1.848,-1.7868,-1.7475,-1.7311,-1.7754,-1.9039,-2.187,-2.3261,-2.5051,-2.7933,-2.8429,-2.8858,-2.9809,-2.9249,-2.9046,-2.956,-2.9584,-2.9696,-2.999,-3.0236,-3.0307,-3.0159,-3.0449,-3.0138,-2.8997,-2.8398,-2.8117,-2.8271,-2.7592,-2.7021,-2.6764,-2.5913,-2.5073,-2.4241,-2.3474,-2.3647,-2.4498,-2.3754,-2.3531,-2.3604,-2.2843,-2.2114,-2.153,-2.1603,-2.163,-2.164,-2.1713,-2.1741,-2.1741,0.0,0.0,0.0,0.0,0.0,0.0,0.0,-0.5953,-0.6701,-0.7304,-0.8084,-0.8784,-0.9309,-0.9524,-0.974,0.0,0.0,0.0,0.0,0.0,0.0,0.0,-1.1326,-1.1569,-1.2076,-1.2076,-1.2076,-1.2076,0.0,-1.2175,-1.2224,-1.3218,-1.3695,-1.3742,-1.4949,-1.5513,-1.5513,-1.5703,-1.5792,-1.5792,-1.5792,-1.5792,-1.5792,-1.5792,0.0,0.0,-1.5792,-1.6152,-1.6931,-1.9071,-2.071,-2.24,-2.5025,-2.6415,-2.7186,-2.7538,-2.7821,-2.8032,-2.8368,-2.8582,-2.8517,-2.7555,-2.5852,-2.3973,-2.2269,-2.0227,-1.848,-1.7781,-1.7442,-1.7278,-1.7278,-1.7453,-1.8286,-2.0569,-2.1839,-2.329,-2.5619,-2.7026,-2.8052,-2.8659,-2.8819,-2.9208,-2.9807,-2.9978,-3.0082,-3.0313,-3.081,-3.0902,-3.0511,-3.0253,-2.9764,-2.8907,-2.8466,-2.8348,-2.851,-2.7603,-2.6928,-2.6423,-2.5579,-2.4659,-2.3734,-2.357,-2.4003,-2.485,-2.3744,-2.3647,-2.4059,-2.2775,-2.2008,-2.1741,-2.1741,-2.186,-2.2043,-2.2043,-2.2181,-2.2281,0.0,0.0,0.0,0.0,0.0,0.0,0.0,-0.5533,-0.6287,-0.7309,-0.7877,-0.8408,-0.8949,-0.9159,-0.9472,0.0,0.0,0.0,0.0,0.0,0.0,0.0,0.0,0.0,-1.2116,0.0,0.0,-1.2224,-1.2224,0.0,0.0,0.0,0.0,0.0,-1.4674,-1.5232,-1.5232,-1.5603,-1.5748,0.0,0.0,-1.5792,-1.5792,0.0,0.0,0.0,0.0,-1.6332,-1.7255,-1.8434,-1.9555,-2.0995,-2.4131,-2.5761,-2.6713,-2.7206,-2.7336,-2.7501,-2.8364,-2.8604,-2.8287,-2.6955,-2.5011,-2.2979,-2.1254,-1.9299,-1.7748,-1.7355,-1.7278,-1.7278,-1.7211,-1.7088,-1.7551,-1.9213,-2.0012,-2.114,-2.311,-2.5062,-2.6494,-2.7198,-2.8084,-2.8943,-2.9745,-2.985,-3.0035,-3.0397,-3.1107,-3.1227,-3.0461,-2.9988,-2.9371,-2.8691,-2.8679,-2.8631,-2.851,-2.7603,-2.6753,-2.583,-2.5073,-2.4317,-2.3396,-2.3917,-2.4657,-2.5583,-2.4034,-2.3871,-2.4537,-2.2725,-2.182,-2.175,-2.1823,-2.2052,-2.2337,-2.2428,-2.2612,-2.2729,0.0,0.0,0.0,0.0,0.0,0.0,0.0,-0.4886,-0.5466,-0.6382,-0.6696,-0.7235,-0.8368,-0.9152,-0.9673,0.0,0.0,0.0,0.0,0.0,0.0,0.0,0.0,0.0,0.0,0.0,0.0,-1.2627,-1.2627,0.0,0.0,0.0,0.0,0.0,0.0,-1.4316,-1.4362,-1.5187,0.0,0.0,0.0,0.0,0.0,0.0,0.0,0.0,0.0,-1.5852,-1.6176,-1.776,-1.8698,-1.9407,-2.0745,-2.2823,-2.4711,-2.5026,-2.6107,-2.7424,-2.796,-2.8102,-2.7861,-2.6846,-2.4508,-2.2171,-2.1101,-1.9098,-1.7333,-1.7289,-1.7278,-1.7211,-1.7078,-1.7335,-1.8159,-1.9669,-1.9889,-2.0527,-2.2546,-2.3863,-2.5183,-2.6433,-2.6802,-2.7589,-2.9287,-2.8443,-2.8226,-2.9199,-3.0086,-3.0664,-3.1113,-3.0435,-2.9773,-2.9244,-2.9232,-2.8991,-2.851,-2.7603,-2.6753,-2.5819,-2.5746,-2.5242,-2.4413,-2.485,-2.5753,-2.6879,-2.4922,-2.4467,-2.5057,-2.3379,-2.2264,-2.1777,-2.2135,-2.2291,-2.2373,-2.2758,-2.2676,-2.2382,0.0,0.0,0.0,0.0,0.0,0.0,-0.4477,-0.5198,-0.6037,-0.6854,-0.761,-0.8256,-0.8844,-0.9152,-0.9413,-0.9629,0.0,0.0,0.0,0.0,0.0,0.0,0.0,0.0,0.0,0.0,-1.252,-1.2676,-1.29,0.0,0.0,0.0,0.0,0.0,0.0,-1.4222,-1.4269,-1.4971,0.0,0.0,0.0,0.0,0.0,0.0,0.0,0.0,0.0,0.0,-1.5888,-1.6524,-1.6979,-1.7381,-1.7677,-1.9055,-2.0989,-2.3301,-2.4858,-2.6069,-2.69,-2.7392,-2.7239,-2.5699,-2.3809,-2.1909,-2.0347,-1.8589,-1.7278,-1.7278,-1.72,-1.7078,-1.7011,-1.7078,-1.7422,-1.8363,-1.8453,-1.8949,-2.0522,-2.1811,-2.3061,-2.4423,-2.5884,-2.7138,-2.8195,-2.8371,-2.8819,-2.9821,-2.9803,-3.0011,-3.0531,-3.0278,-2.9701,-2.8847,-2.8823,-2.8474,-2.7684,-2.6835,-2.6163,-2.5819,-2.5242,-2.5073,-2.5337,-2.5818,-2.6312,-2.6744,-2.5352,-2.4723,-2.4611,-2.3137,-2.236,-2.2107,-2.2263,-2.263,-2.3079,-2.3244,-2.3354,-2.3391,0.0,0.0,0.0,0.0,0.0,-0.3858,-0.4654,-0.5385,-0.6276,-0.7329,-0.8096,-0.8685,-0.9001,-0.9001,-0.9099,-0.9263,-0.9361,0.0,0.0,0.0,0.0,0.0,0.0,0.0,0.0,0.0,-1.2304,-1.2706,-1.2977,-1.2987,0.0,0.0,-1.2949,-1.2725,0.0,0.0,0.0,0.0,0.0,0.0,0.0,0.0,0.0,0.0,0.0,0.0,0.0,0.0,0.0,0.0,0.0,-1.6054,-1.5867,-1.6633,-1.8127,-2.1045,-2.2894,-2.4248,-2.5359,-2.5906,-2.5895,-2.4421,-2.2848,-2.1243,-1.9583,-1.8206,-1.7278,-1.7278,-1.7145,-1.7011,-1.6976,-1.6818,-1.6797,-1.7113,-1.7179,-1.7707,-1.919,-2.0149,-2.1402,-2.3172,-2.4471,-2.5896,-2.7392,-2.8373,-2.9346,-3.0276,-2.9832,-2.9689,-3.0062,-3.0086,-2.9605,-2.8546,-2.851,-2.8179,-2.7592,-2.667,-2.6246,-2.6246,-2.5579,-2.5589,-2.6008,-2.6539,-2.6697,-2.6411,-2.5269,-2.4536,-2.4118,-2.2866,-2.2327,-2.2346,-2.2593,-2.3033,-2.3556,-2.3675,-2.3733,-2.3628,0.0,0.0,0.0,0.0,0.0,0.0,-0.5277,-0.5287,-0.5777,-0.7641,-0.767,-0.7783,-0.8521,-0.8626,-0.8732,-0.9008,-0.9263,0.0,0.0,0.0,0.0,0.0,0.0,0.0,0.0,0.0,-1.2138,-1.2812,-1.2812,-1.2967,-1.317,-1.2861,-1.2676,-1.2676,0.0,0.0,0.0,0.0,0.0,0.0,0.0,0.0,0.0,0.0,0.0,0.0,0.0,0.0,0.0,0.0,0.0,0.0,0.0,-1.6164,-1.6824,-1.8002,-2.0064,-2.2151,-2.3161,-2.3556,-2.3646,-2.3143,-2.1581,-1.9846,-1.8916,-1.7966,-1.7278,-1.7278,-1.7145,-1.7022,-1.6973,-1.6772,-1.6574,-1.643,-1.6409,-1.7063,-1.8876,-1.9239,-2.0366,-2.3155,-2.2485,-2.3279,-2.7151,-2.813,-2.8943,-3.0013,-3.0086,-3.0074,-3.0086,-3.0086,-2.9605,-2.8546,-2.851,-2.851,-2.851,-2.7603,-2.7185,-2.7185,-2.7185,-2.694,-2.6528,-2.694,-2.6869,-2.6098,-2.4512,-2.3712,-2.349,-2.2592,-2.2327,-2.2401,-2.3217,-2.3538,-2.3593,-2.3996,-2.3592,-2.2673,0.0,0.0,0.0,0.0,0.0,0.0,0.0,-0.5231,-0.5854,-0.6944,-0.735,-0.7729,-0.8171,-0.8017,-0.8163,-0.8823,-0.9113,0.0,0.0,0.0,0.0,0.0,0.0,0.0,0.0,0.0,-1.194,-1.2812,-1.3064,-1.3372,-1.3621,-1.3478,-1.3286,-1.3035,-1.3334,-1.3286,0.0,0.0,0.0,0.0,0.0,0.0,-1.4501,0.0,0.0,0.0,0.0,0.0,0.0,0.0,0.0,0.0,0.0,0.0,0.0,-1.6303,-1.7978,-1.9941,-2.075,-2.1118,-2.1079,-2.026,-1.9364,-1.8512,-1.7868,-1.7224,-1.6798,-1.7069,-1.7043,-1.6952,-1.6772,-1.6591,-1.657,-1.6914,-1.7005,-1.7488,-1.8739,-1.8932,-1.9617,-2.1404,-2.3069,-2.5027,-2.7416,-2.7605,-2.8128,-2.9496,-2.9035,-2.894,-2.9544,-2.9544,-2.9232,-2.8534,-2.851,-2.8179,-2.7603,-2.667,-2.6588,-2.7185,-2.6268,-2.6362,-2.7487,-2.7656,-2.7167,-2.6141,-2.5499,-2.4723,-2.3852,-2.3029,-2.2914,-2.318,-2.3446,-2.3712,-2.3978,-2.4106,-2.3764,-2.3008,0.0,0.0,0.0,0.0,0.0,0.0,0.0,-0.5365,-0.5908,-0.6919,-0.7296,-0.7509,-0.7727,-0.769,-0.7852,-0.8305,-0.8673,0.0,0.0,0.0,0.0,0.0,0.0,0.0,-1.0522,-1.0863,-1.1401,-1.2276,-1.2716,-1.317,-1.3668,-1.3716,-1.3621,-1.3409,-1.3515,-1.3372,0.0,0.0,0.0,0.0,0.0,0.0,-1.4082,0.0,0.0,0.0,0.0,0.0,0.0,0.0,0.0,0.0,0.0,0.0,0.0,0.0,-1.6427,-1.7577,-1.8484,-1.8868,-1.8916,-1.8316,-1.7791,-1.7366,-1.706,-1.67,-1.6559,-1.6991,-1.6941,-1.6782,-1.6715,-1.6545,-1.6534,-1.6842,-1.6901,-1.7296,-1.8174,-1.847,-1.9215,-2.0881,-2.3514,-2.5509,-2.652,-2.668,-2.7298,-2.8657,-2.8277,-2.8361,-2.921,-2.8964,-2.855,-2.803,-2.8007,-2.7592,-2.667,-2.608,-2.608,-2.667,-2.6019,-2.6196,-2.7149,-2.7335,-2.6658,-2.528,-2.5166,-2.4441,0.0,-2.3065,-2.3189,-2.3556,-2.3712,-2.3932,-2.4152,-2.3945,-2.3538,-2.2894,0.0,0.0,0.0,0.0,0.0,0.0,0.0,-0.552,-0.5877,-0.7304,-0.7294,-0.7199,-0.7354,-0.7579,-0.7691,-0.7615,0.0,0.0,0.0,0.0,0.0,0.0,0.0,0.0,-1.0272,-1.0265,-1.0667,-1.1401,-1.1882,-1.256,-1.3314,-1.3515,-1.3621,-1.3716,-1.342,-1.3084,-1.2774,-1.2725,-1.29,-1.3218,-1.3218,-1.3467,0.0,0.0,0.0,0.0,0.0,0.0,0.0,0.0,0.0,0.0,0.0,0.0,0.0,0.0,0.0,0.0,0.0,-1.6883,-1.7071,-1.7071,-1.6721,-1.6383,-1.6384,-1.6321,0.0,-1.7146,-1.6896,-1.6648,-1.6736,-1.6566,-1.6384,-1.6384,-1.6436,-1.6708,-1.7421,-1.7961,-1.9142,-2.1592,-2.3676,-2.4915,-2.4826,-2.5344,-2.6351,-2.7839,-2.7874,-2.8219,-2.9068,-2.8385,-2.7644,-2.6976,-2.6999,-2.6588,-2.5819,-2.5735,-2.5746,-2.5819,-2.6091,-2.6102,-2.5852,-2.6229,-2.5454,-2.38,-2.3831,-2.331,-2.2401,-2.2795,-2.3208,-2.362,-2.3969,-2.4125,-2.4044,-2.3502,-2.2902,-2.2325,0.0,0.0,0.0,0.0,0.0,0.0,0.0,0.0,0.0,0.0,-0.6642,-0.6678,-0.6924,-0.682,-0.692,0.0,0.0,0.0,0.0,0.0,0.0,0.0,0.0,0.0,-0.9903,-1.0162,-1.06,-1.1275,-1.1484,-1.194,-1.2667,-1.3064,-1.3314,-1.3362,-1.3668,-1.3668,-1.3382,-1.318,-1.3122,-1.3218,-1.3515,-1.3515,0.0,0.0,0.0,0.0,-1.4501,-1.4823,0.0,0.0,0.0,0.0,0.0,0.0,0.0,0.0,-1.4834,-1.4821,-1.4942,0.0,-1.5061,-1.5061,-1.4974,-1.5001,0.0,-1.554,-1.5807,-1.6704,-1.6839,-1.6669,-1.6555,-1.6441,-1.6384,-1.6384,-1.6964,-1.743,-1.7502,-1.8771,-2.0471,-2.2475,-2.3563,-2.4432,-2.5305,-2.5027,-2.5549,-2.7264,-2.6757,-2.6757,-2.7615,-2.7521,-2.6543,-2.4636,-2.4977,-2.5326,-2.5819,-2.5158,-2.5073,-2.5568,-2.4669,-2.4669,-2.5589,-2.5733,-2.51,-2.381,-2.4162,-2.3767,-2.2813,-2.282,-2.3373,-2.3987,-2.3767,-2.3573,-2.3502,-2.3001,-2.2486,-2.1827,0.0,0.0,0.0,0.0,0.0,0.0,0.0,0.0,0.0,0.0,0.0,0.0,0.0,0.0,0.0,0.0,0.0,0.0,0.0,0.0,0.0,0.0,0.0,-0.974,-0.9799,-0.9955,-1.03,-1.0795,-1.1099,-1.1451,-1.1981,-1.2716,-1.316,-1.3218,-1.3573,-1.3621,-1.3515,-1.3362,-1.3218,-1.316,-1.3573,0.0,0.0,0.0,0.0,0.0,-1.4269,-1.4593,0.0,-1.5289,-1.5244,-1.5108,0.0,0.0,0.0,0.0,-1.4708,-1.4662,-1.4466,-1.4548,-1.4712,-1.4712,-1.4875,-1.5176,-1.5665,-1.5711,-1.5839,-1.6623,-1.6726,-1.6555,-1.6441,-1.6316,-1.6321,-1.6526,-1.6908,-1.7317,-1.7735,-1.9273,-2.0966,-2.2594,-2.3244,-2.3895,-2.4973,-2.4367,-2.4573,-2.6412,-2.5746,-2.5746,-2.7103,-2.6423,-2.5279,-2.3815,-2.3642,-2.3764,-2.4262,-2.3968,-2.3983,-2.4231,-2.3744,-2.3831,-2.4402,-2.5026,-2.4574,-2.3406,-2.4107,-2.3716,-2.2685,-2.2784,-2.3318,-2.3849,-2.3629,-2.3385,-2.3203,-2.2801,-2.2255,-2.1623,0.0,0.0,0.0,0.0,0.0,0.0,0.0,0.0,0.0,0.0,0.0,0.0,0.0,0.0,0.0,0.0,0.0,0.0,0.0,0.0,0.0,0.0,-0.9465,-0.9621,-0.9747,-0.9799,-0.9955,-1.0213,-1.0659,-1.1006,-1.1259,-1.2236,-1.2861,-1.317,-1.3362,-1.3467,-1.3467,-1.3467,-1.3362,-1.317,-1.3515,0.0,0.0,0.0,0.0,0.0,0.0,0.0,0.0,-1.5017,-1.5017,-1.5017,-1.5017,0.0,0.0,0.0,0.0,0.0,-1.4419,-1.474,-1.5143,-1.5127,-1.5426,-1.5801,-1.616,-1.6094,-1.6113,-1.662,-1.6555,-1.6374,-1.6374,-1.63,-1.6348,-1.6677,-1.6789,-1.7196,-1.8368,-1.9667,-2.0978,-2.2309,-2.2814,-2.3371,-2.4219,-2.3567,-2.381,-2.5495,-2.4914,-2.5136,-2.6569,-2.523,-2.4062,-2.3453,-2.2784,-2.2383,-2.2324,-2.2648,-2.2805,-2.262,-2.3047,-2.3173,-2.3057,-2.4079,-2.3917,-2.2823,-2.3792,-2.3442,-2.2355,-2.2619,-2.2935,-2.3335,-2.3281,-2.3135,-2.302,-2.2466,-2.1979,-2.1522,0.0,0.0,0.0,0.0,0.0,0.0,0.0,0.0,0.0,0.0,0.0,0.0,0.0,0.0,0.0,0.0,0.0,0.0,0.0,0.0,0.0,-0.9047,-0.9309,-0.9465,-0.9465,-0.9688,-0.9851,-0.9903,-1.0051,-1.0257,-1.0462,-1.1057,-1.1882,-1.2871,-1.3467,-1.3716,-1.3773,-1.3868,-1.3868,-1.3868,-1.3915,0.0,0.0,0.0,0.0,0.0,0.0,0.0,0.0,-1.4616,-1.4616,-1.4558,-1.4708,0.0,0.0,0.0,0.0,0.0,-1.4269,-1.4871,-1.5466,-1.5154,-1.5275,-1.5541,-1.5956,-1.59,-1.5883,-1.6388,-1.64,-1.6316,-1.6104,-1.642,-1.6656,-1.6548,-1.7302,-1.8418,-1.9683,-2.0286,-2.0891,-2.1849,-2.2332,-2.2818,-2.3309,-2.3218,-2.356,-2.4659,-2.4584,-2.4407,-2.4345,-2.4075,-2.3206,-2.1688,-2.1869,-2.1807,-2.1435,-2.1671,-2.1805,-2.1921,-2.1815,-2.2178,-2.2891,-2.3057,-2.2969,-2.2803,-2.2949,-2.2735,-2.2236,-2.194,-2.2209,-2.2726,-2.2005,-2.182,-2.1887,-2.1487,-2.1167,-2.1019,0.0,0.0,0.0,0.0,0.0,0.0,0.0,0.0,0.0,0.0,0.0,0.0,0.0,0.0,0.0,0.0,0.0,0.0,0.0,0.0,-0.8605,-0.8903,-0.9061,-0.9263,-0.9413,-0.9524,-0.9636,-0.9799,-0.9851,-0.9955,-1.0162,-1.0753,-1.1642,-1.2812,-1.3112,-1.342,-1.3716,-1.3763,-1.3821,-1.3868,0.0,0.0,0.0,0.0,0.0,0.0,0.0,0.0,0.0,0.0,-1.4373,-1.443,-1.4523,0.0,0.0,0.0,0.0,0.0,-1.4222,-1.4655,-1.5153,-1.5225,-1.5679,-1.6058,-1.6192,-1.6154,-1.6115,-1.6156,-1.6208,-1.6171,-1.6046,-1.6364,-1.6799,-1.7258,-1.8134,-1.9039,-1.9649,-2.0026,-2.0446,-2.1058,-2.154,-2.2089,-2.2679,-2.2824,-2.3137,-2.4041,-2.3713,-2.3436,-2.3474,-2.3052,-2.2277,-2.126,-2.1426,-2.1318,-2.0879,-2.0736,-2.0914,-2.1476,-2.1306,-2.1437,-2.1917,-2.2265,-2.2398,-2.2283,-2.2856,-2.2664,-2.1934,-2.1695,-2.1813,-2.2046,-2.1587,-2.1447,-2.1428,-2.1067,-2.0985,-2.0925,0.0,0.0,0.0,0.0,0.0,0.0,0.0,0.0,0.0,0.0,0.0,0.0,0.0,0.0,0.0,0.0,0.0,0.0,0.0,0.0,-0.8633,-0.8804,-0.891,-0.9061,-0.9309,-0.9361,-0.9517,-0.9688,-0.974,-0.9844,-0.9999,-1.0702,-1.1493,-1.2472,-1.2667,-1.3016,-1.342,-1.3573,-1.3668,-1.3763,0.0,0.0,0.0,0.0,0.0,0.0,0.0,0.0,0.0,0.0,0.0,0.0,0.0,0.0,0.0,-1.4373,-1.4373,-1.4326,-1.4129,-1.435,-1.4779,-1.5183,-1.5869,-1.6398,-1.641,-1.642,-1.6434,-1.6151,-1.6131,-1.6141,-1.6151,-1.6437,-1.702,-1.7959,-1.8877,-1.9473,-1.957,-1.9863,-2.0195,-2.0527,-2.0967,-2.1494,-2.2148,-2.2305,-2.2606,-2.3329,-2.2765,-2.2502,-2.2696,-2.2128,-2.1533,-2.1094,-2.1074,-2.0918,-2.0489,-2.0098,-2.0311,-2.104,-2.08,-2.0763,-2.097,-2.1664,-2.1804,-2.1612,-2.2556,-2.2466,-2.167,-2.1434,-2.1336,-2.1366,-2.1164,-2.1103,-2.1137,-2.0923,-2.0925,-2.0925,0.0,0.0,0.0,0.0,0.0,0.0,0.0,0.0,0.0,0.0,0.0,0.0,0.0,0.0,0.0,0.0,0.0,0.0,0.0,0.0,-0.8533,-0.8804,-0.8811,-0.8857,-0.9008,-0.9256,-0.9413,-0.9413,-0.9562,-0.9725,-0.9999,-1.0702,-1.1158,-1.1469,-1.2384,-1.2812,-1.2909,-1.3372,-1.3621,-1.361,-1.361,0.0,0.0,0.0,0.0,0.0,0.0,0.0,0.0,0.0,0.0,0.0,0.0,0.0,-1.4373,-1.4269,-1.4222,-1.4176,-1.3905,-1.4157,-1.4579,-1.4935,-1.5423,-1.5911,-1.628,-1.6578,-1.6687,-1.6507,-1.6447,-1.6447,-1.6327,-1.6845,-1.7578,-1.8447,-1.9307,-2.001,-2.042,-2.0498,-2.0527,-2.0634,-2.0967,-2.126,-2.1318,-2.1699,-2.1934,-2.2007,-2.2007,-2.1738,-2.1379,-2.1279,-2.1074,-2.0625,-2.0615,-2.0528,-2.0342,-2.002,-2.0169,-2.0614,-2.0216,-2.0182,-2.0576,-2.0943,-2.1213,-2.1172,-2.1594,-2.1759,-2.1651,-2.0771,-2.054,-2.0806,-2.0207,-2.0381,-2.0885,-2.0909,-2.0925,-2.0925,0.0,0.0,0.0,0.0,0.0,0.0,0.0,0.0,0.0,0.0,0.0,0.0,0.0,0.0,0.0,0.0,0.0,0.0,0.0,-0.8374,-0.8474,-0.8685,-0.8752,-0.8804,-0.8857,-0.9061,-0.9211,-0.9256,-0.9413,-0.9629,-0.9903,-1.0198,-1.0659,-1.1158,-1.195,-1.2482,-1.2861,-1.3362,-1.3621,-1.3621,-1.3621,-1.3621,0.0,0.0,0.0,0.0,0.0,0.0,0.0,0.0,-1.3915,-1.4104,-1.4104,-1.4104,-1.415,-1.4104,-1.4104,-1.4057,-1.3868,-1.4059,-1.4478,-1.4883,-1.5188,-1.5599,-1.6272,-1.6719,-1.6908,-1.6857,-1.7004,-1.7103,-1.6773,-1.7317,-1.7959,-1.8545,-1.9355,-2.0068,-2.0508,-2.0566,-2.0566,-2.0566,-2.0713,-2.0928,-2.1211,-2.1387,-2.1484,-2.1484,-2.1484,-2.1289,-2.084,-2.0742,-2.0595,-2.042,-2.0255,-2.0098,-2.002,-1.9794,-1.979,-1.9949,-1.97,-1.9751,-2.0163,-2.0558,-2.0879,-2.1126,-2.1557,-2.1553,-2.1177,-2.0564,-2.0186,-1.9979,-1.97,-1.9979,-2.0591,-2.0591,-2.0734,-2.0893,0.0,0.0,0.0,0.0,0.0,0.0,0.0,0.0,0.0,0.0,0.0,0.0,0.0,0.0,0.0,0.0,0.0,0.0,-0.7895,-0.783,-0.8037,-0.8573,-0.8527,-0.8586,-0.8804,-0.891,-0.9008,-0.9159,-0.9309,-0.9524,-0.974,-0.9895,-1.0257,-1.0812,-1.141,-1.199,-1.253,-1.3084,-1.3372,-1.3515,-1.3515,-1.342,0.0,0.0,0.0,0.0,0.0,0.0,0.0,0.0,-1.3668,-1.3926,-1.3926,-1.3973,-1.3973,-1.3973,-1.3926,-1.3821,-1.3716,-1.3913,-1.4276,-1.4769,-1.5016,-1.5455,-1.6417,-1.6924,-1.7219,-1.7293,-1.7441,-1.7471,-1.7175,-1.7586,-1.8144,-1.8494,-1.9473,-2.0225,-2.0518,-2.0566,-2.0566,-2.0566,-2.0566,-2.0684,-2.0996,-2.1025,-2.1025,-2.1025,-2.1025,-2.0889,-2.0576,-2.0498,-2.0342,-2.0264,-1.9974,-1.9818,-1.9794,-1.9506,-1.9427,-1.9478,-1.939,-1.9448,-1.9742,-2.0154,-2.0549,-2.0943,-2.1355,-2.1337,-2.0997,-2.0464,-1.9995,-1.9576,-1.9461,-1.9789,-2.0392,-2.0392,-2.0615,-2.0869,0.0,0.0,0.0,0.0,0.0,0.0,0.0,0.0,0.0,0.0,0.0,0.0,0.0,0.0,0.0,0.0,0.0,0.0,-0.7235,-0.674,-0.7058,-0.8514,-0.799,-0.8049,-0.8752,-0.8804,-0.8857,-0.9008,-0.9263,-0.9465,-0.9614,-0.974,-0.9955,-1.0316,-1.0812,-1.1309,-1.1927,-1.2412,-1.289,-1.3362,-1.3266,-1.3064,-1.2764,0.0,0.0,0.0,0.0,0.0,0.0,0.0,-1.3266,-1.3821,-1.3821,-1.3868,-1.3973,-1.3821,-1.3716,-1.3573,-1.3409,-1.3668,-1.4033,-1.4498,-1.4908,-1.5545,-1.6735,-1.7298,-1.7668,-1.792,-1.7686,-1.7402,-1.7393,-1.7734,-1.8154,-1.8574,-1.9727,-2.0557,-2.0566,-2.0566,-2.0566,-2.0566,-2.0566,-2.0566,-2.0566,-2.0566,-2.0566,-2.0566,-2.0566,-2.0566,-2.0566,-2.0566,-2.0489,-2.0264,-1.986,-1.9688,-1.9557,-1.9217,-1.913,-1.9292,-1.9301,-1.9301,-1.932,-1.9742,-2.0145,-2.0539,-2.0934,-2.1074,-2.0997,-2.0464,-1.9962,-1.9368,-1.9368,-1.9781,-2.0384,-2.0384,-2.0607,-2.0861,0.0,0.0,0.0,0.0,0.0,0.0,0.0,0.0,0.0,0.0,0.0,0.0,0.0,0.0,0.0,0.0,0.0,0.0,-0.6475,-0.647,-0.6573,-0.7004,-0.7122,-0.7396,-0.799,-0.8533,-0.8857,-0.9008,-0.9159,-0.9309,-0.9465,-0.9688,-0.9851,-0.9955,-1.0608,-1.0956,-1.1158,-1.208,-1.257,-1.2716,-1.3064,-1.2919,-1.2511,0.0,0.0,0.0,0.0,0.0,0.0,0.0,0.0,0.0,-1.3668,-1.3668,-1.3668,-1.3563,-1.3515,-1.3409,-1.3314,-1.3691,-1.4168,-1.4133,-1.4964,-1.591,-1.6243,-1.6727,-1.7392,-1.8232,-1.8392,-1.8289,-1.8251,-1.8482,-1.8812,-1.9072,-1.9668,-2.0215,-2.0518,-2.0566,-2.0566,-2.0566,-2.0566,-2.0566,-2.0566,-2.0498,-2.0411,-2.0566,-2.0498,-2.0411,-2.0566,-2.0498,-2.0264,-2.0029,-1.9457,-1.9154,-1.8966,-1.8847,-1.8847,-1.8889,-1.9164,-1.9301,-1.932,-1.9742,-2.0145,-2.0539,-2.0934,-2.0898,-2.0464,-1.9554,-1.9168,-1.8994,-1.8994,-1.9272,-1.9677,-1.9677,-1.9892,-2.013,0.0,0.0,0.0,0.0,0.0,0.0,0.0,0.0,0.0,0.0,-0.4901,-0.5011,0.0,0.0,0.0,0.0,0.0,0.0,0.0,-0.5714,-0.5873,-0.6362,-0.6416,-0.6853,-0.7771,-0.8427,-0.8857,-0.891,-0.9113,-0.9263,-0.9309,-0.9577,-0.974,-0.9799,-1.0198,-1.0498,-1.0804,-1.1692,-1.203,-1.2061,-1.2579,-1.2384,-1.1783,0.0,0.0,0.0,0.0,0.0,0.0,0.0,0.0,0.0,-1.3467,-1.342,-1.342,-1.3314,-1.3276,-1.3238,-1.319,-1.368,-1.4178,-1.4017,-1.4968,-1.5991,-1.6052,-1.6879,-1.7812,-1.8854,-1.8739,-1.8638,-1.8923,-1.8947,-1.8989,-1.9226,-1.9752,-2.0052,-2.0226,-2.0459,-2.0498,-2.0322,-2.0459,-2.0566,-2.0566,-2.0489,-2.0498,-2.0566,-2.0411,-2.0342,-2.0489,-2.0264,-2.0029,-1.9794,-1.9303,-1.901,-1.8944,-1.8788,-1.8788,-1.8944,-1.9191,-1.9301,-1.9311,-1.9567,-1.9816,-2.006,-2.0181,-2.0201,-1.9996,-1.9139,-1.8827,-1.8827,-1.8827,-1.905,-1.9376,-1.9376,-1.9582,-1.9812,0.0,0.0,0.0,0.0,0.0,0.0,0.0,0.0,0.0,0.0,-0.4301,-0.4249,0.0,0.0,0.0,0.0,0.0,0.0,0.0,0.0,-0.5007,-0.6199,-0.5932,-0.6421,-0.7765,-0.8368,-0.8752,-0.8804,-0.9061,-0.9211,-0.9211,-0.9465,-0.9673,-0.9792,-0.9792,-1.0043,-1.0549,-1.1217,-1.1401,-1.1375,-1.1909,-1.1569,-1.0753,-1.0651,0.0,0.0,0.0,0.0,0.0,0.0,0.0,0.0,-1.3266,-1.3218,-1.3218,-1.317,-1.3152,-1.3085,-1.3085,-1.3518,-1.4009,-1.398,-1.483,-1.5737,-1.6163,-1.7235,-1.8504,-1.9312,-1.8845,-1.8514,-1.9353,-1.9041,-1.8769,-1.9212,-1.9745,-2.0014,-1.9544,-2.0052,-2.0312,-1.9961,-2.0264,-2.0518,-2.0634,-2.0566,-2.0566,-2.0566,-2.0411,-2.0264,-2.0264,-2.0108,-1.9854,-1.959,-1.917,-1.9037,-1.9127,-1.8779,-1.8797,-1.9191,-1.9228,-1.9265,-1.9301,-1.9301,-1.929,-1.9312,-1.9053,-1.9204,-1.9592,-1.905,-1.8827,-1.8827,-1.8827,-1.9034,-1.932,-1.932,-1.9511,-1.9725,0.0,0.0,0.0,0.0,0.0,0.0,0.0,0.0,0.0,0.0,0.0,0.0,0.0,0.0,0.0,0.0,0.0,0.0,0.0,0.0,-0.4625,-0.4897,-0.5328,-0.6032,-0.7069,-0.7664,-0.8209,-0.8804,-0.8956,-0.9113,-0.9211,-0.9361,-0.9517,-0.9621,-0.9621,-0.9725,-0.9873,-1.0846,-1.0998,-1.0694,-1.1719,-1.146,-1.0506,-1.0446,-1.0198,0.0,0.0,0.0,0.0,0.0,0.0,0.0,-1.3218,-1.3218,-1.317,-1.3162,-1.3027,-1.2929,-1.2929,-1.3152,-1.3246,-1.3022,-1.3736,-1.4862,-1.6187,-1.6778,-1.7184,-1.7834,-1.8031,-1.8331,-1.8796,-1.8684,-1.8508,-1.8815,-1.8974,-1.9003,-1.8908,-1.9132,-1.9445,-1.9686,-1.9934,-2.0185,-2.0527,-2.0498,-2.0411,-2.0566,-2.0411,-2.0264,-2.0264,-2.0264,-1.9868,-1.9152,-1.8751,-1.8341,-1.788,-1.7798,-1.7963,-1.8385,-1.8687,-1.8999,-1.9301,-1.9301,-1.929,-1.9312,-1.9053,-1.9026,-1.914,-1.8867,-1.8827,-1.8827,-1.8827,-1.8875,-1.8947,-1.8947,-1.8986,-1.9042,0.0,0.0,0.0,0.0,0.0,0.0,0.0,0.0,0.0,0.0,0.0,0.0,0.0,0.0,0.0,0.0,0.0,0.0,0.0,0.0,-0.4519,-0.4577,-0.5167,-0.576,-0.6367,-0.7015,-0.7503,-0.7883,-0.8309,-0.8732,-0.9211,-0.9361,-0.9458,-0.9614,-0.9614,-0.9614,-0.9666,-1.049,-1.0498,-1.0087,-1.0956,-1.0804,-1.0035,-1.0035,-0.988,-0.9732,-0.9792,0.0,0.0,0.0,0.0,0.0,0.0,0.0,-1.3055,-1.3027,-1.2929,-1.2783,-1.2783,-1.3077,-1.3474,-1.3872,-1.4195,-1.4725,-1.5919,-1.6141,-1.6271,-1.6551,-1.7339,-1.8109,-1.8516,-1.8406,-1.8258,-1.8406,-1.8471,-1.8479,-1.8281,-1.8578,-1.8858,-1.896,-1.9197,-1.9551,-2.0072,-2.0043,-2.0207,-2.0547,-2.0255,-2.0012,-1.9822,-1.9648,-1.9228,-1.8591,-1.8378,-1.8092,-1.7798,-1.7798,-1.7908,-1.8128,-1.833,-1.8641,-1.9026,-1.8744,-1.8789,-1.8956,-1.8612,-1.857,-1.8699,-1.8795,-1.8827,-1.8827,-1.8827,-1.8827,-1.8827,-1.8827,-1.8827,-1.8827,0.0,0.0,0.0,0.0,0.0,0.0,0.0,0.0,0.0,0.0,0.0,0.0,0.0,0.0,0.0,0.0,0.0,0.0,0.0,0.0,0.0,-0.4688,-0.5113,-0.5492,-0.5773,-0.6421,-0.6799,-0.6912,-0.7605,-0.8302,-0.9054,-0.9256,-0.9465,-0.9614,-0.9614,-0.9614,-0.9614,-1.019,-1.0087,-0.9666,-1.019,-1.0087,-0.9614,-0.9614,-0.9614,-0.9614,-0.9844,-1.0541,-1.1375,-1.156,0.0,0.0,0.0,0.0,-1.2881,-1.2881,-1.2783,-1.2676,-1.2676,-1.3122,-1.3808,-1.4693,-1.4758,-1.4749,-1.5376,-1.5542,-1.5606,-1.567,-1.6631,-1.7543,-1.7942,-1.788,-1.7834,-1.7899,-1.799,-1.7924,-1.7664,-1.8056,-1.8294,-1.8105,-1.837,-1.8822,-1.9485,-1.9533,-1.9753,-2.0245,-1.9956,-1.9582,-1.9241,-1.8842,-1.8421,-1.8027,-1.8018,-1.7981,-1.7908,-1.7908,-1.7954,-1.8018,-1.8081,-1.8243,-1.857,-1.8099,-1.8121,-1.8575,-1.8009,-1.7975,-1.8333,-1.856,-1.8772,-1.8827,-1.8827,-1.8827,-1.8827,-1.8827,-1.8827,-1.8827,0.0,0.0,0.0,0.0,0.0,0.0,0.0,0.0,0.0,0.0,-0.3852,-0.3855,0.0,0.0,0.0,0.0,0.0,0.0,-0.4519,0.0,0.0,-0.4519,-0.457,-0.5007,-0.5773,-0.5882,-0.6317,-0.7079,-0.761,-0.809,-0.8527,-0.9001,-0.9361,-0.9614,-0.9614,-0.9614,-0.9614,-1.019,-1.0087,-0.9666,-1.019,-1.0087,-0.9614,-0.9614,-0.9614,-0.9666,-1.0138,-1.0702,-1.1301,-1.1819,-1.2431,0.0,0.0,0.0,-1.2881,-1.2881,-1.2725,-1.2529,-1.2686,-1.2862,-1.3085,-1.3461,-1.381,-1.4142,-1.4561,-1.4937,-1.5276,-1.5615,-1.5817,-1.6121,-1.6477,-1.656,-1.667,-1.7009,-1.678,-1.6661,-1.6945,-1.693,-1.7133,-1.7726,-1.8062,-1.8322,-1.8803,-1.8841,-1.8953,-1.9168,-1.901,-1.8824,-1.8777,-1.8555,-1.8147,-1.7587,-1.7578,-1.7413,-1.7073,-1.7073,-1.7238,-1.7587,-1.7916,-1.8122,-1.8184,-1.77,-1.7716,-1.8066,-1.7587,-1.7586,-1.789,-1.82,-1.8549,-1.8827,-1.8827,-1.8827,-1.8827,-1.8827,-1.8827,-1.8827,0.0,0.0,0.0,0.0,0.0,0.0,0.0,0.0,0.0,0.0,0.0,-0.3852,0.0,0.0,0.0,-0.4463,-0.4519,-0.4519,-0.4519,-0.4519,-0.4519,-0.4519,-0.4519,-0.4739,-0.5179,-0.5285,-0.55,-0.5996,-0.6637,-0.7283,-0.7931,-0.8349,-0.8935,-0.9465,-0.9465,-0.9465,-0.951,-0.9725,-0.9769,-0.9614,-0.9673,-0.9569,-0.9361,-0.9361,-0.9316,-0.9361,-1.0028,-1.0635,-1.1183,-1.176,-1.2323,-1.2774,-1.2676,0.0,0.0,0.0,-1.2529,-1.2429,-1.2654,-1.2572,-1.2646,-1.3461,-1.3406,-1.3369,-1.4011,-1.4121,-1.4203,-1.4598,-1.4506,-1.468,-1.5762,-1.5964,-1.6019,-1.6193,-1.6083,-1.6028,-1.6202,-1.614,-1.6224,-1.6585,-1.6903,-1.7269,-1.7812,-1.8065,-1.8373,-1.8829,-1.8765,-1.8587,-1.8216,-1.8143,-1.7812,-1.7174,-1.7165,-1.7082,-1.6908,-1.6908,-1.6991,-1.7174,-1.7304,-1.7557,-1.7787,-1.7308,-1.7274,-1.7661,-1.7371,-1.7358,-1.754,-1.8081,-1.839,-1.8549,-1.8748,-1.8827,-1.8827,-1.8827,-1.8827,-1.8827,0.0,0.0,0.0,0.0,0.0,0.0,0.0,0.0,0.0,0.0,0.0,0.0,0.0,0.0,0.0,0.0,-0.4519,-0.4519,-0.4519,-0.4519,-0.4519,-0.4519,-0.4519,-0.4574,-0.4739,-0.4846,-0.4956,-0.5128,-0.5832,-0.6637,-0.7439,-0.7865,-0.8508,-0.9361,-0.9361,-0.9361,-0.9361,-0.9361,-0.9465,-0.951,-0.9263,-0.9159,-0.9211,-0.9113,-0.9061,-0.9061,-0.9961,-1.0568,-1.1023,-1.181,-1.2323,-1.2627,-1.2529,-1.248,0.0,0.0,0.0,-1.2367,-1.2614,-1.2503,-1.2494,-1.3351,-1.3195,-1.2984,-1.3598,-1.3506,-1.3406,-1.38,-1.3571,-1.3662,-1.4864,-1.5157,-1.5294,-1.5505,-1.545,-1.5423,-1.5524,-1.5542,-1.5542,-1.5542,-1.5909,-1.6333,-1.6763,-1.7079,-1.7455,-1.7967,-1.809,-1.7952,-1.7511,-1.7524,-1.737,-1.6917,-1.6908,-1.6908,-1.6908,-1.6908,-1.6908,-1.6908,-1.6804,-1.6923,-1.7156,-1.6779,-1.682,-1.7114,-1.7151,-1.7191,-1.7326,-1.7922,-1.8216,-1.8335,-1.8692,-1.8827,-1.8827,-1.8827,-1.8827,-1.8827,0.0,0.0,0.0,0.0,0.0,0.0,0.0,0.0,0.0,0.0,0.0,0.0,-0.3968,-0.4024,-0.4132,-0.4463,-0.4519,-0.4519,-0.4519,-0.4519,-0.4519,-0.4519,-0.4519,0.0,-0.4901,-0.4897,-0.5014,-0.5297,-0.5887,-0.6588,-0.7343,-0.7711,-0.8355,-0.9211,-0.9361,-0.9316,-0.9211,-0.9361,-0.9413,-0.9361,-0.9106,-0.9113,-0.9159,-0.891,-0.8804,-0.8962,-1.0167,-1.0618,-1.0821,-1.2058,-1.248,-1.2529,-1.248,-1.248,-1.248,0.0,0.0,0.0,-1.2614,-1.2696,-1.2696,-1.2761,-1.2993,-1.3277,-1.3314,-1.3314,-1.3406,-1.38,-1.3571,-1.3323,-1.3406,-1.3727,-1.4231,-1.501,-1.4818,-1.4708,-1.5084,-1.5129,-1.5129,-1.5129,-1.5478,-1.5725,-1.5753,-1.5771,-1.5928,-1.6095,-1.6326,-1.6462,-1.6635,-1.6862,-1.6927,-1.6908,-1.6908,-1.6908,-1.6908,-1.6908,-1.6908,-1.6908,-1.6517,-1.6345,-1.6388,-1.6276,-1.6214,-1.6254,-1.6611,-1.6961,-1.731,-1.7652,-1.7993,-1.8335,-1.8692,-1.8827,-1.8827,-1.8827,-1.8827,-1.8827,0.0,0.0,0.0,0.0,0.0,0.0,0.0,0.0,0.0,0.0,0.0,0.0,0.0,-0.4079,-0.4155,-0.4281,-0.4324,-0.4324,-0.4324,-0.4409,-0.4519,-0.4519,-0.4519,-0.4625,-0.4897,-0.4897,-0.5014,-0.5297,-0.5513,-0.5996,-0.674,-0.7182,-0.7771,-0.8508,-0.904,-0.9263,-0.9211,-0.9361,-0.9361,-0.9263,-0.8956,-0.885,-0.8784,-0.8639,-0.848,-0.8533,-0.9488,-1.01,-1.0568,-1.1384,-1.2008,-1.2382,-1.2274,-1.2224,-1.2224,-1.2224,-1.2224,-1.2212,-1.23,-1.2337,-1.2402,-1.265,-1.2486,-1.2373,-1.2828,-1.2786,-1.2716,-1.2851,-1.277,-1.2618,-1.2405,-1.3005,-1.3598,-1.3892,-1.3827,-1.3782,-1.3919,-1.3937,-1.3937,-1.3937,-1.4524,-1.4937,-1.4937,-1.5386,-1.5753,-1.5827,-1.6206,-1.6446,-1.6379,-1.6816,-1.7038,-1.6908,-1.6908,-1.6908,-1.6908,-1.6908,-1.6908,-1.6908,-1.6517,-1.6328,-1.6289,-1.6268,-1.6206,-1.6222,-1.6579,-1.681,-1.6953,-1.731,-1.7525,-1.7699,-1.8263,-1.8486,-1.8518,-1.874,-1.8827,-1.8827,0.0,0.0,0.0,0.0,0.0,0.0,0.0,0.0,0.0,-0.3338,0.0,0.0,0.0,0.0,-0.4191,-0.421,-0.4241,-0.4247,-0.42,-0.4382,-0.4519,-0.4519,-0.4519,-0.4625,-0.4897,-0.4897,-0.5014,-0.5297,-0.5297,-0.5782,-0.6637,-0.6972,-0.7557,-0.8402,-0.889,-0.9113,-0.9061,-0.9211,-0.9211,-0.9113,-0.8798,-0.8639,-0.8633,-0.8427,-0.8268,-0.8321,-0.9033,-0.9592,-1.0005,-1.061,-1.1133,-1.1551,-1.1601,-1.171,-1.1828,-1.1927,-1.1877,-1.1828,-1.1828,-1.1828,-1.189,-1.2142,-1.1915,-1.1725,-1.2313,-1.22,-1.2017,-1.2281,-1.2228,-1.2132,-1.2049,-1.2562,-1.2968,-1.2941,-1.2968,-1.2977,-1.3085,-1.3204,-1.3241,-1.3103,-1.369,-1.4102,-1.4102,-1.4579,-1.4937,-1.5074,-1.5716,-1.603,-1.5909,-1.6668,-1.7038,-1.6908,-1.6908,-1.6908,-1.6908,-1.6908,-1.683,-1.67,-1.6305,-1.6067,-1.5948,-1.6013,-1.5968,-1.5896,-1.6484,-1.673,-1.6762,-1.7127,-1.7278,-1.7334,-1.7898,-1.8192,-1.8327,-1.8565,-1.8724,-1.8827,0.0,0.0,0.0,0.0,0.0,0.0,0.0,0.0,-0.3221,-0.3218,0.0,0.0,0.0,0.0,0.0,-0.4207,-0.4375,-0.4395,-0.4204,-0.4382,-0.4519,-0.4519,-0.4519,-0.4625,-0.4897,-0.4897,-0.5014,-0.5297,-0.5297,-0.5896,-0.7031,-0.7085,-0.7777,-0.8956,-0.8956,-0.891,-0.8811,-0.8962,-0.9008,-0.8956,-0.858,-0.8533,-0.8752,-0.8328,-0.8168,-0.8275,-0.8949,-0.9093,-0.9079,-0.9755,-1.0012,-1.0064,-1.0466,-1.0939,-1.1368,-1.1619,-1.1528,-1.1326,0.0,0.0,0.0,-1.1326,-1.1267,-1.1362,-1.1782,-1.1584,-1.1499,-1.2209,-1.2027,-1.1899,-1.221,-1.2287,-1.2269,-1.2272,-1.2307,-1.2402,-1.2629,-1.3011,-1.3121,-1.2727,-1.3048,-1.3296,-1.3314,-1.3323,-1.3488,-1.3873,-1.4653,-1.512,-1.512,-1.6257,-1.6908,-1.6908,-1.6899,-1.6899,-1.6908,-1.6899,-1.6682,-1.6272,-1.5982,-1.5621,-1.5229,-1.5573,-1.5491,-1.5253,-1.6277,-1.6722,-1.6762,-1.7111,-1.7262,-1.7294,-1.7628,-1.7962,-1.8271,-1.8279,-1.8502,-1.8796,0.0,0.0,0.0,0.0,0.0,-0.3232,-0.3282,-0.3338,-0.337,0.0,0.0,0.0,-0.4078,-0.4133,-0.4187,-0.42,-0.4231,-0.4237,-0.4197,-0.4382,-0.4519,-0.4519,-0.4519,-0.4574,-0.4743,-0.4846,-0.4956,-0.5128,-0.5242,-0.5462,-0.5841,-0.6707,-0.73,-0.767,-0.848,-0.8857,-0.8804,-0.9061,-0.9008,-0.8857,-0.8633,-0.8527,-0.848,-0.8115,-0.8008,-0.8008,-0.8215,-0.8573,-0.9026,-0.9235,-0.9799,-1.0525,-1.0947,-1.1217,-1.1318,-1.1377,-1.1377,-1.1326,-1.1326,0.0,0.0,0.0,0.0,0.0,-1.1404,-1.1447,-1.1391,-1.1333,-1.145,-1.1547,-1.1393,-1.1355,-1.1513,-1.1952,-1.1959,-1.2042,-1.2373,-1.2237,-1.2322,-1.2726,-1.3104,-1.3406,-1.369,-1.3992,-1.4222,-1.4332,-1.5074,-1.5524,-1.5524,-1.6404,-1.6908,-1.6908,-1.6633,-1.6615,-1.6899,-1.6624,-1.6419,-1.6272,-1.5982,-1.5621,-1.5213,-1.5331,-1.5404,-1.557,-1.6118,-1.65,-1.6746,-1.6841,-1.6881,-1.6921,-1.7278,-1.7477,-1.7588,-1.7834,-1.7977,-1.8065,0.0,0.0,0.0,0.0,0.0,-0.3153,-0.3252,-0.3335,-0.3405,0.0,0.0,0.0,-0.4294,-0.4334,-0.4314,-0.42,-0.4304,-0.4311,-0.42,-0.4382,-0.4519,-0.4519,-0.4519,-0.4542,-0.4591,-0.4761,-0.4871,-0.4915,-0.5093,-0.5399,-0.6,-0.6701,-0.7295,-0.7836,-0.8487,-0.8804,-0.8804,-0.8962,-0.8903,-0.8692,-0.858,-0.8474,-0.8368,-0.8115,-0.8008,-0.8008,-0.8008,-0.8368,-0.883,-0.862,-0.919,-1.0072,-1.049,-1.0753,-1.0972,-1.1124,-1.1074,-1.0972,-1.0972,-1.0972,-1.0972,-1.0972,0.0,0.0,-1.0922,-1.1036,-1.1063,-1.0954,-1.1109,-1.1296,-1.1232,-1.132,-1.1543,-1.1865,-1.1889,-1.1997,-1.2231,-1.2083,-1.2122,-1.2567,-1.2894,-1.3204,-1.344,-1.3675,-1.3892,-1.424,-1.4714,-1.5287,-1.5927,-1.6105,-1.6424,-1.689,-1.6251,-1.6097,-1.6621,-1.6258,-1.5973,-1.5842,-1.563,-1.5338,-1.4935,-1.5088,-1.5205,-1.5276,-1.5928,-1.6238,-1.6317,-1.6611,-1.673,-1.6754,-1.6969,-1.7143,-1.7302,-1.7493,-1.7652,-1.7771,0.0,0.0,-0.2988,-0.2978,-0.3011,-0.3053,-0.3202,-0.3343,-0.3459,0.0,-0.3865,-0.4214,-0.4446,-0.4519,-0.4409,-0.4231,-0.4389,-0.4409,-0.4227,-0.4392,-0.4519,-0.4519,-0.4519,-0.4511,-0.4478,-0.4616,-0.4674,-0.4692,-0.483,-0.555,-0.6799,-0.6907,-0.7557,-0.8699,-0.8752,-0.8752,-0.8752,-0.8752,-0.8692,-0.8521,-0.8421,-0.8368,-0.8374,-0.8221,-0.8168,-0.8168,-0.8168,-0.8321,-0.8468,-0.8055,-0.8421,-0.9152,-0.9406,-0.9829,-1.03,-1.0667,-1.0616,-1.0427,-1.0518,-1.0526,-1.0526,-1.0526,-1.0558,0.0,-1.0486,-1.0502,-1.0605,-1.083,-1.0885,-1.0988,-1.1376,-1.1694,-1.1873,-1.2003,-1.2019,-1.2099,-1.2287,-1.2299,-1.2273,-1.2358,-1.2651,-1.2855,-1.2908,-1.2908,-1.3161,-1.3862,-1.3969,-1.4684,-1.6117,-1.5552,-1.5704,-1.6817,-1.5815,-1.5592,-1.6201,-1.5922,-1.5562,-1.5138,-1.518,-1.4991,-1.4577,-1.4975,-1.4975,-1.4752,-1.569,-1.5936,-1.5729,-1.6397,-1.6698,-1.673,-1.673,-1.6937,-1.7223,-1.7223,-1.7405,-1.7652,0.0,-0.2909,-0.2948,-0.2981,-0.3077,-0.3194,-0.3216,-0.3486,-0.374,-0.3739,-0.4113,-0.4433,-0.4515,-0.4519,-0.4508,-0.4423,-0.4501,-0.4505,-0.4423,-0.4501,-0.4519,-0.4519,-0.4519,-0.4505,-0.4474,-0.4615,-0.4673,-0.47,-0.4944,-0.5449,-0.6164,-0.6756,-0.7348,-0.7937,-0.8415,-0.858,-0.848,-0.848,-0.8427,-0.8268,-0.8374,-0.8321,-0.8221,-0.8008,-0.7955,-0.7955,-0.7955,-0.8008,-0.8055,-0.8037,-0.819,-0.8396,-0.8823,-0.8869,-0.8915,-0.9762,-0.9829,-0.9784,-1.0485,-1.067,-1.067,-1.067,-1.0888,0.0,-1.0449,-1.0535,-1.0623,-1.0248,-1.0202,-1.0362,-1.0818,-1.0989,-1.1272,-1.1873,-1.2019,-1.2158,-1.251,-1.2225,-1.2183,-1.2761,-1.2865,-1.3087,-1.3685,-1.3534,-1.3501,-1.3945,-1.4013,-1.4467,-1.5343,-1.5326,-1.5663,-1.6355,-1.5665,-1.5453,-1.5863,-1.5522,-1.5111,-1.4828,-1.5056,-1.4991,-1.4569,-1.4712,-1.4863,-1.5086,-1.5292,-1.5499,-1.5705,-1.6134,-1.6476,-1.673,-1.673,-1.6778,-1.6841,-1.6841,-1.6881,-1.6937,-0.2912,-0.2912,-0.2925,-0.3053,-0.323,-0.331,-0.3381,-0.3718,-0.3999,-0.3993,-0.4204,-0.4411,-0.4463,-0.4408,-0.4411,-0.4519,-0.4519,-0.4519,-0.4519,-0.4519,-0.4519,-0.4519,-0.4519,-0.4484,-0.4513,-0.4648,-0.4707,-0.4681,-0.4918,-0.5504,-0.6431,-0.6701,-0.7128,-0.7605,-0.8256,-0.8256,-0.7883,-0.8262,-0.8321,-0.8221,-0.8268,-0.8215,-0.8062,-0.7955,-0.7901,-0.7901,-0.7741,-0.7628,-0.7515,-0.7824,-0.7978,-0.8131,-0.819,-0.8402,-0.8659,-0.9302,-0.952,-0.9731,-1.04,-1.0794,-1.098,-1.0862,-1.0925,0.0,0.0,-1.0416,-1.0363,-1.0249,-1.012,-1.0105,-1.0555,-1.0809,-1.1081,-1.1587,-1.1791,-1.2087,-1.2512,-1.2386,-1.2408,-1.2765,-1.2885,-1.3083,-1.345,-1.3338,-1.3338,-1.3467,-1.3879,-1.4242,-1.4623,-1.4744,-1.4949,-1.5473,-1.4976,-1.4865,-1.5274,-1.5049,-1.4792,-1.4652,-1.4838,-1.4776,-1.4569,-1.4569,-1.4736,-1.4919,-1.511,-1.5276,-1.5467,-1.5991,-1.6309,-1.6484,-1.6667,-1.673,-1.673,-1.673,-1.673,-1.673,-0.2912,-0.2887,-0.2968,-0.3134,-0.319,-0.3278,-0.344,-0.3694,-0.3916,-0.4036,-0.4144,-0.4252,-0.4411,-0.4307,-0.4307,-0.447,-0.4467,-0.4467,-0.4522,-0.4463,-0.4463,-0.4519,-0.4519,-0.4515,-0.4499,-0.4624,-0.4682,-0.4658,-0.4783,-0.555,-0.6799,-0.6637,-0.6966,-0.7658,-0.8096,-0.7937,-0.7456,-0.7996,-0.8162,-0.8062,-0.8062,-0.8008,-0.7901,-0.7848,-0.7848,-0.7794,-0.7521,-0.73,-0.7139,-0.7402,-0.78,-0.8045,-0.7686,-0.8093,-0.873,-0.8951,-0.9275,-0.9695,-1.028,-1.0895,-1.1207,-1.0902,-1.0782,-1.0687,0.0,0.0,0.0,-1.0184,-1.012,-1.0121,-1.04,-1.072,-1.103,-1.1205,-1.1503,-1.185,-1.2253,-1.2417,-1.248,-1.2613,-1.274,-1.2846,-1.2981,-1.2989,-1.2989,-1.2928,-1.3447,-1.3856,-1.3865,-1.3963,-1.4163,-1.4538,-1.4301,-1.4283,-1.462,-1.4568,-1.4609,-1.4466,-1.4537,-1.4569,-1.4569,-1.4569,-1.4569,-1.4585,-1.4951,-1.5078,-1.5133,-1.5817,-1.6103,-1.6142,-1.6571,-1.673,-1.673,-1.673,-1.673,-1.673,-0.2912,-0.2906,-0.2926,-0.2953,-0.2693,-0.2626,-0.3012,-0.2858,-0.2912,-0.3416,-0.3922,-0.4209,-0.4206,-0.4379,-0.4494,-0.4494,-0.432,-0.4317,-0.4477,-0.4307,-0.4301,-0.4519,-0.4519,-0.4508,-0.4491,-0.4508,-0.4508,-0.4546,-0.4677,-0.534,-0.647,-0.6529,-0.7133,-0.8109,-0.7889,-0.7783,-0.7842,-0.7681,-0.7574,-0.7574,-0.7574,-0.7681,-0.7848,-0.7628,-0.7521,-0.7521,-0.7246,-0.7139,-0.7085,-0.6864,-0.7428,-0.8046,-0.7341,-0.7589,-0.8218,-0.834,-0.8655,-0.9201,-1.0052,-1.0811,-1.1123,-1.0307,-1.0439,-1.041,-0.8997,0.0,-0.9726,-0.9327,0.0,-1.0122,-1.0282,0.0,0.0,-1.1053,-1.1138,-1.1176,-1.1272,-1.1651,-1.2082,-1.252,-1.2334,-1.2322,-1.2956,-1.2989,-1.2928,-1.2683,-1.2723,-1.2862,-1.3108,-1.321,-1.3533,-1.4161,-1.4104,-1.4171,-1.4272,-1.4525,-1.4482,-1.4172,-1.449,-1.4569,-1.4569,-1.4569,-1.4569,-1.4569,-1.4689,-1.4704,-1.4688,-1.5451,-1.5737,-1.5801,-1.6476,-1.673,-1.673,-1.673,-1.673,-1.673,-0.2807,-0.2403,-0.1989,-0.2007,-0.2318,-0.275,-0.3246,-0.2749,-0.2687,-0.3747,-0.3971,-0.4141,-0.4363,-0.4366,-0.4373,-0.4487,-0.4428,-0.4369,-0.4307,-0.4363,-0.4415,-0.4519,-0.4519,-0.4519,-0.4632,-0.4632,-0.4629,-0.4736,-0.4791,-0.5391,-0.6529,-0.6485,-0.6864,-0.7557,-0.7563,-0.7402,-0.7074,-0.7354,-0.7521,-0.7521,-0.7521,-0.7574,-0.7628,-0.7354,-0.7192,-0.7031,-0.6923,-0.6761,-0.6549,-0.644,-0.691,-0.7429,-0.6872,-0.7138,-0.7666,-0.7908,-0.8186,-0.8624,-0.9339,-0.9901,-1.0177,-0.9826,-0.9716,-0.961,-0.892,-0.8934,-0.9091,-0.9076,0.0,0.0,0.0,0.0,0.0,0.0,-1.0778,-1.0725,-1.1076,-1.0892,-1.112,-1.2043,-1.1996,-1.2103,-1.2581,-1.249,-1.2458,-1.2605,-1.2621,-1.2629,-1.2744,-1.2956,-1.3124,-1.3219,-1.3782,-1.4018,-1.3858,-1.4361,-1.4561,-1.4418,-1.4498,-1.4569,-1.4569,-1.4569,-1.4569,-1.4569,-1.4569,-1.4569,-1.4609,-1.5181,-1.5499,-1.5729,-1.623,-1.6555,-1.673,-1.673,-1.673,-1.673,-0.2274,-0.1821,-0.13,-0.1264,-0.166,-0.2125,-0.2635,-0.2525,-0.2745,-0.3694,-0.3916,-0.4082,-0.4359,-0.4314,-0.432,-0.449,-0.403,-0.3691,-0.3577,-0.4027,-0.4304,-0.4353,-0.4408,-0.4467,-0.4581,-0.4632,-0.4684,-0.4791,-0.4791,-0.5391,-0.648,-0.6376,-0.6696,-0.7337,-0.7456,-0.7187,-0.6745,-0.7187,-0.7354,-0.73,-0.73,-0.7252,-0.7144,-0.7031,-0.6815,-0.6544,-0.6544,-0.6386,-0.6182,-0.6239,-0.6727,-0.7203,-0.6798,-0.7141,-0.7619,-0.7558,-0.7855,-0.8237,-0.8601,-0.9103,-0.9412,-0.9099,-0.8988,-0.8759,-0.8516,-0.8425,-0.8466,-0.8588,-0.9089,0.0,0.0,0.0,-1.0191,-1.0364,0.0,-0.998,-1.042,-0.9994,-1.0137,-1.1616,-1.1929,-1.2093,-1.2282,-1.2106,-1.2131,-1.2393,-1.2417,-1.2417,-1.2417,-1.275,-1.283,-1.2637,-1.3473,-1.3846,-1.3584,-1.4283,-1.4569,-1.4569,-1.4569,-1.4569,-1.4569,-1.4569,-1.4569,-1.4569,-1.4569,-1.4624,-1.4816,-1.5173,-1.5515,-1.5856,-1.6214,-1.6508,-1.673,-1.673,-1.673,-1.673,-0.0949,-0.1222,-0.1275,-0.0958,-0.0438,-0.0168,-0.0449,-0.1905,-0.2916,-0.2747,-0.3418,-0.3981,-0.4209,-0.4399,-0.4468,-0.4514,-0.2916,-0.1902,-0.1902,-0.3072,-0.3855,-0.4024,-0.4138,-0.4193,-0.4193,-0.4408,-0.4519,-0.4519,-0.4519,-0.5117,-0.6209,-0.6209,-0.681,-0.7848,-0.7628,-0.7467,-0.7461,-0.7192,-0.6972,-0.6701,-0.6701,-0.6549,-0.6282,-0.6598,-0.6495,-0.6228,-0.6228,-0.6232,-0.6206,-0.6398,-0.717,-0.7979,-0.7377,-0.778,-0.8275,-0.7437,-0.7567,-0.8016,-0.8016,-0.8661,-0.9058,-0.8194,-0.8244,-0.8227,-0.7206,-0.7519,-0.7938,-0.7762,-0.8438,-0.8968,-0.877,-0.8933,-0.9112,-0.9325,-0.8998,0.0,0.0,-0.8754,-0.9412,-1.1521,-1.2269,-1.2482,-1.2305,-1.2106,-1.2019,-1.2035,-1.2035,-1.2035,-1.2035,-1.2385,-1.2637,-1.2621,-1.3235,-1.3592,-1.3584,-1.4283,-1.4569,-1.4569,-1.4569,-1.4569,-1.4569,-1.4569,-1.4569,-1.4569,-1.4569,-1.4839,-1.5197,-1.5523,-1.5872,-1.6222,-1.6579,-1.6722,-1.673,-1.673,-1.673,-1.673,-0.088,-0.0992,-0.1047,-0.0937,-0.0723,-0.0505,-0.0168,-0.1458,-0.2469,-0.2521,-0.2633,-0.2685,-0.2623,-0.3023,-0.3312,-0.3314,-0.3256,-0.3254,-0.3193,-0.3638,-0.3916,-0.4021,-0.4138,-0.4193,-0.4193,-0.4408,-0.4519,-0.4519,-0.4842,-0.5445,-0.6209,-0.6593,-0.7192,-0.7901,-0.7628,-0.7408,-0.7246,-0.7139,-0.6923,-0.6701,-0.6701,-0.6495,-0.6232,-0.6337,-0.6282,-0.6178,-0.6119,-0.6151,-0.6276,-0.6221,-0.6634,-0.705,-0.6876,-0.7104,-0.7396,-0.7073,-0.7138,-0.726,-0.726,-0.7451,-0.7497,-0.7307,-0.7274,-0.7242,-0.6992,-0.7104,-0.7228,-0.7164,-0.7797,-0.8291,-0.8054,-0.8368,-0.8675,-0.8596,-0.8452,-0.8335,0.0,-0.8482,-0.8895,-0.9486,-1.0229,-1.0897,-1.1422,-1.1316,-1.1319,-1.1654,-1.1884,-1.2019,-1.2019,-1.2361,-1.2733,-1.2909,-1.3346,-1.3696,-1.3934,-1.4403,-1.4569,-1.4569,-1.4569,-1.4569,-1.4569,-1.4569,-1.4569,-1.4569,-1.4569,-1.4712,-1.4855,-1.5205,-1.5554,-1.5888,-1.6246,-1.6524,-1.673,-1.673,-1.673,-1.673,-0.0842,-0.0729,-0.0561,-0.0561,-0.0561,-0.0505,-0.0336,-0.0841,-0.1288,-0.14,-0.1734,-0.1956,-0.2011,-0.2124,-0.2464,-0.3086,-0.3599,-0.3822,-0.3811,-0.3811,-0.3808,-0.3858,-0.3968,-0.4079,-0.4079,-0.4301,-0.4411,-0.4411,-0.4791,-0.5445,-0.6209,-0.6588,-0.7192,-0.7901,-0.7741,-0.7461,-0.7085,-0.7085,-0.6869,-0.6544,-0.6544,-0.6386,-0.6119,-0.6119,-0.6119,-0.6119,-0.5955,-0.6081,-0.6205,-0.6218,-0.6388,-0.6593,-0.6667,-0.6776,-0.6811,-0.6811,-0.6749,-0.6749,-0.6749,-0.6679,-0.6724,-0.6729,-0.6711,-0.6707,-0.6716,-0.6776,-0.6798,-0.6798,-0.726,-0.7519,-0.737,-0.7649,-0.7925,-0.7937,-0.7777,-0.7559,0.0,-0.7592,-0.7859,-0.7909,-0.8905,-0.989,-1.0672,-1.0572,-1.0638,-1.1296,-1.1573,-1.1771,-1.1829,-1.2297,-1.2733,-1.2901,-1.3346,-1.3696,-1.3918,-1.4403,-1.4569,-1.4569,-1.4569,-1.4569,-1.4569,-1.4569,-1.4569,-1.4569,-1.4569,-1.4712,-1.4863,-1.5213,-1.5562,-1.5904,-1.6254,-1.6532,-1.673,-1.673,-1.673,-1.673,-0.0785,-0.0393,-0.0,-0.0,-0.0,-0.0168,-0.0785,-0.0168,0.0391,0.0449,-0.0671,-0.1679,-0.2183,-0.1625,-0.1908,-0.3713,-0.3711,-0.3593,-0.3585,-0.3585,-0.3585,-0.3585,-0.3744,-0.3796,-0.3796,-0.4079,-0.4193,-0.4249,-0.4463,-0.5171,-0.6263,-0.6263,-0.6864,-0.7901,-0.7901,-0.7628,-0.7085,-0.7085,-0.6766,-0.6178,-0.6178,-0.6119,-0.6,-0.6,-0.6,-0.595,-0.5859,-0.5927,-0.612,-0.6318,-0.6507,-0.6633,-0.682,-0.6811,-0.6675,-0.6675,-0.6548,-0.642,-0.642,-0.6548,-0.6633,-0.6464,-0.6535,-0.6652,-0.6404,-0.6522,-0.6687,-0.6677,-0.6789,-0.6807,-0.6606,-0.6733,-0.6994,-0.731,-0.6952,-0.6533,-0.6276,-0.6215,-0.642,-0.7014,-0.8345,-0.9504,-1.0065,-0.9862,-1.0035,-1.0879,-1.1154,-1.1349,-1.1511,-1.2178,-1.2567,-1.2653,-1.3235,-1.3592,-1.3608,-1.4299,-1.4569,-1.4569,-1.4569,-1.4569,-1.4569,-1.4569,-1.4569,-1.4569,-1.4569,-1.4839,-1.5189,-1.5515,-1.5848,-1.619,-1.6563,-1.6714,-1.673,-1.673,-1.673,-1.673,-0.0224,-0.0112,-0.0,-0.0,-0.0,-0.0056,-0.0224,-0.0056,0.028,0.0729,0.0449,0.0224,0.0056,0.0224,-0.0224,-0.1567,-0.286,-0.3593,-0.3585,-0.3585,-0.3585,-0.3585,-0.3744,-0.3796,-0.3796,-0.4079,-0.4408,-0.4893,-0.5496,-0.6154,-0.6864,-0.73,-0.7628,-0.7901,-0.7901,-0.7628,-0.7085,-0.7085,-0.6766,-0.6178,-0.6114,-0.6059,-0.6005,-0.5786,-0.5727,-0.5694,-0.5784,-0.5951,-0.6134,-0.6203,-0.6324,-0.6485,-0.6535,-0.6482,-0.6482,-0.6482,-0.642,-0.642,-0.642,-0.6416,-0.647,-0.6429,-0.6378,-0.6274,-0.6089,-0.6051,-0.6088,-0.6006,-0.6186,-0.6291,-0.6108,-0.6349,-0.6522,-0.6453,-0.6538,-0.668,-0.6913,-0.679,-0.6691,-0.6866,-0.7102,-0.7615,-0.8572,-0.9282,-0.9809,-1.0137,-1.091,-1.1475,-1.1826,-1.1943,-1.2297,-1.2949,-1.3362,-1.3711,-1.3974,-1.4418,-1.4569,-1.4569,-1.4569,-1.4569,-1.4569,-1.4569,-1.4569,-1.4569,-1.4569,-1.4697,-1.4808,-1.5165,-1.5364,-1.5507,-1.6111,-1.65,-1.673,-1.673,-1.673,-1.673,-0.0,-0.0,-0.0,-0.0,0.0224,0.0393,0.0393,0.0168,0.0056,0.0224,0.0505,0.0673,0.0673,0.0785,0.0504,-0.0448,-0.2411,-0.3593,-0.3585,-0.3585,-0.3585,-0.3585,-0.3691,-0.3688,-0.3688,-0.391,-0.4239,-0.4618,-0.5386,-0.6041,-0.6701,-0.73,-0.7681,-0.7901,-0.7901,-0.7681,-0.7246,-0.7031,-0.6598,-0.6119,-0.6005,-0.595,0.0,-0.5677,-0.5567,-0.5483,-0.5665,-0.5847,-0.6017,-0.6059,-0.6205,-0.642,-0.642,-0.642,-0.642,-0.642,-0.642,-0.642,-0.642,-0.642,-0.64,-0.6319,-0.6164,-0.6034,-0.5848,-0.5715,-0.5672,-0.5566,-0.5775,-0.599,-0.5898,-0.6148,-0.6269,-0.6212,-0.6428,-0.6616,-0.6771,-0.674,-0.6727,-0.6727,-0.6684,-0.6812,-0.7356,-0.8502,-0.9425,-0.9802,-1.0812,-1.1546,-1.1901,-1.1989,-1.2343,-1.3084,-1.341,-1.3751,-1.4109,-1.4466,-1.4569,-1.4569,-1.4569,-1.4569,-1.4569,-1.4569,-1.4569,-1.4569,-1.4569,-1.4569,-1.4593,-1.5038,-1.5189,-1.5253,-1.5936,-1.642,-1.673,-1.673,-1.673,-1.673,-0.0,-0.0,-0.0,-0.0,0.0505,0.0898,0.0898,0.0449,-0.0056,-0.0449,0.0056,0.0449,0.0336,0.0617,0.0505,-0.0226,-0.2201,-0.3452,-0.3629,-0.3632,-0.3632,-0.3632,-0.3615,-0.3607,-0.3607,-0.3752,-0.3907,-0.4132,-0.4835,-0.5601,-0.6317,-0.6918,-0.7467,-0.7901,-0.7901,-0.7735,-0.7413,-0.69,-0.642,-0.6046,-0.6013,-0.5843,-0.5601,-0.5601,-0.5478,-0.5321,-0.5547,-0.573,-0.5892,-0.5912,-0.6144,-0.642,-0.642,-0.642,-0.642,-0.642,-0.642,-0.642,-0.642,-0.642,-0.6379,-0.6221,-0.6051,-0.5856,-0.5646,-0.5525,-0.5397,-0.5318,-0.5501,-0.5698,-0.5805,-0.602,-0.6233,-0.6404,-0.6565,-0.6567,-0.6406,-0.6502,-0.6619,-0.668,-0.6782,0.0,-0.6629,-0.7863,-0.8914,-0.9432,-1.0697,-1.1496,-1.1727,-1.202,-1.2469,-1.3084,-1.341,-1.3751,-1.4109,-1.4466,-1.4569,-1.4569,-1.4569,-1.4569,-1.4569,-1.4569,-1.4569,-1.4569,-1.4569,-1.4569,-1.4665,-1.4982,-1.5141,-1.5245,-1.5888,-1.6349,-1.6675,-1.6714,-1.673,-1.673,-0.0,-0.0,-0.0,-0.0,0.0505,0.0898,0.0898,0.0785,0.0561,-0.0056,0.0449,0.0617,0.0112,0.0112,-0.034,-0.1629,-0.2099,-0.2771,-0.3805,-0.3873,-0.3873,-0.3873,-0.3776,-0.3782,-0.3782,-0.3795,-0.4128,-0.4736,-0.5492,-0.6204,-0.6972,-0.7521,-0.7794,-0.7901,-0.7901,-0.7628,-0.7149,-0.6575,-0.6312,-0.6217,-0.6141,-0.5931,-0.5743,-0.5624,-0.5478,-0.5321,-0.5547,-0.573,-0.5908,-0.6117,-0.6241,-0.642,-0.642,-0.642,-0.642,-0.642,-0.642,-0.642,-0.642,-0.642,-0.6342,-0.624,-0.6041,-0.5817,-0.5365,-0.5317,-0.5292,-0.4876,-0.5217,-0.5598,-0.5532,-0.5878,-0.6268,-0.6633,-0.6689,-0.6681,-0.6785,-0.6845,-0.6905,-0.7099,-0.6958,-0.6906,-0.705,-0.7894,-0.8406,-0.8364,-0.9688,-1.076,-1.1381,-1.1578,-1.2155,-1.3076,-1.341,-1.3751,-1.4109,-1.4466,-1.4569,-1.4569,-1.4569,-1.4569,-1.4569,-1.4569,-1.4569,-1.4569,-1.4569,-1.4569,-1.4649,-1.4712,-1.4911,-1.5229,-1.5618,-1.5983,-1.6333,-1.6627,-1.673,-1.673,-0.0,-0.0,0.0112,0.0393,0.0561,0.0673,0.0898,0.0898,0.0617,-0.0224,0.0112,-0.0168,-0.1685,-0.0729,-0.0852,-0.3058,-0.3243,-0.3463,-0.3997,-0.3939,-0.3872,-0.3872,-0.3879,-0.3816,-0.3812,-0.3812,-0.3975,-0.4346,-0.5386,-0.6095,-0.6529,-0.7461,-0.7901,-0.7907,-0.7767,-0.7433,-0.689,-0.6668,-0.6407,-0.6176,-0.6143,-0.6011,-0.5805,-0.5649,-0.5559,-0.543,-0.5426,-0.5657,-0.5912,-0.615,-0.6266,-0.642,-0.642,-0.642,-0.642,-0.642,-0.642,-0.642,-0.642,-0.642,-0.635,-0.6214,-0.6024,-0.5817,-0.5421,-0.5276,-0.5175,-0.4848,-0.5051,-0.5271,-0.5403,-0.5853,-0.628,-0.6412,-0.6478,-0.6548,-0.6618,-0.6745,-0.6772,-0.6806,-0.687,-0.6922,-0.6894,-0.7433,-0.797,-0.8402,-0.9413,-1.0465,-1.1413,-1.1351,-1.1955,-1.333,-1.3497,-1.3839,-1.4379,-1.4482,-1.4569,-1.4569,-1.4569,-1.4569,-1.4569,-1.4569,-1.4569,-1.4569,-1.4569,-1.4569,-1.4569,-1.4569,-1.4855,-1.5213,-1.5547,-1.5888,-1.623,-1.6397,-1.6571,-1.673,0.0168,0.0168,0.0336,0.0729,0.0617,0.0617,0.0842,0.0898,0.0617,-0.028,-0.0168,-0.0729,-0.2645,-0.113,-0.1033,-0.3626,-0.4145,-0.4273,-0.4145,-0.4018,-0.4012,-0.4012,-0.3988,-0.3917,-0.3795,-0.3823,-0.3809,-0.3796,-0.5062,-0.5823,-0.6036,-0.7242,-0.7798,-0.7802,-0.7548,-0.7172,-0.6721,-0.6703,-0.6489,-0.618,-0.6161,-0.6096,-0.5929,-0.5778,-0.5701,-0.5653,-0.5458,-0.5673,-0.5965,-0.6162,-0.6266,-0.642,-0.642,-0.642,-0.642,-0.642,-0.642,-0.642,-0.642,-0.642,-0.635,-0.6148,-0.5917,-0.5559,-0.5205,-0.4876,-0.4674,-0.4497,-0.4449,-0.4634,-0.5159,-0.56,-0.5935,-0.6102,-0.626,-0.6404,-0.6367,-0.649,-0.6578,-0.6476,-0.6686,-0.6779,-0.6696,-0.7017,-0.7584,-0.8414,-0.9214,-1.0028,-1.1052,-1.0968,-1.1596,-1.3259,-1.3337,-1.3674,-1.4522,-1.453,-1.4569,-1.4569,-1.4569,-1.4569,-1.4569,-1.4569,-1.4569,-1.4569,-1.4569,-1.4569,-1.4569,-1.4569,-1.4808,-1.5102,-1.5443,-1.5785,-1.6103,-1.6174,-1.6428,-1.673,0.0729,0.0842,0.0729,0.0505,0.0673,0.0842,0.0898,0.0898,0.0729,0.0336,0.0112,-0.0112,-0.0336,-0.0115,-0.0593,-0.2197,-0.3525,-0.428,-0.4259,-0.4268,-0.4268,-0.4268,-0.4159,-0.4042,-0.392,-0.3808,-0.3809,-0.3796,-0.4838,-0.555,-0.6036,-0.6971,-0.7474,-0.7436,-0.7161,-0.6933,-0.6777,-0.6551,-0.6442,-0.6396,-0.6367,-0.627,-0.6182,-0.6166,-0.6059,-0.586,-0.5843,-0.5961,-0.6186,-0.6203,-0.6266,-0.642,-0.642,-0.642,-0.642,-0.642,-0.642,-0.642,-0.642,-0.642,-0.635,-0.6024,-0.5408,-0.4763,-0.4321,-0.3791,-0.3277,-0.3047,-0.308,-0.3489,-0.4518,-0.4812,-0.5173,-0.5818,-0.6181,-0.6359,-0.6256,-0.6236,-0.6353,-0.6633,-0.6523,-0.6549,-0.6811,-0.7051,-0.7391,-0.7762,-0.8619,-0.921,-0.953,-1.0085,-1.1001,-1.2397,-1.2417,-1.3014,-1.4156,-1.4482,-1.4569,-1.4569,-1.4569,-1.4569,-1.4569,-1.4569,-1.4569,-1.4569,-1.4569,-1.4569,-1.4569,-1.4569,-1.4585,-1.4728,-1.5086,-1.5435,-1.5761,-1.6087,-1.6428,-1.673,0.0561,0.0785,0.0842,0.0729,0.0785,0.0842,0.0729,0.0729,0.0729,0.0729,0.028,-0.0,-0.0,-0.0,-0.0596,-0.1961,-0.3421,-0.4313,-0.4295,-0.43,-0.43,-0.43,-0.4254,-0.417,-0.4047,-0.3996,-0.3912,-0.3848,-0.4923,-0.5604,-0.5876,-0.6592,-0.6808,-0.6713,-0.6847,-0.6789,-0.6555,-0.6429,-0.6379,-0.6383,-0.6392,-0.6375,-0.6298,-0.6252,-0.6166,-0.6076,-0.5799,-0.5904,-0.6195,-0.6088,-0.618,-0.642,-0.642,-0.642,-0.642,-0.642,-0.642,-0.642,-0.642,-0.642,-0.6218,-0.5418,-0.5017,-0.4602,-0.3762,-0.3387,-0.3195,-0.3061,-0.3075,-0.3292,-0.3728,-0.404,-0.4337,-0.468,-0.5373,-0.5789,-0.5723,-0.6047,-0.6359,-0.6382,-0.6419,-0.6492,-0.6775,-0.6941,-0.7254,-0.7712,-0.7992,-0.8495,-0.9295,-0.9358,-1.0264,-1.228,-1.1988,-1.26,-1.4348,-1.4204,-1.4274,-1.4569,-1.4569,-1.4569,-1.4569,-1.4569,-1.4569,-1.4569,-1.4569,-1.4569,-1.4569,-1.4569,-1.4569,-1.4601,-1.5046,-1.5268,-1.5404,-1.5539,-1.5944,-1.6389,0.0561,0.0729,0.0898,0.0898,0.0842,0.0785,0.0673,0.0673,0.0729,0.0898,0.0505,0.0224,-0.0,-0.0757,-0.1504,-0.2025,-0.3446,-0.4281,-0.4295,-0.43,-0.43,-0.43,-0.43,-0.4243,-0.4121,-0.4118,-0.4058,-0.3872,-0.4799,-0.5332,-0.5562,-0.632,-0.651,-0.6212,-0.6611,-0.668,-0.6433,-0.6433,-0.642,-0.642,-0.642,-0.642,-0.6404,-0.6274,-0.6289,-0.6185,-0.5876,-0.5965,-0.6193,-0.5965,-0.6087,-0.6347,-0.64,-0.642,-0.642,-0.642,-0.642,-0.635,-0.6148,-0.6083,-0.5815,-0.4752,-0.435,-0.3949,-0.3082,-0.2748,-0.2614,-0.2614,-0.2614,-0.2732,-0.2939,-0.3243,-0.3611,-0.3843,-0.4524,-0.5064,-0.5022,-0.5415,-0.5784,-0.5973,-0.6028,-0.6238,-0.668,-0.6863,-0.7136,-0.7611,-0.7546,-0.7931,-0.9046,-0.8687,-0.9497,-1.1674,-1.1168,-1.1915,-1.4198,-1.378,-1.3977,-1.4569,-1.4569,-1.4569,-1.4569,-1.4569,-1.4569,-1.4569,-1.4569,-1.4569,-1.4569,-1.4569,-1.4569,-1.4593,-1.4927,-1.5094,-1.5189,-1.5189,-1.5554,-1.6031,0.0898,0.0898,0.0898,0.0898,0.0729,0.0673,0.0842,0.0898,0.0898,0.0898,0.0898,0.0673,0.0056,-0.2558,-0.3645,-0.2213,-0.3441,-0.43,-0.43,-0.43,-0.43,-0.43,-0.43,-0.4243,-0.4121,-0.4118,-0.4058,-0.3872,-0.436,-0.4722,-0.5029,-0.6233,-0.654,-0.6137,-0.6675,-0.6745,-0.6416,-0.642,-0.642,-0.642,-0.642,-0.642,-0.642,-0.6416,-0.6416,-0.6392,-0.6269,-0.6258,-0.6359,-0.6006,-0.6068,-0.6244,-0.6363,-0.642,-0.642,-0.642,-0.642,-0.6284,-0.5613,-0.5411,-0.5147,-0.409,-0.3288,-0.2619,-0.2214,-0.1612,-0.1143,-0.1143,-0.121,-0.1478,-0.2012,-0.2551,-0.306,-0.3423,-0.3946,-0.4243,-0.4057,-0.4041,-0.4405,-0.5325,-0.5342,-0.5694,-0.6584,-0.7003,-0.7204,-0.7204,-0.7396,-0.7744,-0.8285,-0.8098,-0.8668,-1.0164,-0.9816,-1.0773,-1.3212,-1.3237,-1.368,-1.4569,-1.4569,-1.4569,-1.4569,-1.4569,-1.4569,-1.4569,-1.4569,-1.4569,-1.4569,-1.4569,-1.4569,-1.4569,-1.4649,-1.4863,-1.5189,-1.5189,-1.5396,-1.5737,0.0898,0.0898,0.0898,0.0898,0.0842,0.0842,0.0898,0.0898,0.0898,0.0898,0.0898,-0.0057,-0.2665,-0.3745,-0.4086,-0.3638,-0.4032,-0.43,-0.43,-0.43,-0.43,-0.43,-0.43,-0.4281,-0.4243,-0.4243,-0.4224,-0.4183,-0.4547,-0.4753,-0.4879,-0.5853,-0.609,-0.5624,-0.6284,-0.6486,-0.642,-0.642,-0.642,-0.642,-0.642,-0.642,-0.642,-0.642,-0.642,-0.6396,-0.6273,-0.6262,-0.6363,-0.601,-0.6063,-0.6219,-0.6277,-0.6297,-0.6258,-0.6384,-0.6083,-0.5679,-0.5477,-0.4945,-0.4215,-0.3286,-0.2751,-0.2283,-0.1612,-0.1276,-0.1076,-0.1076,-0.121,-0.1412,-0.168,-0.2017,-0.228,-0.2591,-0.3135,-0.3538,-0.344,-0.3899,-0.4306,-0.4613,-0.5104,-0.5513,-0.5909,-0.6603,-0.7138,-0.7396,-0.7593,-0.7716,-0.7812,-0.7742,-0.8467,-1.0236,-0.9421,-1.0449,-1.3603,-1.2961,-1.323,-1.4569,-1.4569,-1.4569,-1.4569,-1.4569,-1.4569,-1.4569,-1.4569,-1.4569,-1.4569,-1.4569,-1.4569,-1.4569,-1.4569,-1.4712,-1.4816,-1.4816,-1.5181,-1.5658,0.0898,0.0898,0.0898,0.0898,0.0898,0.0898,0.0898,0.0449,0.0056,0.0056,-0.0056,-0.0964,-0.3233,-0.3947,-0.4226,-0.427,-0.4324,-0.43,-0.43,-0.43,-0.43,-0.43,-0.43,-0.43,-0.43,-0.43,-0.43,-0.43,-0.4486,-0.4705,-0.4896,-0.557,-0.5815,-0.5686,-0.6284,-0.6482,-0.642,-0.642,-0.642,-0.642,-0.642,-0.642,-0.642,-0.642,-0.642,-0.6404,-0.629,-0.6323,-0.6375,-0.6083,-0.6117,-0.6207,-0.6207,-0.6018,-0.5863,-0.6298,-0.5947,-0.5345,-0.508,-0.435,-0.3418,-0.2485,-0.215,-0.1813,-0.121,-0.1143,-0.1143,-0.1143,-0.1277,-0.1412,-0.148,-0.1681,-0.1951,-0.2087,-0.2487,-0.2818,-0.2818,-0.322,-0.362,-0.3885,-0.4613,-0.5239,-0.5671,-0.6477,-0.7138,-0.7456,-0.765,-0.7678,-0.7541,-0.7668,-0.8425,-0.9858,-0.9082,-1.0024,-1.3098,-1.2425,-1.2785,-1.4274,-1.4497,-1.4569,-1.4569,-1.4569,-1.4569,-1.4569,-1.4569,-1.4569,-1.4569,-1.4569,-1.4569,-1.4569,-1.4569,-1.4569,-1.4569,-1.4569,-1.4998,-1.5459,0.0898,0.0898,0.0898,0.0898,0.0898,0.0898,0.0842,-0.0336,-0.1291,-0.1459,-0.1737,-0.1986,-0.2234,-0.3334,-0.4128,-0.4263,-0.4306,-0.43,-0.43,-0.43,-0.43,-0.43,-0.43,-0.43,-0.43,-0.43,-0.43,-0.43,-0.43,-0.4564,-0.509,-0.5418,-0.5749,-0.6075,-0.6478,-0.6544,-0.642,-0.642,-0.642,-0.642,-0.642,-0.642,-0.642,-0.642,-0.642,-0.642,-0.642,-0.642,-0.6392,-0.6269,-0.6207,-0.6207,-0.6207,-0.5702,-0.535,-0.6102,-0.5815,-0.508,-0.4417,-0.3553,-0.2688,-0.1816,-0.148,-0.1277,-0.1143,-0.121,-0.1277,-0.1143,-0.1412,-0.1547,-0.1345,-0.1681,-0.1951,-0.1951,-0.2087,-0.2221,-0.2221,-0.2221,-0.242,-0.3084,-0.3946,-0.4803,-0.5723,-0.6662,-0.726,-0.7437,-0.7526,-0.7536,-0.7521,-0.7853,-0.8433,-0.9211,-0.8712,-0.9579,-1.1996,-1.1835,-1.2418,-1.3833,-1.4346,-1.4569,-1.4569,-1.4569,-1.4569,-1.4569,-1.4569,-1.4569,-1.4569,-1.4569,-1.4569,-1.4569,-1.4569,-1.4569,-1.4569,-1.4569,-1.4887,-1.5213,0.0898,0.0898,0.0898,0.0898,0.0898,0.0841,0.0561,-0.0336,-0.1515,-0.2871,-0.3147,-0.327,-0.358,-0.3933,-0.4162,-0.4309,-0.4287,-0.43,-0.43,-0.43,-0.43,-0.43,-0.43,-0.43,-0.43,-0.43,-0.43,-0.43,-0.43,-0.45,-0.4894,-0.5292,-0.5624,-0.5954,-0.6284,-0.642,-0.642,-0.642,-0.642,-0.642,-0.642,-0.642,-0.642,-0.642,-0.642,-0.642,-0.642,-0.642,-0.6392,-0.6269,-0.6207,-0.6207,-0.6207,-0.6081,-0.5923,-0.5698,-0.4746,-0.3682,-0.3482,-0.2818,-0.2085,-0.1884,-0.1547,-0.1277,-0.1277,-0.1277,-0.1344,-0.148,-0.1681,-0.1817,-0.1749,-0.1951,-0.2154,-0.2154,-0.2154,-0.2221,-0.2221,-0.2221,-0.2288,-0.2421,-0.3553,-0.4443,-0.4794,-0.6128,-0.7075,-0.7243,-0.7522,-0.7631,-0.7531,-0.7853,-0.8292,-0.8795,-0.8416,-0.9475,-1.2198,-1.1903,-1.2638,-1.4418,-1.4129,-1.4201,-1.4569,-1.4569,-1.4569,-1.4569,-1.4569,-1.4569,-1.4569,-1.4569,-1.4569,-1.4569,-1.4569,-1.4569,-1.4569,-1.4569,-1.503,-1.5523,0.0898,0.0898,0.0898,0.0898,0.0898,0.0842,0.0673,-0.056,-0.1962,-0.3434,-0.3642,-0.3798,-0.3983,-0.4055,-0.4165,-0.4284,-0.43,-0.43,-0.43,-0.43,-0.43,-0.43,-0.43,-0.43,-0.43,-0.43,-0.43,-0.43,-0.4164,-0.4428,-0.5156,-0.5156,-0.5554,-0.6284,-0.635,-0.642,-0.642,-0.642,-0.642,-0.642,-0.642,-0.642,-0.642,-0.642,-0.642,-0.642,-0.642,-0.642,-0.6404,-0.6302,-0.6073,-0.5811,-0.5811,-0.5352,-0.4782,-0.4461,-0.4082,-0.3618,-0.3282,-0.2551,-0.1884,-0.1817,-0.1614,-0.1412,-0.1412,-0.148,-0.1547,-0.1614,-0.1749,-0.1884,-0.1884,-0.2018,-0.2087,-0.2154,-0.2221,-0.2221,-0.2221,-0.2221,-0.2287,-0.2621,-0.3685,-0.4587,-0.5097,-0.6282,-0.7093,-0.7305,-0.7569,-0.765,-0.7531,-0.7741,-0.8118,-0.8779,-0.8416,-0.9197,-1.1278,-1.1476,-1.2572,-1.4569,-1.4049,-1.4049,-1.4569,-1.4569,-1.4569,-1.4569,-1.4569,-1.4569,-1.4569,-1.4569,-1.4569,-1.4569,-1.4569,-1.4569,-1.4569,-1.4569,-1.4982,-1.5404,0.0898,0.0898,0.0898,0.0898,0.0898,0.0898,0.0898,-0.0727,-0.2352,-0.3485,-0.3746,-0.38,-0.392,-0.4045,-0.4167,-0.4289,-0.43,-0.43,-0.43,-0.43,-0.43,-0.43,-0.43,-0.43,-0.43,-0.4233,-0.4233,-0.4233,-0.3894,-0.4281,-0.545,-0.5005,-0.5467,-0.6633,-0.647,-0.642,-0.642,-0.642,-0.642,-0.642,-0.642,-0.642,-0.642,-0.642,-0.642,-0.6416,-0.6284,-0.6218,-0.6218,-0.6152,-0.5683,-0.5213,-0.5213,-0.4348,-0.3351,-0.3215,-0.3618,-0.3951,-0.3218,-0.2485,-0.1884,-0.1681,-0.1614,-0.1614,-0.1614,-0.1749,-0.1884,-0.1748,-0.1817,-0.1951,-0.1951,-0.1951,-0.2016,-0.2142,-0.2214,-0.2217,-0.2209,-0.2216,-0.242,-0.3151,-0.3946,-0.4875,-0.5804,-0.6671,-0.7265,-0.7461,-0.7521,-0.7521,-0.7521,-0.7521,-0.7871,-0.8735,-0.8492,-0.8963,-1.0344,-1.1108,-1.2545,-1.4569,-1.3932,-1.3932,-1.4569,-1.4569,-1.4569,-1.4569,-1.4569,-1.4569,-1.4569,-1.4569,-1.4569,-1.4569,-1.4569,-1.4569,-1.4569,-1.4569,-1.4871,-1.5141,0.0898,0.0898,0.0898,0.0898,0.0898,0.0898,0.0898,-0.0448,-0.1959,-0.3426,-0.3746,-0.38,-0.392,-0.4045,-0.4167,-0.4289,-0.43,-0.43,-0.43,-0.43,-0.43,-0.43,-0.43,-0.43,-0.43,-0.4028,-0.3892,-0.3892,-0.3493,-0.3779,-0.4785,-0.4763,-0.5346,-0.6256,-0.6351,-0.642,-0.642,-0.642,-0.642,-0.642,-0.642,-0.642,-0.642,-0.642,-0.642,-0.635,-0.5745,-0.5543,-0.5477,-0.4818,-0.4553,-0.4486,-0.4486,-0.4287,-0.402,-0.3416,-0.3282,-0.3218,-0.2554,-0.2287,-0.2087,-0.1884,-0.1884,-0.1884,-0.1884,-0.1884,-0.1951,-0.2087,-0.2154,-0.2154,-0.2154,-0.2154,-0.2138,-0.2151,-0.2186,-0.2203,-0.215,-0.2187,-0.242,-0.3151,-0.3946,-0.4875,-0.5804,-0.6671,-0.7265,-0.7461,-0.7521,-0.7521,-0.7521,-0.7521,-0.7671,-0.8103,-0.8122,-0.9222,-1.1464,-1.188,-1.2921,-1.4561,-1.3278,-1.3364,-1.4569,-1.4569,-1.4569,-1.4569,-1.4569,-1.4569,-1.4569,-1.4569,-1.4569,-1.4569,-1.4569,-1.4569,-1.4569,-1.4569,-1.4871,-1.5173,0.0898,0.0898,0.0898,0.0898,0.0898,0.0898,0.0898,-0.0336,-0.1689,-0.2758,-0.3429,-0.3898,-0.402,-0.4143,-0.4238,-0.4295,-0.43,-0.43,-0.43,-0.43,-0.43,-0.43,-0.43,-0.4233,-0.4028,-0.3892,-0.3889,-0.409,-0.3692,-0.4098,-0.5131,-0.5147,-0.5528,-0.6215,-0.6335,-0.642,-0.642,-0.642,-0.642,-0.642,-0.642,-0.642,-0.642,-0.642,-0.6148,-0.5815,-0.5477,-0.5147,-0.4749,-0.442,-0.4018,-0.3685,-0.3685,-0.3487,-0.3088,-0.2753,-0.2686,-0.2619,-0.2287,-0.2221,-0.2154,-0.2087,-0.2085,-0.2085,-0.2085,-0.2085,-0.2087,-0.2154,-0.2221,-0.2221,-0.2221,-0.2221,-0.2211,-0.2183,-0.2203,-0.2211,-0.2182,-0.2466,-0.3017,-0.3813,-0.4674,-0.5606,-0.6535,-0.7064,-0.7396,-0.7521,-0.7521,-0.7521,-0.7521,-0.7521,-0.7591,-0.7722,-0.8543,-0.9783,-1.1379,-1.186,-1.2891,-1.4497,-1.3618,-1.3697,-1.4569,-1.4569,-1.4569,-1.4569,-1.4569,-1.4569,-1.4569,-1.4569,-1.4569,-1.4569,-1.4569,-1.4569,-1.4569,-1.4569,-1.4744,-1.4919,0.0898,0.0898,0.0898,0.0898,0.0785,0.0729,0.0673,-0.0507,-0.1599,-0.2287,-0.316,-0.37,-0.3849,-0.3962,-0.403,-0.403,-0.4097,-0.4164,-0.4164,-0.4164,-0.4233,-0.43,-0.4233,-0.403,-0.3692,-0.3556,-0.3756,-0.4154,-0.382,-0.4292,-0.5512,-0.5408,-0.5658,-0.6215,-0.6335,-0.642,-0.642,-0.642,-0.642,-0.642,-0.642,-0.642,-0.642,-0.642,-0.6013,-0.5411,-0.5213,-0.4683,-0.402,-0.3887,-0.342,-0.2952,-0.2952,-0.2621,-0.2221,-0.2221,-0.2221,-0.2221,-0.2221,-0.2221,-0.2221,-0.2221,-0.2221,-0.2221,-0.2221,-0.2221,-0.2221,-0.2221,-0.2221,-0.2221,-0.2221,-0.2221,-0.2216,-0.2202,-0.2211,-0.2216,-0.2202,-0.2741,-0.3549,-0.4411,-0.5338,-0.6268,-0.7134,-0.7396,-0.7521,-0.7521,-0.7521,-0.7521,-0.7521,-0.7521,-0.7521,-0.7521,-0.9034,-1.0236,-1.1053,-1.1722,-1.2818,-1.4353,-1.3901,-1.3981,-1.4569,-1.4569,-1.4569,-1.4569,-1.4569,-1.4569,-1.4569,-1.4569,-1.4569,-1.4569,-1.4569,-1.4689,-1.4768,-1.4768,-1.4816,-1.4919,0.0898,0.0898,0.0898,0.0898,0.0561,0.0224,0.0112,-0.092,-0.1876,-0.2411,-0.2849,-0.3081,-0.3089,-0.3171,-0.3293,-0.3293,-0.3627,-0.3825,-0.3825,-0.3825,-0.3961,-0.43,-0.4028,-0.3625,-0.3226,-0.2956,-0.3155,-0.3823,-0.342,-0.3893,-0.5131,-0.5343,-0.5658,-0.6215,-0.6335,-0.642,-0.642,-0.642,-0.642,-0.642,-0.642,-0.642,-0.642,-0.642,-0.6013,-0.5279,-0.4616,-0.3885,-0.3218,-0.2554,-0.2287,-0.2288,-0.2288,-0.2221,-0.2221,-0.2221,-0.2221,-0.2221,-0.2221,-0.2221,-0.2221,-0.2221,-0.2221,-0.2221,-0.2221,-0.2221,-0.2221,-0.2221,-0.2221,-0.2221,-0.2221,-0.2221,-0.2203,-0.2144,-0.2183,-0.2202,-0.2143,-0.2708,-0.3549,-0.4411,-0.5338,-0.6268,-0.7134,-0.7396,-0.7521,-0.7521,-0.7521,-0.7521,-0.7521,-0.7521,-0.7521,-0.7521,-0.9136,-1.0325,-1.1053,-1.168,-1.2822,-1.4425,-1.3525,-1.3681,-1.4569,-1.4569,-1.4569,-1.4569,-1.4569,-1.4569,-1.4569,-1.4569,-1.4569,-1.4569,-1.4569,-1.4847,-1.5141,-1.5141,-1.534,-1.5602,0.0898,0.0898,0.0898,0.0898,0.0505,0.0168,0.0112,-0.0921,-0.1776,-0.2054,-0.2636,-0.3047,-0.3103,-0.3139,-0.3226,-0.3226,-0.336,-0.3426,-0.3426,-0.3426,-0.3493,-0.3629,-0.3493,-0.3291,-0.2889,-0.2753,-0.3155,-0.409,-0.3954,-0.4549,-0.5769,-0.5937,-0.6055,-0.6215,-0.6335,-0.642,-0.642,-0.642,-0.642,-0.642,-0.642,-0.642,-0.635,-0.5947,-0.5348,-0.4616,-0.3885,-0.3153,-0.2554,-0.2287,-0.2221,-0.2221,-0.2221,-0.2221,-0.2221,-0.2221,-0.2221,-0.2221,-0.2221,-0.2221,-0.2221,-0.2221,-0.2221,-0.2221,-0.2221,-0.219,-0.2162,-0.2162,-0.2131,-0.2117,-0.2155,-0.2162,-0.2168,-0.2183,-0.2206,-0.2213,-0.2189,-0.3133,-0.4084,-0.4613,-0.5741,-0.6741,-0.733,-0.7456,-0.7521,-0.7521,-0.7521,-0.7521,-0.7521,-0.7521,-0.7521,-0.7521,-0.8902,-0.9976,-1.0548,-1.2123,-1.3292,-1.4026,-1.397,-1.415,-1.4569,-1.4569,-1.4569,-1.4569,-1.4569,-1.4569,-1.4569,-1.4569,-1.4569,-1.4569,-1.4569,-1.4728,-1.4879,-1.5102,-1.5268,-1.5427,0.0898,0.0898,0.0842,0.0729,0.0336,-0.0056,-0.0168,-0.1104,-0.1804,-0.1843,-0.2359,-0.2763,-0.2885,-0.2891,-0.2891,-0.2891,-0.2958,-0.3025,-0.3025,-0.3025,-0.3025,-0.3025,-0.3025,-0.2889,-0.2554,-0.2753,-0.3351,-0.4287,-0.4553,-0.5229,-0.6233,-0.6359,-0.6351,-0.6237,-0.6363,-0.642,-0.642,-0.642,-0.642,-0.642,-0.642,-0.642,-0.635,-0.5679,-0.4948,-0.422,-0.3485,-0.2753,-0.2221,-0.2221,-0.2221,-0.2221,-0.2221,-0.2221,-0.2217,-0.2197,-0.2192,-0.2192,-0.2192,-0.2192,-0.2197,-0.2216,-0.2221,-0.2221,-0.2221,-0.2187,-0.2151,-0.2131,-0.2109,-0.21,-0.2123,-0.2144,-0.2171,-0.2214,-0.2221,-0.2288,-0.2487,-0.3551,-0.455,-0.508,-0.621,-0.7138,-0.7456,-0.7521,-0.7521,-0.7521,-0.7521,-0.7521,-0.7521,-0.7521,-0.7521,-0.7521,-0.8613,-0.9538,-1.0046,-1.208,-1.3302,-1.3607,-1.4026,-1.4261,-1.4411,-1.4514,-1.4569,-1.4569,-1.4569,-1.4569,-1.4569,-1.4569,-1.4569,-1.4569,-1.4569,-1.4712,-1.4839,-1.5094,-1.5324,-1.557,0.0898,0.0898,0.0729,0.028,-0.0112,-0.0561,-0.101,-0.1599,-0.1971,-0.1971,-0.2144,-0.2221,-0.2221,-0.2221,-0.2221,-0.2221,-0.2487,-0.2686,-0.2686,-0.2686,-0.2686,-0.2686,-0.2686,-0.2554,-0.2221,-0.2885,-0.3551,-0.4287,-0.5014,-0.5745,-0.642,-0.642,-0.642,-0.642,-0.642,-0.642,-0.642,-0.642,-0.642,-0.642,-0.642,-0.642,-0.635,-0.5679,-0.4948,-0.422,-0.3485,-0.2753,-0.2221,-0.2221,-0.2221,-0.2221,-0.2221,-0.2221,-0.2209,-0.2147,-0.2128,-0.2128,-0.2128,-0.2128,-0.2144,-0.2206,-0.2221,-0.2221,-0.2221,-0.222,-0.2203,-0.214,-0.2176,-0.2202,-0.2138,-0.2179,-0.222,-0.2221,-0.2221,-0.242,-0.3084,-0.3946,-0.4875,-0.5804,-0.6671,-0.7265,-0.7461,-0.7521,-0.7521,-0.7521,-0.7521,-0.7521,-0.7521,-0.7521,-0.7521,-0.7521,-0.8291,-0.9058,-0.9773,-1.1482,-1.2533,-1.308,-1.3599,-1.3824,-1.3917,-1.4403,-1.4561,-1.4569,-1.4569,-1.4569,-1.4569,-1.4569,-1.4569,-1.4569,-1.4569,-1.4863,-1.5181,-1.5189,-1.5618,-1.6198,0.0898,0.0898,0.0729,0.028,-0.0112,-0.0561,-0.101,-0.1599,-0.1971,-0.1971,-0.2144,-0.2221,-0.2221,-0.2221,-0.2221,-0.2221,-0.2487,-0.2686,-0.2686,-0.2686,-0.2619,-0.2354,-0.2354,-0.2287,-0.2221,-0.2421,-0.3088,-0.4287,-0.4553,-0.5216,-0.642,-0.642,-0.642,-0.642,-0.642,-0.642,-0.642,-0.642,-0.642,-0.642,-0.642,-0.6148,-0.5613,-0.4885,-0.4151,-0.3418,-0.2753,-0.2354,-0.2221,-0.2221,-0.2221,-0.2221,-0.2221,-0.2221,-0.2217,-0.2199,-0.2193,-0.2193,-0.2193,-0.2193,-0.2197,-0.2217,-0.2221,-0.2221,-0.2221,-0.2187,-0.215,-0.2131,-0.2107,-0.2098,-0.2123,-0.2143,-0.2171,-0.2214,-0.2619,-0.3019,-0.3353,-0.448,-0.5477,-0.6009,-0.6736,-0.7265,-0.7461,-0.7521,-0.7521,-0.7521,-0.7521,-0.7521,-0.7521,-0.7521,-0.7521,-0.7521,-0.8613,-0.9454,-0.9773,-1.1081,-1.2072,-1.2729,-1.3124,-1.3545,-1.3909,-1.4018,-1.4269,-1.4569,-1.4569,-1.4569,-1.4569,-1.4569,-1.4569,-1.4569,-1.4569,-1.4632,-1.4832,-1.5094,-1.5316,-1.5562,0.0898,0.0898,0.0729,0.0056,-0.0224,-0.062,-0.1313,-0.1731,-0.1981,-0.2005,-0.2158,-0.2221,-0.2221,-0.2221,-0.2221,-0.2221,-0.2354,-0.2487,-0.2487,-0.2487,-0.2421,-0.2221,-0.2221,-0.2221,-0.2221,-0.2487,-0.3019,-0.3885,-0.4417,-0.515,-0.6017,-0.6284,-0.642,-0.642,-0.642,-0.6284,-0.6017,-0.6284,-0.6218,-0.6017,-0.6284,-0.6013,-0.5345,-0.4553,-0.3818,-0.3084,-0.242,-0.2221,-0.2221,-0.2221,-0.2221,-0.2221,-0.2221,-0.2221,-0.2216,-0.2192,-0.2185,-0.2185,-0.2185,-0.2185,-0.219,-0.2214,-0.2221,-0.2221,-0.2221,-0.2192,-0.2158,-0.2133,-0.2117,-0.2112,-0.2126,-0.2148,-0.2242,-0.2546,-0.3019,-0.3551,-0.4217,-0.5147,-0.6013,-0.6474,-0.7003,-0.7396,-0.7456,-0.7521,-0.7521,-0.7521,-0.7521,-0.7521,-0.7521,-0.7521,-0.7521,-0.7521,-0.8554,-0.9262,-0.9709,-1.0701,-1.1632,-1.2442,-1.3041,-1.3305,-1.3382,-1.3784,-1.4088,-1.4364,-1.4364,-1.4514,-1.4569,-1.4569,-1.4569,-1.4569,-1.4569,-1.4569,-1.4593,-1.4887,-1.5062,-1.5245,0.0898,0.0898,0.0617,-0.0224,-0.0393,-0.0736,-0.1749,-0.1929,-0.1992,-0.2112,-0.2179,-0.2221,-0.2221,-0.2221,-0.2221,-0.2221,-0.2221,-0.2221,-0.2221,-0.2221,-0.2221,-0.2221,-0.2221,-0.2221,-0.2221,-0.2818,-0.3151,-0.3282,-0.4613,-0.5345,-0.5477,-0.6083,-0.642,-0.642,-0.642,-0.6083,-0.5543,-0.6148,-0.6017,-0.5547,-0.6083,-0.5881,-0.5213,-0.4483,-0.3751,-0.3017,-0.2421,-0.2221,-0.2221,-0.2221,-0.2221,-0.2221,-0.2221,-0.2221,-0.221,-0.2152,-0.2135,-0.2135,-0.2135,-0.2135,-0.2213,-0.2272,-0.2354,-0.2356,-0.2221,-0.2221,-0.2271,-0.2148,-0.2182,-0.2203,-0.221,-0.2248,-0.2487,-0.3218,-0.3485,-0.4151,-0.5415,-0.5947,-0.6474,-0.7134,-0.7396,-0.7521,-0.7521,-0.7521,-0.7521,-0.7521,-0.7521,-0.7521,-0.7521,-0.7587,-0.7587,-0.7521,-0.8296,-0.8935,-0.9518,-1.0485,-1.1317,-1.2065,-1.2993,-1.315,-1.2657,-1.3533,-1.3915,-1.3909,-1.4047,-1.4315,-1.4569,-1.4569,-1.4569,-1.4569,-1.4569,-1.4569,-1.4569,-1.4569,-1.4847,-1.5141,0.0898,0.0898,0.0617,-0.0224,-0.0393,-0.0731,-0.1699,-0.1905,-0.1977,-0.1991,-0.2152,-0.2221,-0.2221,-0.2221,-0.2221,-0.2221,-0.242,-0.2619,-0.2619,-0.2619,-0.2487,-0.2221,-0.2221,-0.2221,-0.2221,-0.2354,-0.2954,-0.4084,-0.4353,-0.5084,-0.6214,-0.635,-0.642,-0.642,-0.642,-0.635,-0.6214,-0.635,-0.6284,-0.6148,-0.5745,-0.5213,-0.4486,-0.3751,-0.3019,-0.2421,-0.2221,-0.2221,-0.2221,-0.2221,-0.2221,-0.2221,-0.2221,-0.2221,-0.2218,-0.2204,-0.2202,-0.2202,-0.2202,-0.253,-0.2994,-0.2947,-0.3418,-0.3556,-0.2421,-0.2621,-0.2813,-0.227,-0.2211,-0.235,-0.2861,-0.3006,-0.3218,-0.3951,-0.4683,-0.5279,-0.5741,-0.647,-0.7068,-0.7396,-0.7456,-0.7521,-0.7521,-0.7521,-0.7521,-0.7521,-0.7521,-0.7521,-0.7521,-0.7972,-0.8037,-0.7526,-0.9198,-0.997,-0.9709,-1.1219,-1.1929,-1.1872,-1.2265,-1.2505,-1.2641,-1.2852,-1.3266,-1.3909,-1.3909,-1.4175,-1.4569,-1.4569,-1.4569,-1.4569,-1.4569,-1.4569,-1.4569,-1.4569,-1.4689,-1.4832,0.0898,0.0898,0.0617,-0.0224,-0.0393,-0.0733,-0.1718,-0.189,-0.1939,-0.1969,-0.2117,-0.2165,-0.2135,-0.2185,-0.2221,-0.2221,-0.2326,-0.2451,-0.2485,-0.2487,-0.2354,-0.2221,-0.2221,-0.2221,-0.2221,-0.2221,-0.2688,-0.3751,-0.4154,-0.4885,-0.5947,-0.6284,-0.642,-0.642,-0.642,-0.6218,-0.5947,-0.6284,-0.6218,-0.5947,-0.5881,-0.5481,-0.4815,-0.4414,-0.3818,-0.3155,-0.282,-0.2487,-0.2221,-0.2221,-0.2221,-0.2221,-0.2221,-0.2221,-0.2221,-0.2221,-0.242,-0.2686,-0.2686,-0.322,-0.3751,-0.3751,-0.402,-0.402,-0.2952,-0.2952,-0.3017,-0.2354,-0.2221,-0.2421,-0.3084,-0.3215,-0.3549,-0.4616,-0.5345,-0.5877,-0.6342,-0.6937,-0.7396,-0.7456,-0.7521,-0.7521,-0.7521,-0.7521,-0.7521,-0.7521,-0.7521,-0.7521,-0.7521,-0.7847,-0.8037,-0.7977,-0.9326,-1.0034,-1.0161,-1.134,-1.1918,-1.1809,-1.2386,-1.2598,-1.2459,-1.2621,-1.2891,-1.3297,-1.3468,-1.3793,-1.4261,-1.4426,-1.4569,-1.4569,-1.4569,-1.4569,-1.4569,-1.4569,-1.4569,-1.4648,0.0898,0.0898,0.0617,-0.0224,-0.0393,-0.0736,-0.1742,-0.1875,-0.1899,-0.195,-0.201,-0.2092,-0.1978,-0.2127,-0.2193,-0.2204,-0.2158,-0.2154,-0.2217,-0.2211,-0.2206,-0.2206,-0.2206,-0.2206,-0.2206,-0.2216,-0.2554,-0.3215,-0.3951,-0.4683,-0.5411,-0.6083,-0.642,-0.642,-0.642,-0.6083,-0.5613,-0.6148,-0.6083,-0.5613,-0.6079,-0.5881,-0.5345,-0.5143,-0.4749,-0.422,-0.3351,-0.2686,-0.2221,-0.2221,-0.2221,-0.2221,-0.2354,-0.2354,-0.2421,-0.2555,-0.2954,-0.3416,-0.3416,-0.3951,-0.4486,-0.4486,-0.4553,-0.4486,-0.3749,-0.3349,-0.3017,-0.2487,-0.2354,-0.2554,-0.3284,-0.3482,-0.4015,-0.5411,-0.5873,-0.6272,-0.6876,-0.7265,-0.7521,-0.7521,-0.7521,-0.7521,-0.7521,-0.7521,-0.7521,-0.7521,-0.7521,-0.7521,-0.7521,-0.7587,-0.7907,-0.849,-0.932,-0.9964,-1.0548,-1.136,-1.1766,-1.1954,-1.2775,-1.2875,-1.2336,-1.2623,-1.2729,-1.2668,-1.2958,-1.34,-1.3932,-1.4284,-1.4497,-1.4569,-1.4569,-1.4569,-1.4569,-1.4569,-1.4569,-1.4697,0.0898,0.0898,0.0617,-0.0224,-0.0393,-0.073,-0.1694,-0.185,-0.1884,-0.1892,-0.1946,-0.1981,-0.1973,-0.1986,-0.2081,-0.2135,-0.2133,-0.2154,-0.2217,-0.2171,-0.214,-0.214,-0.214,-0.214,-0.214,-0.2193,-0.2554,-0.3215,-0.3951,-0.4683,-0.5411,-0.6083,-0.642,-0.642,-0.642,-0.6354,-0.6284,-0.635,-0.6354,-0.6218,-0.5745,-0.5477,-0.5279,-0.4013,-0.3816,-0.4154,-0.2822,-0.2287,-0.2221,-0.2221,-0.2221,-0.2287,-0.2885,-0.3084,-0.3218,-0.382,-0.4087,-0.4154,-0.4154,-0.4683,-0.5279,-0.5279,-0.5679,-0.5951,-0.5279,-0.4148,-0.3151,-0.3084,-0.3084,-0.3284,-0.402,-0.4683,-0.5408,-0.6342,-0.6675,-0.6876,-0.7138,-0.733,-0.7521,-0.7521,-0.7521,-0.7521,-0.7521,-0.7521,-0.7521,-0.7521,-0.7521,-0.7521,-0.7521,-0.8037,-0.8425,-0.849,-0.9882,-1.0647,-1.078,-1.1696,-1.23,-1.2428,-1.2749,-1.2734,-1.2565,-1.2538,-1.2722,-1.3012,-1.3057,-1.34,-1.3932,-1.4284,-1.4497,-1.4569,-1.4569,-1.4569,-1.4569,-1.4569,-1.4569,-1.4697,0.0898,0.0898,0.0617,-0.0224,-0.0393,-0.0729,-0.1685,-0.1817,-0.1834,-0.1834,-0.1886,-0.1909,-0.1877,-0.1875,-0.1911,-0.2004,-0.1981,-0.1988,-0.2112,-0.2091,-0.2075,-0.2075,-0.2075,-0.2092,-0.2127,-0.2479,-0.2647,-0.2484,-0.3687,-0.4683,-0.5411,-0.6013,-0.635,-0.642,-0.635,-0.635,-0.642,-0.642,-0.642,-0.635,-0.6083,-0.5947,-0.5881,-0.5213,-0.5216,-0.5286,-0.3887,-0.3088,-0.2753,-0.2753,-0.3019,-0.3422,-0.3751,-0.3818,-0.3885,-0.422,-0.4619,-0.4882,-0.4882,-0.5415,-0.5947,-0.5947,-0.5881,-0.5881,-0.5947,-0.4815,-0.3818,-0.3818,-0.3818,-0.4018,-0.4749,-0.5213,-0.5675,-0.6539,-0.6811,-0.6946,-0.7204,-0.7396,-0.7521,-0.7521,-0.7631,-0.7655,-0.7536,-0.7631,-0.764,-0.764,-0.7593,-0.7574,-0.7631,-0.7851,-0.8102,-0.849,-0.9722,-1.051,-1.0897,-1.1934,-1.2439,-1.2505,-1.2779,-1.2969,-1.2983,-1.291,-1.2928,-1.3088,-1.3203,-1.337,-1.3592,-1.407,-1.4353,-1.4497,-1.4569,-1.4569,-1.4569,-1.4569,-1.4569,-1.4697]},{"header":{"parameterUnit":"m.s-1","parameterCategory":1,"la1":30.6,"la2":28.766,"lo1":-90.7593,"lo2":-88.6598,"dy":0.0162,"dx":0.0183,"nx":116,"ny":114,"refTime":"2023-10-11T00:00:00:Z","depth":0,"parameterNumber":3,"parameterNumberName":"V-component_of_WINDS"},"data":[0.0,0.0,0.0,0.0,0.0,0.0,0.0,0.0,0.0,0.0,0.0,0.0,0.0,0.0,0.0,0.0,0.0,0.0,0.0,0.0,0.0,0.0,0.0,0.0,0.0,0.0,0.0,0.0,0.0,0.0,0.0,0.0,0.0,0.0,0.0,0.0,0.0,0.0,0.0,0.0,0.0,0.0,0.0,0.0,0.0,0.0,0.0,0.0,0.0,0.0,0.0,0.0,0.0,0.0,0.0,0.0,0.0,0.0,0.0,0.0,0.0,0.0,0.0,0.0,0.0,0.0,0.0,0.0,0.0,0.0,0.0,0.0,0.0,0.0,0.0,0.0,0.0,0.0,0.0,0.0,0.0,0.0,0.0,0.0,0.0,0.0,0.0,0.0,0.0,0.0,0.0,0.0,0.0,0.0,0.0,0.0,0.0,0.0,0.0,0.0,0.0,0.0,0.0,0.0,0.0,0.0,0.0,0.0,0.0,0.0,0.0,0.0,0.0,0.0,0.0,0.0,0.0,0.0,0.0,0.0,0.0,0.0,0.0,0.0,0.0,0.0,0.0,0.0,0.0,0.0,0.0,0.0,0.0,0.0,0.0,0.0,0.0,0.0,0.0,0.0,0.0,0.0,0.0,0.0,0.0,0.0,0.0,0.0,0.0,0.0,0.0,0.0,0.0,0.0,0.0,0.0,0.0,0.0,0.0,0.0,0.0,0.0,0.0,0.0,0.0,0.0,0.0,0.0,0.0,0.0,0.0,0.0,0.0,0.0,0.0,0.0,0.0,0.0,0.0,0.0,0.0,0.0,0.0,0.0,0.0,0.0,0.0,0.0,0.0,0.0,0.0,0.0,0.0,0.0,0.0,0.0,0.0,0.0,0.0,0.0,0.0,0.0,0.0,0.0,0.0,0.0,0.0,0.0,0.0,0.0,0.0,0.0,0.0,0.0,0.0,0.0,0.0,0.0,0.0,0.0,0.0,0.0,0.0,0.0,0.0,0.0,0.0,0.0,0.0,0.0,0.0,0.0,0.0,0.0,0.0,0.0,0.0,0.0,0.0,0.0,0.0,0.0,0.0,0.0,0.0,0.0,0.0,0.0,0.0,0.0,0.0,0.0,0.0,0.0,0.0,0.0,0.0,0.0,0.0,0.0,0.0,0.0,0.0,0.0,0.0,0.0,0.0,0.0,0.0,0.0,0.0,0.0,0.0,0.0,0.0,0.0,0.0,0.0,0.0,0.0,0.0,0.0,0.0,0.0,0.0,0.0,0.0,0.0,0.0,0.0,0.0,0.0,0.0,0.0,0.0,0.0,0.0,0.0,0.0,0.0,0.0,0.0,0.0,0.0,0.0,0.0,0.0,0.0,0.0,0.0,0.0,0.0,0.0,0.0,0.0,0.0,0.0,0.0,0.0,0.0,0.0,0.0,0.0,0.0,0.0,0.0,0.0,0.0,0.0,0.0,0.0,0.0,0.0,0.0,0.0,0.0,0.0,0.0,0.0,0.0,0.0,0.0,0.0,0.0,0.0,0.0,0.0,0.0,0.0,0.0,0.0,0.0,0.0,0.0,0.0,0.0,0.0,0.0,0.0,0.0,0.0,0.0,0.0,0.0,0.0,0.0,0.0,0.0,0.0,0.0,0.0,0.0,0.0,0.0,0.0,0.0,0.0,0.0,0.0,0.0,0.0,0.0,0.0,0.0,0.0,0.0,0.0,0.0,0.0,0.0,0.0,0.0,0.0,0.0,0.0,0.0,0.0,0.0,0.0,0.0,0.0,0.0,0.0,0.0,0.0,0.0,0.0,0.0,0.0,0.0,0.0,0.0,0.0,0.0,0.0,0.0,0.0,0.0,0.0,0.0,0.0,0.0,0.0,0.0,0.0,0.0,0.0,0.0,0.0,0.0,0.0,0.0,0.0,0.0,0.0,0.0,0.0,0.0,0.0,0.0,0.0,0.0,0.0,0.0,0.0,0.0,0.0,0.0,0.0,0.0,0.0,0.0,0.0,0.0,0.0,0.0,0.0,0.0,0.0,0.0,0.0,0.0,0.0,0.0,0.0,0.0,0.0,0.0,0.0,0.0,0.0,0.0,0.0,0.0,0.0,0.0,0.0,0.0,0.0,0.0,0.0,0.0,0.0,0.0,0.0,0.0,0.0,0.0,0.0,0.0,0.0,0.0,0.0,0.0,0.0,0.0,0.0,0.0,0.0,0.0,0.0,0.0,0.0,0.0,0.0,0.0,0.0,0.0,0.0,0.0,0.0,0.0,0.0,0.0,0.0,0.0,0.0,0.0,0.0,0.0,0.0,0.0,0.0,0.0,0.0,0.0,0.0,0.0,0.0,0.0,0.0,0.0,0.0,0.0,0.0,0.0,0.0,0.0,0.0,0.0,0.0,0.0,0.0,0.0,0.0,0.0,0.0,0.0,0.0,0.0,0.0,0.0,0.0,0.0,0.0,0.0,0.0,0.0,0.0,0.0,0.0,0.0,0.0,0.0,0.0,0.0,0.0,0.0,0.0,0.0,0.0,0.0,0.0,0.0,0.0,0.0,0.0,0.0,0.0,0.0,0.0,0.0,0.0,0.0,0.0,0.0,0.0,0.0,0.0,0.0,0.0,0.0,0.0,0.0,0.0,0.0,0.0,0.0,0.0,0.0,0.0,0.0,0.0,0.0,0.0,0.0,0.0,0.0,0.0,0.0,0.0,0.0,0.0,0.0,0.0,0.0,0.0,0.0,0.0,0.0,0.0,0.0,0.0,0.0,0.0,0.0,0.0,0.0,0.0,0.0,0.0,0.0,0.0,0.0,0.0,0.0,0.0,0.0,0.0,0.0,0.0,0.0,0.0,0.0,0.0,0.0,0.0,0.0,0.0,0.0,0.0,0.0,0.0,0.0,0.0,0.0,0.0,0.0,0.0,0.0,0.0,0.0,0.0,0.0,0.0,0.0,0.0,0.0,0.0,0.0,0.0,0.0,0.0,0.0,0.0,0.0,0.0,0.0,0.0,0.0,0.0,0.0,0.0,0.0,0.0,0.0,0.0,0.0,0.0,0.0,0.0,0.0,0.0,0.0,0.0,0.0,0.0,0.0,0.0,0.0,0.0,0.0,0.0,0.0,0.0,0.0,0.0,0.0,0.0,0.0,0.0,0.0,0.0,0.0,0.0,0.0,0.0,0.0,0.0,0.0,0.0,0.0,0.0,0.0,0.0,0.0,0.0,0.0,0.0,0.0,0.0,0.0,0.0,0.0,0.0,0.0,0.0,0.0,0.0,0.0,0.0,0.0,0.0,0.0,0.0,0.0,0.0,0.0,0.0,0.0,0.0,0.0,0.0,0.0,0.0,0.0,0.0,0.0,0.0,0.0,0.0,0.0,0.0,0.0,0.0,0.0,0.0,0.0,0.0,0.0,0.0,0.0,0.0,0.0,0.0,0.0,0.0,0.0,0.0,0.0,0.0,0.0,0.0,0.0,0.0,0.0,0.0,0.0,0.0,0.0,0.0,0.0,0.0,0.0,0.0,0.0,0.0,0.0,0.0,0.0,0.0,0.0,0.0,0.0,0.0,0.0,0.0,0.0,0.0,0.0,0.0,0.0,0.0,0.0,0.0,0.0,0.0,0.0,0.0,0.0,0.0,0.0,0.0,0.0,0.0,0.0,0.0,0.0,0.0,0.0,0.0,0.0,0.0,0.0,0.0,0.0,0.0,0.0,0.0,0.0,0.0,0.0,0.0,0.0,0.0,0.0,0.0,0.0,0.0,0.0,0.0,0.0,0.0,0.0,0.0,0.0,0.0,0.0,0.0,0.0,0.0,0.0,0.0,0.0,0.0,0.0,0.0,0.0,0.0,0.0,0.0,0.0,0.0,0.0,0.0,0.0,0.0,0.0,0.0,0.0,0.0,0.0,0.0,0.0,0.0,0.0,0.0,0.0,0.0,0.0,0.0,0.0,0.0,0.0,0.0,0.0,0.0,0.0,0.0,0.0,0.0,0.0,0.0,0.0,0.0,0.0,0.0,0.0,0.0,0.0,0.0,0.0,0.0,0.0,0.0,0.0,0.0,0.0,0.0,0.0,0.0,0.0,0.0,0.0,0.0,0.0,0.0,0.0,0.0,0.0,0.0,0.0,0.0,0.0,0.0,0.0,0.0,0.0,0.0,0.0,0.0,0.0,0.0,0.0,0.0,0.0,0.0,0.0,0.0,0.0,0.0,0.0,0.0,0.0,0.0,0.0,0.0,0.0,0.0,0.0,0.0,0.0,0.0,0.0,0.0,0.0,0.0,0.0,0.0,0.0,0.0,0.0,0.0,0.0,0.0,0.0,0.0,0.0,0.0,0.0,0.0,0.0,0.0,0.0,0.0,0.0,0.0,0.0,0.0,0.0,0.0,0.0,0.0,0.0,0.0,0.0,0.0,0.0,0.0,0.0,0.0,0.0,0.0,0.0,0.0,0.0,0.0,0.0,0.0,0.0,0.0,0.0,0.0,0.0,0.0,0.0,0.0,0.0,0.0,0.0,0.0,0.0,0.0,0.0,0.0,0.0,0.0,0.0,0.0,0.0,0.0,0.0,0.0,0.0,0.0,0.0,0.0,0.0,0.0,0.0,0.0,0.0,0.0,0.0,0.0,0.0,0.0,0.0,0.0,0.0,0.0,0.0,0.0,0.0,0.0,0.0,0.0,0.0,0.0,0.0,0.0,0.0,0.0,0.0,0.0,0.0,0.0,0.0,0.0,0.0,0.0,0.0,0.0,0.0,0.0,0.0,0.0,0.0,0.0,0.0,0.0,0.0,0.0,0.0,0.0,0.0,0.0,0.0,0.0,0.0,0.0,0.0,0.0,0.0,0.0,0.0,0.0,0.0,0.0,0.0,0.0,0.0,0.0,0.0,0.0,0.0,0.0,0.0,0.0,0.0,0.0,0.0,0.0,0.0,0.0,0.0,0.0,0.0,0.0,0.0,0.0,0.0,0.0,0.0,0.0,0.0,0.0,0.0,0.0,0.0,0.0,0.0,0.0,0.0,0.0,0.0,0.0,0.0,0.0,0.0,0.0,0.0,0.0,0.0,0.0,0.0,0.0,0.0,0.0,0.0,0.0,0.0,0.0,0.0,0.0,0.0,0.0,0.0,0.0,0.0,0.0,0.0,0.0,0.0,0.0,0.0,0.0,0.0,0.0,0.0,0.0,0.0,0.0,0.0,0.0,0.0,0.0,0.0,0.0,0.0,0.0,0.0,0.0,0.0,0.0,0.0,0.0,0.0,0.0,0.0,0.0,0.0,0.0,0.0,0.0,0.0,0.0,0.0,0.0,0.0,0.0,0.0,0.0,0.0,0.0,0.0,0.0,0.0,0.0,0.0,0.0,0.0,0.0,0.0,0.0,0.0,0.0,0.0,0.0,0.0,0.0,0.0,0.0,0.0,0.0,0.0,0.0,0.0,0.0,0.0,0.0,0.0,0.0,0.0,0.0,0.0,0.0,0.0,0.0,0.0,0.0,0.0,0.0,0.0,0.0,0.0,0.0,0.0,0.0,0.0,0.0,0.0,0.0,0.0,0.0,0.0,0.0,0.0,0.0,0.0,0.0,0.0,0.0,0.0,0.0,0.0,0.0,0.0,0.0,0.0,0.0,0.0,0.0,0.0,0.0,0.0,0.0,0.0,0.0,0.0,0.0,0.0,0.0,0.0,0.0,0.0,0.0,0.0,0.0,0.0,0.0,0.0,0.0,0.0,0.0,0.0,0.0,0.0,0.0,0.0,0.0,0.0,0.0,0.0,0.0,0.0,0.0,0.0,0.0,0.0,0.0,0.0,0.0,0.0,0.0,0.0,0.0,0.0,0.0,0.0,0.0,0.0,0.0,0.0,0.0,0.0,0.0,0.0,0.0,0.0,0.0,0.0,0.0,0.0,0.0,0.0,0.0,0.0,0.0,0.0,0.0,0.0,0.0,0.0,0.0,0.0,0.0,0.0,0.0,0.0,0.0,0.0,0.0,0.0,0.0,0.0,0.0,0.0,0.0,0.0,0.0,0.0,0.0,0.0,0.0,0.0,0.0,0.0,0.0,0.0,0.0,0.0,0.0,0.0,0.0,0.0,0.0,0.0,0.0,0.0,-2.3741,-2.3876,0.0,0.0,0.0,0.0,0.0,0.0,0.0,0.0,0.0,0.0,0.0,0.0,0.0,0.0,0.0,0.0,0.0,0.0,0.0,0.0,0.0,0.0,0.0,0.0,0.0,0.0,0.0,0.0,0.0,0.0,0.0,0.0,0.0,0.0,0.0,0.0,0.0,-1.8552,-1.9386,-1.9857,-1.9975,-2.0324,-2.0776,-2.1386,0.0,0.0,0.0,0.0,0.0,0.0,0.0,0.0,0.0,0.0,0.0,0.0,0.0,0.0,0.0,0.0,0.0,0.0,0.0,0.0,0.0,0.0,0.0,0.0,0.0,0.0,0.0,0.0,0.0,0.0,0.0,0.0,0.0,0.0,0.0,0.0,0.0,0.0,0.0,0.0,0.0,0.0,0.0,0.0,0.0,0.0,0.0,0.0,0.0,0.0,0.0,0.0,0.0,0.0,0.0,0.0,0.0,0.0,0.0,0.0,0.0,0.0,0.0,0.0,0.0,0.0,0.0,0.0,0.0,0.0,-2.4302,-2.3991,0.0,0.0,0.0,0.0,0.0,0.0,0.0,0.0,0.0,0.0,0.0,0.0,0.0,0.0,0.0,0.0,0.0,0.0,0.0,0.0,0.0,0.0,0.0,-1.851,-1.8579,-1.8701,-1.9208,-1.9228,0.0,0.0,0.0,0.0,0.0,0.0,-1.9041,-1.9979,-2.0229,-1.9658,-2.0247,-2.0719,-2.1073,-2.1757,-2.1964,-2.1792,-2.1485,0.0,0.0,0.0,0.0,0.0,0.0,0.0,0.0,0.0,0.0,0.0,0.0,0.0,0.0,0.0,0.0,0.0,0.0,0.0,0.0,0.0,0.0,0.0,0.0,0.0,0.0,0.0,0.0,0.0,0.0,0.0,0.0,0.0,0.0,0.0,0.0,0.0,0.0,0.0,0.0,0.0,0.0,0.0,0.0,0.0,0.0,0.0,0.0,0.0,0.0,0.0,0.0,0.0,0.0,0.0,0.0,0.0,0.0,0.0,0.0,0.0,0.0,0.0,-2.8178,-2.8471,-2.8889,-2.824,-2.7936,-2.7885,-2.5643,-2.4639,-2.4581,-2.4136,0.0,0.0,0.0,0.0,0.0,0.0,0.0,0.0,0.0,0.0,0.0,0.0,0.0,0.0,0.0,0.0,0.0,0.0,0.0,0.0,0.0,-1.9767,-2.0014,-2.0652,-2.0812,-2.0767,-2.0537,0.0,0.0,0.0,0.0,0.0,-2.0356,-2.1226,-2.1255,-2.0366,-2.1652,-2.2453,-2.2878,-2.3524,-2.3669,-2.3258,-2.2067,-2.1589,-2.1589,0.0,0.0,0.0,0.0,0.0,0.0,0.0,0.0,0.0,0.0,0.0,0.0,0.0,0.0,0.0,0.0,0.0,0.0,0.0,0.0,0.0,0.0,0.0,0.0,0.0,0.0,0.0,0.0,0.0,0.0,0.0,0.0,0.0,0.0,0.0,0.0,0.0,0.0,0.0,0.0,0.0,-2.3494,-2.3494,0.0,0.0,0.0,0.0,0.0,0.0,0.0,0.0,0.0,0.0,0.0,0.0,0.0,-2.8359,-2.9156,-3.055,-3.1003,-3.0532,-3.122,-3.107,-3.016,-3.0053,-3.0176,-3.0339,-2.882,0.0,-2.4569,-2.4279,0.0,0.0,0.0,0.0,0.0,0.0,0.0,0.0,0.0,0.0,0.0,0.0,0.0,0.0,0.0,0.0,0.0,0.0,0.0,0.0,0.0,-2.0668,-2.0793,-2.1113,-2.1889,-2.1949,-2.1018,-2.1706,0.0,0.0,0.0,-2.1342,-2.1225,-2.2021,-2.2481,-2.2536,-2.3357,-2.4011,-2.4437,-2.5096,-2.5193,-2.4775,-2.3832,-2.2949,-2.213,-2.1706,0.0,0.0,0.0,0.0,0.0,0.0,0.0,0.0,0.0,0.0,0.0,0.0,0.0,0.0,0.0,0.0,0.0,0.0,0.0,0.0,0.0,0.0,0.0,0.0,0.0,0.0,0.0,0.0,0.0,0.0,0.0,0.0,0.0,0.0,0.0,0.0,0.0,0.0,0.0,-2.4201,-2.448,-2.3583,-2.4284,-2.4462,0.0,0.0,0.0,0.0,0.0,0.0,0.0,0.0,0.0,-2.9536,-3.026,-3.1238,-3.2488,-3.2919,-3.3436,-3.3992,-3.4015,-3.4005,-3.3882,-3.2614,-3.2159,-3.2232,-3.0173,-2.8338,-2.6757,-2.5482,-2.4803,-2.4433,0.0,0.0,0.0,0.0,-2.3721,-2.4329,0.0,0.0,0.0,0.0,0.0,0.0,0.0,0.0,0.0,0.0,0.0,0.0,-2.1536,-2.1673,-2.1849,-2.2088,-2.3093,-2.3209,-2.2093,-2.2815,-2.2758,-2.1534,-2.1926,-2.2146,-2.2098,-2.289,-2.371,-2.4533,-2.5098,-2.5695,-2.632,-2.6852,-2.6908,-2.6553,-2.5852,-2.4664,-2.3129,-2.2228,-2.1882,-2.1882,0.0,0.0,0.0,0.0,0.0,0.0,0.0,0.0,0.0,0.0,0.0,0.0,0.0,0.0,0.0,0.0,0.0,0.0,0.0,0.0,0.0,0.0,0.0,0.0,0.0,0.0,0.0,0.0,0.0,0.0,0.0,0.0,0.0,0.0,0.0,0.0,0.0,-2.514,-2.5533,-2.3998,-2.5354,-2.5747,0.0,0.0,0.0,0.0,0.0,0.0,-2.9358,-3.0396,-3.1542,-3.2901,-3.3352,-3.4155,-3.5424,-3.5314,-3.5846,-3.6998,-3.6601,-3.6596,-3.683,-3.514,-3.4231,-3.3914,-3.1819,-3.0488,-2.9661,-2.7238,-2.6023,-2.5557,-2.4488,-2.4259,-2.448,-2.3981,-2.452,-2.5344,0.0,0.0,0.0,0.0,0.0,0.0,0.0,0.0,0.0,0.0,0.0,-2.1674,-2.2452,-2.298,-2.3642,-2.4541,-2.468,-2.4761,-2.4806,-2.4147,-2.3685,-2.357,-2.3518,-2.3417,-2.3236,-2.3996,-2.4832,-2.5722,-2.676,-2.7797,-2.8849,-2.9113,-2.9041,-2.8637,-2.7932,-2.6531,-2.4601,-2.3145,-2.2604,-2.2666,-2.1899,0.0,0.0,0.0,0.0,0.0,0.0,0.0,0.0,0.0,0.0,0.0,0.0,0.0,0.0,0.0,0.0,0.0,0.0,0.0,0.0,0.0,0.0,0.0,0.0,0.0,0.0,0.0,0.0,0.0,0.0,0.0,0.0,0.0,0.0,0.0,0.0,0.0,0.0,-2.4819,-2.6693,0.0,0.0,0.0,0.0,-2.8111,-3.0404,-3.1823,-3.1913,-3.3472,-3.4546,-3.4939,-3.6417,-3.737,-3.7755,-3.845,-3.8894,-3.8982,-3.8923,-3.8363,-3.7335,-3.7232,-3.6568,-3.5447,-3.4737,-3.3998,-3.2995,-2.9416,-2.7141,-2.5874,-2.588,-2.548,-2.4964,-2.5695,-2.5988,-2.6143,0.0,0.0,0.0,0.0,0.0,0.0,0.0,0.0,-2.3563,-2.3382,-2.3119,-2.3231,-2.3988,-2.4063,-2.4474,-2.5535,-2.5518,-2.5326,-2.5027,-2.4219,-2.3718,-2.3629,-2.3084,-2.3213,-2.4177,-2.4942,-2.593,-2.7156,-2.8708,-2.9798,-3.0421,-3.1191,-3.1364,-3.1099,-3.0277,-2.9528,-2.8641,-2.5383,-2.3506,-2.2637,-2.247,-2.2092,0.0,0.0,0.0,0.0,0.0,0.0,0.0,0.0,0.0,0.0,0.0,0.0,0.0,0.0,0.0,0.0,0.0,0.0,0.0,0.0,0.0,0.0,0.0,0.0,0.0,0.0,0.0,0.0,0.0,0.0,0.0,0.0,0.0,0.0,0.0,0.0,0.0,-2.9208,-3.1278,0.0,-3.0259,-3.0872,-3.1642,-3.2223,-3.3647,-3.4938,-3.5969,-3.6766,-3.7685,-3.8859,-3.9173,-3.9581,-4.0192,-4.0182,-4.0203,-4.0203,-3.9898,-3.9286,-3.8427,-3.7456,-3.6559,-3.5644,-3.4482,-3.3911,-3.3624,-3.1833,-3.0242,-2.8733,-2.7373,-2.6974,-2.7198,-2.7489,-2.7885,-2.8265,0.0,0.0,0.0,0.0,0.0,0.0,0.0,0.0,-2.417,-2.4074,-2.407,-2.4199,-2.4605,-2.4802,-2.5165,-2.5707,-2.563,-2.5344,-2.4887,-2.4064,-2.3567,-2.3585,-2.3163,-2.3573,-2.491,-2.5764,-2.7074,-2.8921,-3.0075,-3.1138,-3.215,-3.2702,-3.2866,-3.2711,-3.239,-3.1952,-3.1361,-2.8543,-2.6241,-2.4357,-2.3457,-2.3128,-2.3046,0.0,0.0,0.0,0.0,0.0,0.0,0.0,0.0,0.0,0.0,0.0,0.0,0.0,0.0,0.0,0.0,0.0,0.0,0.0,0.0,0.0,0.0,0.0,0.0,0.0,0.0,0.0,0.0,0.0,0.0,0.0,0.0,0.0,0.0,-2.9889,-3.1696,-3.2178,-3.446,-3.5327,-3.3651,-3.4089,-3.4769,-3.5388,-3.6575,-3.7703,-3.8777,-3.9221,-3.9864,-4.0803,-4.0552,-4.0572,-4.103,-4.0707,-4.058,-4.058,-4.0016,-3.9326,-3.8582,-3.7347,-3.6412,-3.5677,-3.4677,-3.4338,-3.4438,-3.3744,-3.2723,-3.1391,-2.9282,-2.8575,-2.8799,-2.9075,-2.9489,-2.9868,0.0,0.0,0.0,0.0,0.0,0.0,0.0,-2.419,-2.4094,-2.3855,-2.4262,-2.4477,-2.4174,-2.5253,-2.5738,-2.5172,-2.504,-2.4888,-2.4597,-2.3768,-2.3365,-2.3562,-2.3982,-2.462,-2.5454,-2.6488,-2.8302,-3.0942,-3.0835,-3.1909,-3.3996,-3.3604,-3.3448,-3.3498,-3.4218,-3.3824,-3.2557,-3.2495,-3.0855,-2.7994,-2.5116,-2.484,-2.5938,0.0,0.0,0.0,0.0,0.0,0.0,0.0,0.0,0.0,0.0,0.0,0.0,0.0,0.0,0.0,0.0,0.0,0.0,0.0,0.0,0.0,0.0,0.0,0.0,0.0,0.0,0.0,0.0,0.0,0.0,0.0,0.0,0.0,-2.9333,-3.1846,-3.3581,-3.3544,-3.5987,-3.6827,-3.4607,-3.6167,-3.7347,-3.7408,-3.9076,-4.0123,-4.0123,-4.0715,-4.0886,-4.059,-4.0525,-4.0366,-4.0087,-4.0054,-4.0054,-4.007,-3.9343,-3.8616,-3.7872,-3.7127,-3.6349,-3.5622,-3.5622,-3.5622,-3.5571,-3.4975,-3.4312,-3.3573,-3.1554,-3.0282,-2.9696,-3.0506,-3.08,-3.0886,0.0,0.0,0.0,0.0,0.0,0.0,-2.4208,-2.419,-2.4094,-2.3855,-2.4262,-2.469,-2.489,-2.5493,-2.5918,-2.59,-2.5247,-2.4778,-2.4548,-2.3165,-2.26,-2.314,-2.412,-2.553,-2.7382,-2.8699,-3.0219,-3.1922,-3.269,-3.3367,-3.3939,-3.4225,-3.4675,-3.5299,-3.5416,-3.5515,-3.5613,-3.4972,-3.4331,-3.3261,-2.8794,-2.6991,-2.6783,0.0,0.0,0.0,0.0,0.0,0.0,0.0,0.0,0.0,0.0,0.0,0.0,0.0,0.0,0.0,0.0,0.0,0.0,0.0,0.0,0.0,0.0,0.0,0.0,0.0,0.0,0.0,0.0,0.0,0.0,0.0,-2.947,-3.1326,-3.2792,-3.4367,-3.6162,-3.8205,-3.932,-3.9687,-3.9093,-3.9574,-3.994,-4.0053,-4.0542,-4.0819,-4.0819,-4.0187,-3.98,-3.9787,-3.8959,-3.8783,-3.9292,-3.9292,-3.9546,-4.007,-3.9343,-3.8616,-3.7872,-3.7127,-3.6349,-3.5622,-3.5622,-3.5711,-3.5837,-3.5147,-3.4829,-3.4616,-3.2874,-3.2104,-3.2059,-3.2869,-3.3162,-3.3024,0.0,0.0,0.0,0.0,0.0,0.0,-2.419,-2.419,-2.4074,-2.3692,-2.4461,-2.4916,-2.4576,-2.5352,-2.5654,-2.5077,-2.4643,-2.4227,-2.3847,-2.3256,-2.3125,-2.3574,-2.5141,-2.6925,-2.8902,-3.0176,-3.1537,-3.3001,-3.3868,-3.4416,-3.4622,-3.5365,-3.6009,-3.6473,-3.6687,-3.705,-3.743,-3.6898,-3.6547,-3.6048,-3.2488,-3.0816,-3.0212,-2.7827,-2.7054,-2.7046,-2.5053,-2.4289,-2.4074,-2.309,0.0,0.0,0.0,0.0,0.0,0.0,0.0,0.0,0.0,0.0,0.0,0.0,0.0,0.0,0.0,0.0,0.0,0.0,0.0,0.0,0.0,0.0,0.0,0.0,-3.2613,-3.4801,-3.6928,-3.7261,-3.8134,-4.0417,-4.1009,-4.1177,-4.0938,-4.0733,-4.0655,-4.078,-4.0559,-4.0431,-4.0431,-3.944,-3.8969,-3.9132,-3.8212,-3.8098,-3.8988,-3.8684,-3.8903,-3.9614,-3.8565,-3.7838,-3.7398,-3.6654,-3.6045,-3.5622,-3.5622,-3.5711,-3.5854,-3.5428,-3.5198,-3.4977,0.0,0.0,0.0,0.0,-3.3197,-3.2576,0.0,0.0,0.0,0.0,0.0,0.0,-2.419,-2.419,-2.4016,-2.3459,-2.467,-2.5068,-2.3744,-2.4889,-2.5149,-2.3541,-2.3608,-2.3512,-2.2998,-2.3763,-2.4389,-2.4749,-2.6792,-2.8662,-3.0268,-3.1307,-3.2602,-3.4201,-3.4655,-3.5186,-3.5725,-3.6687,-3.7152,-3.7268,-3.7914,-3.8261,-3.8328,-3.8206,-3.7855,-3.7203,-3.5856,-3.5112,-3.4444,-3.0974,-3.0048,-3.0164,-2.7503,-2.5675,-2.4455,-2.3701,0.0,0.0,0.0,0.0,0.0,0.0,0.0,0.0,0.0,0.0,0.0,0.0,0.0,0.0,0.0,0.0,0.0,0.0,0.0,0.0,0.0,0.0,0.0,0.0,-3.6107,-3.8351,-4.0877,-4.0121,-3.9767,-4.0949,-4.1494,-4.1484,-4.0802,-4.0334,-4.012,-4.0269,-3.9764,-3.9484,-3.9501,-3.8718,0.0,0.0,0.0,-3.793,-3.8734,-3.8193,-3.8227,-3.8853,-3.7449,-3.6772,-3.6755,-3.5977,-3.5622,-3.5622,-3.5622,-3.5711,-3.5817,-3.5817,-3.5583,-3.5108,-3.445,-3.4214,-3.4111,-3.3335,-3.2248,-3.1265,0.0,0.0,0.0,0.0,0.0,0.0,-2.419,-2.419,-2.4016,-2.3459,-2.4207,-2.4519,-2.3749,-2.4423,-2.4552,-2.3549,-2.3422,-2.3367,-2.3323,-2.3964,-2.5164,-2.6995,-2.8352,-3.0068,-3.2131,-3.3307,-3.4397,-3.5301,-3.6007,-3.6383,-3.6479,-3.6884,-3.7433,-3.7996,-3.8146,-3.8526,-3.9056,-3.8504,-3.8212,-3.8012,-3.7383,-3.5999,-3.4217,-3.218,-3.1589,-3.1557,-2.9326,-2.8873,-2.8974,-2.6876,-2.6168,-2.5874,-2.4199,-2.2886,0.0,0.0,0.0,0.0,0.0,0.0,0.0,0.0,0.0,0.0,0.0,0.0,0.0,0.0,0.0,0.0,0.0,0.0,0.0,-3.6059,-3.8242,-4.0354,-4.1969,-4.2009,-4.1643,-4.1133,-4.0855,-4.0428,-3.9659,-3.9504,-3.9468,-3.952,-3.9415,-3.9395,-3.9501,-3.8252,-3.7619,-3.7866,-3.7175,-3.6966,-3.7195,-3.7669,-3.7973,-3.8108,-3.7212,0.0,-3.6755,-3.5977,-3.5622,-3.5622,-3.5711,-3.5861,-3.5975,-3.6079,-3.6105,-3.5966,-3.5266,-3.4973,-3.4887,-3.4128,-3.4059,-3.4162,0.0,0.0,0.0,0.0,0.0,0.0,-2.419,-2.419,-2.4054,-2.3649,-2.4266,-2.4427,-2.3595,-2.4039,-2.4074,-2.3261,-2.3089,-2.3159,-2.3528,-2.4808,-2.6303,-2.8045,-3.0002,-3.1901,-3.3756,-3.4739,-3.5564,-3.6237,-3.7028,-3.739,-3.7354,-3.7909,-3.8394,-3.8742,-3.8742,-3.8764,-3.8772,-3.8463,-3.7937,-3.7354,-3.7191,-3.6341,-3.5078,-3.4542,-3.4202,-3.3787,-3.1766,-3.0775,-3.0109,-2.8279,-2.7056,-2.618,-2.5133,-2.3887,-2.2655,0.0,0.0,0.0,0.0,0.0,0.0,0.0,0.0,0.0,0.0,0.0,0.0,0.0,0.0,-3.0718,-3.2225,0.0,-3.7017,-3.8834,-4.0426,-4.1839,-4.2916,-4.3065,-4.2709,-4.1916,-4.1594,-4.116,-4.0415,-4.0034,-3.9835,-3.9835,-3.9594,-3.9379,-3.9379,-3.8153,-3.7452,-3.7501,-3.6572,-3.6262,-3.6679,-3.6709,-3.6958,-3.733,-3.6569,-3.6197,-3.618,-3.5791,-3.5622,-3.5622,-3.5728,-3.5861,-3.5905,-3.614,-3.6474,-3.6818,-3.6042,-3.5525,-3.5145,-3.4783,-3.4387,-3.399,0.0,0.0,0.0,0.0,0.0,0.0,0.0,-2.419,-2.4094,-2.3855,-2.4317,-2.4334,-2.3417,-2.3661,-2.3589,-2.2859,-2.2694,-2.3024,-2.3996,-2.5825,-2.7547,-2.9115,-3.1739,-3.3786,-3.5129,-3.5976,-3.6621,-3.7112,-3.7942,-3.8305,-3.8216,-3.8954,-3.9272,-3.9272,-3.9148,-3.8843,-3.8294,-3.8051,-3.7413,-3.6492,-3.6554,-3.6383,-3.6087,-3.6393,-3.6243,-3.5494,-3.3568,-3.1712,-2.9974,-2.8655,-2.7103,-2.5703,-2.5564,-2.4671,-2.3563,-2.2886,-2.2009,0.0,0.0,0.0,0.0,0.0,0.0,0.0,0.0,-2.6969,-2.8162,-2.9729,-3.1639,-3.3697,-3.5822,-3.7412,-3.9112,-4.1269,-4.2253,-4.2949,-4.3545,-4.3495,-4.3197,-4.2585,-4.2386,-4.2021,-4.1293,-4.058,-4.0233,-4.0365,-3.9943,-3.9531,-3.9126,-3.8186,-3.7585,-3.7369,-3.6458,-3.6131,-3.6616,-3.6253,-3.6231,-3.6552,-3.591,-3.5622,-3.5622,-3.5622,-3.5622,-3.5622,-3.5728,-3.5902,-3.6127,-3.6191,-3.6612,-3.718,-3.6542,-3.5939,-3.5387,-3.5249,-3.449,-3.3628,0.0,0.0,0.0,0.0,0.0,0.0,0.0,0.0,-2.4094,-2.3855,-2.3868,-2.3801,-2.3432,-2.3234,-2.2955,-2.2487,-2.2377,-2.319,-2.5173,-2.6673,-2.8716,-3.1491,-3.3684,-3.5238,-3.6022,-3.72,-3.7788,-3.787,-3.8562,-3.8908,-3.8908,-3.9169,-3.9272,-3.9272,-3.8662,-3.8351,-3.8222,-3.731,-3.6784,-3.6616,-3.6383,-3.6196,-3.6134,-3.5783,-3.5505,-3.4987,-3.2997,-3.1365,-2.9929,-2.8132,-2.7349,-2.7057,-2.6457,-2.5718,-2.4964,-2.4271,-2.2748,-2.1553,-2.2655,-2.3165,-2.4069,-2.6889,-2.6924,-2.7451,0.0,-3.2676,-3.2773,-3.4182,-3.5671,-3.7037,-3.8226,-3.964,-4.1033,-4.2196,-4.3015,-4.3529,-4.3611,-4.3065,-4.2618,-4.2535,-4.1939,-4.1259,-4.0564,-3.9835,-3.9669,-4.0332,-4.0354,-3.9794,-3.8585,-3.8352,-3.8121,-3.7664,-3.7528,-3.7222,-3.6789,-3.7364,-3.7009,-3.574,-3.5656,-3.5622,-3.5622,-3.5622,-3.5622,-3.5622,-3.5728,-3.6297,-3.7082,-3.6457,-3.6302,-3.6422,-3.6335,-3.6249,-3.6094,-3.5439,-3.5508,-3.5835,0.0,0.0,0.0,0.0,0.0,0.0,0.0,0.0,0.0,-2.4096,-2.4057,-2.3999,-2.3881,-2.3477,-2.3042,-2.2552,-2.2487,-2.3414,-2.5601,-2.7384,-2.9669,-3.2689,-3.4784,-3.6367,-3.7453,-3.7983,-3.8446,-3.8877,-3.9176,-3.9309,-3.9309,-3.9379,-3.9379,-3.9272,-3.8733,-3.8254,-3.7854,-3.7555,-3.6971,-3.6304,-3.6624,-3.6547,-3.6043,-3.477,-3.371,-3.2808,-3.1597,-2.9802,0.0,-2.6565,-2.6195,-2.6072,-2.5395,-2.4964,-2.4518,-2.3456,-2.2809,-2.2732,-2.3943,-2.5586,-2.7173,-2.8281,-3.0064,-3.195,-3.3728,-3.4845,-3.5833,-3.6837,-3.8521,-3.9998,-4.0598,-4.154,-4.2446,-4.3056,-4.3429,-4.3479,-4.3048,-4.2336,-4.1574,-4.0729,-4.0001,-3.9934,-4.0895,-4.0332,-4.005,-4.0365,-4.0093,-3.9395,-3.8349,-3.8334,-3.8103,-3.7501,-3.7533,-3.7278,-3.6679,-3.7094,-3.6705,-3.5622,-3.5622,-3.5622,-3.5622,-3.5622,-3.5622,-3.5728,-3.5773,-3.6137,-3.6629,-3.6303,-3.6526,-3.6939,-3.6473,-3.6577,-3.6887,-3.6128,-3.6042,-3.6266,0.0,0.0,0.0,0.0,0.0,0.0,0.0,0.0,0.0,0.0,-2.4266,-2.4173,-2.402,-2.3635,-2.3177,-2.2659,-2.2605,-2.3425,-2.5436,-2.7318,-2.9722,-3.2703,-3.4953,-3.6812,-3.8154,-3.8537,-3.8968,-3.9501,-3.9501,-3.9501,-3.9501,-3.9537,-3.9432,-3.9148,-3.8623,-3.8026,-3.7401,-3.742,-3.6892,-3.6115,-3.6547,-3.609,-3.4941,-3.3218,-3.1274,-2.9427,-2.9319,-2.7673,-2.5426,-2.4718,-2.4487,-2.4425,-2.4133,-2.4025,-2.3917,-2.3302,-2.3609,-2.4338,-2.5271,-2.7332,-2.9462,-3.0306,-3.2999,-3.5509,-3.5574,-3.7096,-3.8586,-3.891,-4.0367,-4.1573,-4.1498,-4.2048,-4.2643,-4.2956,-4.3181,-4.3131,-4.2601,-4.1723,-4.0663,-3.9421,-3.846,-3.8526,-4.0067,-3.9769,-3.9653,-4.005,-3.9694,-3.901,-3.7949,-3.8361,-3.8233,-3.7418,-3.7669,-3.7633,-3.7287,-3.7148,-3.6705,-3.5943,-3.5723,-3.5622,-3.5622,-3.5622,-3.5785,-3.6078,-3.5858,-3.6024,-3.6431,-3.6268,-3.6578,-3.7094,-3.6525,-3.6663,-3.7094,-3.6508,-3.6301,-3.6301,0.0,0.0,0.0,0.0,0.0,0.0,0.0,0.0,0.0,0.0,0.0,0.0,0.0,-2.3437,-2.3177,-2.2659,-2.2605,-2.3202,-2.4654,-2.619,-2.8356,-3.124,-3.41,-3.6308,-3.7696,-3.889,-3.9484,-3.9501,-3.9501,-3.9501,-3.9501,-3.9625,-3.9398,-3.8805,-3.8124,-3.7472,-3.689,-3.6461,-3.6226,-3.615,-3.5723,-3.4321,-3.2367,-3.1028,-2.8011,-2.4687,-2.5995,-2.5133,-2.3286,-2.2609,-2.2378,-2.2486,-2.3132,-2.3332,-2.3579,-2.4856,-2.5733,-2.6377,-2.6654,-2.7926,-3.0101,-3.3793,-3.5497,-3.6805,-3.8845,-4.0415,-4.1241,-4.0577,-4.1047,-4.1265,-4.0173,-4.0557,-4.1165,-4.1418,-4.2088,-4.2551,-4.2518,-4.1309,-4.0133,-3.9371,-3.8013,-3.7168,-3.7235,-3.7218,-3.7781,-3.9206,-3.9342,-3.871,-3.729,-3.8558,-3.8768,-3.7642,-3.8216,-3.8706,-3.892,-3.8227,-3.7499,-3.6738,-3.5977,-3.5622,-3.5622,-3.5622,-3.6028,-3.6751,-3.6095,-3.627,-3.7035,-3.6431,-3.6251,-3.6335,-3.6301,-3.6318,-3.6335,-3.6301,-3.6301,-3.6301,0.0,0.0,0.0,0.0,0.0,0.0,0.0,0.0,0.0,0.0,0.0,0.0,0.0,0.0,0.0,0.0,-2.2659,-2.3313,-2.4815,-2.5754,-2.7399,-2.9841,-3.2304,-3.4236,-3.547,-3.6922,-3.7834,-3.8288,-3.8288,-3.8288,-3.8304,-3.8841,-3.8974,-3.8664,-3.8228,-3.7911,-3.7653,-3.7235,-3.6568,-3.5646,-3.4568,-3.3152,-3.1382,-2.8227,-2.5903,-2.4194,0.0,-2.2255,-2.1291,-2.106,-2.1275,-2.1578,-2.1399,-2.1593,-2.2317,-2.4117,-2.5613,-2.7123,-2.9171,-3.1625,-3.413,-3.6029,-3.8157,-3.9994,-4.0707,-4.1225,-4.1371,-4.0642,-3.9557,-3.8513,-3.7775,-3.7916,-3.8553,-3.9671,-4.0938,-4.1789,-4.1789,-4.0959,-3.9748,-3.8044,-3.699,-3.6198,-3.5678,-3.6539,-3.7317,-3.7798,-3.7875,-3.7703,-3.7296,-3.8224,-3.8644,-3.8403,-3.9092,-3.9295,-3.9005,-3.8751,-3.8261,-3.7516,-3.6755,-3.64,-3.64,-3.64,-3.6806,-3.7516,-3.7352,-3.7189,-3.7103,-3.6997,-3.6698,-3.6301,-3.6301,-3.6301,-3.6301,-3.6301,-3.6301,-3.6387,0.0,0.0,0.0,0.0,0.0,0.0,0.0,0.0,0.0,0.0,0.0,0.0,0.0,0.0,0.0,0.0,0.0,-2.3126,-2.4126,-2.478,-2.6025,-2.7997,-2.9999,-3.1606,-3.2899,-3.409,-3.4925,-3.5323,-3.5323,-3.5323,-3.534,-3.6127,-3.6212,-3.5794,-3.5877,-3.5668,-3.5316,-3.4798,-3.4106,-3.3198,-3.1813,-3.0289,-2.855,-2.5687,-2.3871,0.0,-2.1393,-2.0674,-2.0304,-2.0304,-2.0597,-2.0921,-2.072,-2.1593,-2.3064,-2.4689,-2.6673,-2.8967,-3.2053,-3.4537,-3.6692,-3.84,-4.0221,-4.1565,-4.1565,-4.1371,-4.0772,-3.9298,-3.7695,-3.6145,-3.4821,-3.4922,-3.5661,-3.7312,-3.8656,-3.9726,-4.0524,-4.0058,-3.9103,-3.7662,-3.6831,-3.6076,-3.5415,-3.5983,-3.6424,-3.6401,-3.6707,-3.6938,-3.7019,-3.7773,-3.829,-3.8493,-3.9027,-3.9096,-3.877,-3.8673,-3.8403,-3.7905,-3.7415,-3.7178,-3.7178,-3.7178,-3.7449,-3.7905,-3.798,-3.7648,-3.712,-3.7227,-3.6895,-3.6335,-3.6611,-3.6715,-3.6749,-3.7025,-3.7111,-3.7111,0.0,0.0,0.0,0.0,0.0,0.0,0.0,0.0,0.0,0.0,0.0,0.0,0.0,0.0,0.0,0.0,0.0,0.0,-2.2712,-2.3367,-2.4345,-2.5699,-2.7208,-2.8699,-3.0043,-3.0671,-3.0977,-3.101,-3.0948,-3.0908,-3.0925,-3.1753,-3.1641,-3.0781,-3.1477,-3.1245,-3.0274,-2.9627,-2.9335,-2.9196,-2.7796,-2.6041,-2.4179,-2.3425,-2.1947,-2.0304,-2.0304,-2.0304,-2.0304,-2.035,-2.0412,-2.0582,-2.126,-2.3271,-2.5608,-2.6654,-2.8936,-3.188,-3.515,-3.6589,-3.7955,-4.0934,-4.1598,-4.1549,-4.1484,-4.0853,-3.9493,-3.6707,-3.5445,-3.407,-3.1404,-3.1622,-3.2758,-3.4411,-3.5464,-3.6847,-3.8998,-3.8766,-3.8339,-3.8206,-3.7576,-3.6899,-3.6174,-3.553,-3.5173,-3.5062,-3.5761,-3.6311,-3.6612,-3.7208,-3.769,-3.8003,-3.8067,-3.8214,-3.8334,-3.8229,-3.807,-3.786,-3.7908,-3.7908,-3.7908,-3.7956,-3.799,-3.8024,-3.8099,-3.7767,-3.724,-3.7374,-3.7016,-3.649,-3.7249,-3.7542,-3.7629,-3.8336,-3.8594,-3.8387,0.0,0.0,0.0,0.0,0.0,0.0,0.0,0.0,0.0,0.0,0.0,0.0,0.0,0.0,0.0,0.0,0.0,0.0,-2.2995,-2.317,-2.3397,-2.3648,-2.5155,-2.6299,-2.7006,-2.8288,-2.9174,-2.968,-2.9624,-2.957,-2.9587,-3.0085,-3.0142,-2.9914,-2.996,-2.9828,-2.9564,-2.8914,-2.8365,-2.775,-2.5857,-2.4471,-2.3363,-2.1686,-2.0767,-2.0304,-2.0304,-2.0304,-2.0381,-2.089,-2.1701,-2.264,-2.3317,-2.5072,-2.7134,-2.8686,-3.1612,-3.4777,-3.6878,-3.8888,-4.0728,-4.2035,-4.197,-4.1306,-4.0254,-3.8634,-3.6707,-3.4392,-3.2044,-3.0036,-2.8799,-2.9342,-3.0724,-3.2805,-3.5218,-3.739,-3.91,-4.0084,-4.0046,-3.8412,-3.812,-3.7575,-3.631,-3.5608,-3.5081,-3.454,-3.4705,-3.5357,-3.6605,-3.6916,-3.7413,-3.8206,-3.8222,-3.8463,-3.8974,-3.8954,-3.8385,-3.7359,-3.7831,-3.8052,-3.8052,-3.8487,-3.9005,-3.9529,-3.9661,-3.9399,-3.8811,-3.8917,-3.8562,-3.8025,-3.8232,-3.8301,-3.8336,-3.8525,-3.8594,-3.8525,0.0,0.0,0.0,0.0,0.0,0.0,0.0,0.0,0.0,0.0,0.0,0.0,0.0,0.0,0.0,0.0,0.0,0.0,0.0,-2.3095,-2.3045,-2.2919,-2.3728,-2.4289,-2.4476,-2.5287,-2.5925,-2.6322,-2.6226,-2.6194,-2.6211,-2.6536,-2.6607,-2.6442,-2.6471,-2.6382,-2.6215,-2.5551,-2.5056,0.0,0.0,-2.2317,-2.184,-2.0736,-2.0304,-2.0304,-2.0304,-2.0875,-2.1747,-2.2717,-2.3563,-2.441,-2.5703,-2.7612,-2.9788,-3.1746,-3.4365,-3.7045,-3.9065,-4.0748,-4.2067,-4.2148,-4.1403,-4.0205,-3.8472,-3.6432,-3.4198,-3.1704,-2.9664,-2.7996,-2.6976,-2.7336,-2.8502,-3.0829,-3.2964,-3.5086,-3.7293,-3.9059,-3.9559,-3.8036,-3.8446,-3.8324,-3.6987,-3.6226,-3.5791,-3.5811,-3.5474,-3.5554,-3.618,-3.6691,-3.7218,-3.778,-3.7605,-3.7796,-3.8407,-3.8423,-3.8284,-3.8095,-3.8418,-3.8733,-3.9008,-3.9345,-3.9581,-3.9747,-4.0138,-3.9814,-3.9003,-3.9371,-3.9129,-3.8629,-3.8957,-3.9077,-3.9112,-3.9474,-3.9595,-3.9595,0.0,0.0,0.0,0.0,0.0,0.0,0.0,0.0,0.0,0.0,0.0,0.0,0.0,0.0,0.0,0.0,0.0,0.0,0.0,0.0,-2.3095,-2.2927,-2.2944,-2.2868,-2.2712,-2.2632,-2.2605,-2.2605,-2.2542,-2.2515,-2.2532,-2.2714,-2.2646,-2.2281,-2.2489,-2.2399,-2.2015,-2.143,-2.1183,-2.1137,-2.0535,-2.0304,-2.0304,0.0,-2.0304,-2.0304,-2.0304,-2.1409,-2.3163,-2.4887,-2.5641,-2.6241,-2.8444,-3.0654,-3.2933,-3.5245,-3.71,-3.8894,-4.1003,-4.2083,-4.2456,-4.1743,-4.0367,-3.8634,-3.6497,-3.4198,-3.1753,-2.9065,-2.7931,-2.7057,-2.5843,-2.5777,-2.673,-2.9045,-3.0161,-3.1874,-3.4983,-3.7054,-3.8046,-3.7604,-3.8497,-3.8748,-3.7636,-3.6869,-3.6648,-3.7338,-3.688,-3.6375,-3.5952,-3.6651,-3.7131,-3.7167,-3.6894,-3.6924,-3.7298,-3.7358,-3.7911,-3.8974,-3.9028,-3.9418,-3.9969,-4.007,-3.9747,-3.9259,-3.9918,-3.9648,-3.8673,-3.9333,-3.9336,-3.8957,-3.9595,-3.9853,-3.9939,-4.0629,-4.0888,-4.0888,0.0,0.0,0.0,0.0,0.0,0.0,0.0,0.0,0.0,0.0,-2.4301,-2.4039,0.0,0.0,0.0,0.0,0.0,0.0,0.0,0.0,0.0,-2.3095,-2.307,-2.2944,-2.2712,-2.2685,-2.2685,-2.2685,-2.2623,-2.2579,-2.2569,-2.2057,-2.181,-2.1718,-2.1163,-2.0871,-2.0802,-2.0555,-2.0474,-2.0474,-2.035,-2.0304,-2.0304,-2.0304,0.0,0.0,-2.0304,-2.0535,-2.1383,-2.4979,-2.7319,-2.9215,-3.2126,-3.4091,-3.5692,-3.7775,-3.9406,-4.0713,-4.1407,-4.2083,-4.2456,-4.1743,-3.9606,-3.7128,-3.4975,-3.1915,-2.9065,-2.7397,-2.649,-2.5907,-2.5664,-2.5954,-2.694,-2.9154,-3.0452,-3.2353,-3.5753,-3.7049,-3.7778,-3.8154,-3.8118,-3.7683,-3.6831,-3.6209,-3.5864,-3.5899,-3.6355,-3.6929,-3.7578,-3.777,-3.772,-3.745,-3.7857,-3.7653,-3.6677,-3.7118,-3.7535,-3.7695,-3.8238,-3.8794,-3.9365,-3.985,-3.9747,-3.9206,-3.9729,-3.9749,-3.9478,-3.9968,-4.0309,-4.0491,-4.0629,-4.0681,-4.0698,-4.0836,-4.0888,-4.0888,0.0,0.0,0.0,0.0,0.0,0.0,0.0,-2.3657,-2.3761,-2.446,-2.4337,-2.4135,-2.3937,-2.3873,-2.3807,0.0,0.0,0.0,0.0,0.0,0.0,0.0,-2.3095,-2.2952,-2.2712,-2.2712,-2.2712,-2.2712,0.0,-2.2659,-2.2632,-2.1998,-2.1705,-2.1675,-2.0861,-2.0494,-2.0494,-2.0373,-2.0304,-2.0304,-2.0304,-2.0304,-2.0304,-2.0304,0.0,0.0,-2.0304,-2.0767,-2.1769,-2.441,-2.6747,-2.9193,-3.3209,-3.5535,-3.7077,-3.8966,-4.0103,-4.0978,-4.186,-4.2375,-4.2278,-4.0853,-3.8327,-3.5542,-3.3016,-2.9988,-2.7397,-2.6361,-2.5859,-2.5616,-2.5616,-2.5875,-2.6607,-2.8052,-2.8982,-3.0627,-3.369,-3.522,-3.623,-3.6847,-3.7389,-3.7384,-3.6808,-3.6366,-3.633,-3.6773,-3.7375,-3.7654,-3.7343,-3.7527,-3.7418,-3.6999,-3.7266,-3.7111,-3.6492,-3.7134,-3.7578,-3.7911,-3.8463,-3.9082,-3.9696,-3.9816,-3.9556,-3.9007,-3.9713,-3.9747,-3.9454,-4.0254,-4.0745,-4.0888,-4.0888,-4.1112,-4.1457,-4.1457,-4.1716,-4.2127,0.0,0.0,0.0,0.0,0.0,0.0,0.0,-2.3498,-2.3671,-2.4479,-2.4425,-2.4248,-2.4095,-2.4016,-2.3894,0.0,0.0,0.0,0.0,0.0,0.0,0.0,0.0,0.0,-2.2668,0.0,0.0,-2.2632,-2.2632,0.0,0.0,0.0,0.0,0.0,-2.1055,-2.0679,-2.0679,-2.0426,-2.0339,0.0,0.0,-2.0304,-2.0304,0.0,0.0,0.0,0.0,-2.0998,-2.2086,-2.3594,-2.5369,-2.7735,-3.2023,-3.4974,-3.7107,-3.8674,-3.9774,-4.0772,-4.2051,-4.2407,-4.1938,-3.9962,-3.708,-3.4068,-3.151,-2.8611,-2.6312,-2.5729,-2.5616,-2.5616,-2.5637,-2.5696,-2.6021,-2.6936,-2.7419,-2.8699,-3.1662,-3.3107,-3.4372,-3.5605,-3.66,-3.7046,-3.6732,-3.6698,-3.6925,-3.7537,-3.8243,-3.822,-3.7283,-3.7364,-3.7256,-3.6722,-3.6707,-3.6645,-3.6492,-3.7134,-3.7679,-3.8294,-3.8794,-3.9295,-3.9918,-3.9609,-3.9268,-3.8835,-3.9606,-3.9728,-3.9458,-4.0372,-4.0823,-4.0905,-4.1043,-4.1474,-4.2009,-4.2181,-4.2526,-4.2973,0.0,0.0,0.0,0.0,0.0,0.0,0.0,-2.2743,-2.3213,-2.4676,-2.4775,-2.4623,-2.4303,-2.3998,-2.3792,0.0,0.0,0.0,0.0,0.0,0.0,0.0,0.0,0.0,0.0,0.0,0.0,-2.2432,-2.2432,0.0,0.0,0.0,0.0,0.0,0.0,-2.1324,-2.1293,-2.0712,0.0,0.0,0.0,0.0,0.0,0.0,0.0,0.0,0.0,-2.0381,-2.0798,-2.2732,-2.3933,-2.5064,-2.7654,-3.1413,-3.5128,-3.6075,-3.8343,-4.0658,-4.1452,-4.1662,-4.1306,-3.98,-3.6335,-3.287,-3.1283,-2.8181,-2.5697,-2.5632,-2.5616,-2.5637,-2.568,-2.546,-2.5576,-2.6581,-2.6879,-2.8252,-3.1755,-3.1956,-3.2819,-3.5886,-3.6221,-3.6117,-3.5846,-3.6569,-3.6785,-3.6219,-3.7486,-3.8549,-3.894,-3.8606,-3.8108,-3.743,-3.7415,-3.7107,-3.6492,-3.7134,-3.7679,-3.8278,-3.8351,-3.8684,-3.9259,-3.9007,-3.8909,-3.8926,-3.9308,-3.9731,-4.01,-4.029,-4.0583,-4.0957,-4.163,-4.1923,-4.2078,-4.2802,-4.2647,-4.2095,0.0,0.0,0.0,0.0,0.0,0.0,-2.2508,-2.2513,-2.293,-2.4509,-2.451,-2.4321,-2.4134,-2.3998,-2.3896,-2.3831,0.0,0.0,0.0,0.0,0.0,0.0,0.0,0.0,0.0,0.0,-2.247,-2.2405,-2.2231,0.0,0.0,0.0,0.0,0.0,0.0,-2.1386,-2.1355,-2.0893,0.0,0.0,0.0,0.0,0.0,0.0,0.0,0.0,0.0,0.0,-2.0428,-2.1245,-2.2028,-2.2754,-2.3142,-2.5869,-2.9699,-3.3588,-3.6168,-3.8108,-3.9881,-4.061,-4.0383,-3.81,-3.5299,-3.2481,-3.0166,-2.7559,-2.5616,-2.5616,-2.5621,-2.568,-2.5701,-2.568,-2.5707,-2.5863,-2.599,-2.6812,-2.8905,-2.9611,-3.1165,-3.4399,-3.498,-3.5528,-3.6415,-3.6477,-3.6721,-3.7323,-3.7636,-3.8069,-3.8729,-3.858,-3.8015,-3.6923,-3.6892,-3.694,-3.7074,-3.7621,-3.8067,-3.8278,-3.8684,-3.8794,-3.8645,-3.9007,-3.9194,-3.9279,-4.0376,-4.0742,-4.0558,-4.1103,-4.1398,-4.1578,-4.1871,-4.2561,-4.3406,-4.3716,-4.3923,-4.3992,0.0,0.0,0.0,0.0,0.0,-2.0817,-2.2373,-2.2429,-2.2825,-2.4351,-2.4374,-2.4191,-2.4075,-2.4075,-2.4018,-2.3976,-2.3917,0.0,0.0,0.0,0.0,0.0,0.0,0.0,0.0,0.0,-2.2544,-2.2343,-2.2141,-2.2158,0.0,0.0,-2.2203,-2.2377,0.0,0.0,0.0,0.0,0.0,0.0,0.0,0.0,0.0,0.0,0.0,0.0,0.0,0.0,0.0,0.0,0.0,-2.1113,-2.0493,-2.1973,-2.495,-2.9779,-3.2848,-3.5117,-3.7245,-3.8408,-3.8391,-3.6206,-3.3874,-3.1494,-2.9032,-2.6992,-2.5616,-2.5616,-2.5659,-2.5701,-2.577,-2.5897,-2.5864,-2.5491,-2.5589,-2.6128,-2.7406,-2.8379,-3.0005,-3.294,-3.3836,-3.4679,-3.6022,-3.6153,-3.6728,-3.8233,-3.8012,-3.8,-3.8477,-3.8508,-3.7892,-3.6538,-3.6492,-3.6723,-3.7118,-3.7738,-3.801,-3.801,-3.8463,-3.8479,-3.8197,-3.8615,-3.9027,-3.9527,-4.0636,-4.1037,-4.0944,-4.1679,-4.1992,-4.2026,-4.2492,-4.332,-4.4302,-4.4527,-4.4872,-4.5148,0.0,0.0,0.0,0.0,0.0,0.0,-2.2194,-2.2452,-2.2956,-2.4234,-2.4512,-2.4497,-2.4229,-2.4192,-2.4154,-2.4094,-2.3976,0.0,0.0,0.0,0.0,0.0,0.0,0.0,0.0,0.0,-2.259,-2.2192,-2.2192,-2.2124,-2.2027,-2.2276,-2.2405,-2.2405,0.0,0.0,0.0,0.0,0.0,0.0,0.0,0.0,0.0,0.0,0.0,0.0,0.0,0.0,0.0,0.0,0.0,0.0,0.0,-2.0782,-2.1827,-2.4218,-2.8128,-3.208,-3.3542,-3.4597,-3.5056,-3.4311,-3.1996,-2.9562,-2.8045,-2.6636,-2.5616,-2.5616,-2.5659,-2.5717,-2.5889,-2.595,-2.5892,-2.5543,-2.5881,-2.6784,-2.8518,-2.8793,-2.9633,-3.1871,-3.2869,-3.3556,-3.3981,-3.5523,-3.7046,-3.8415,-3.8508,-3.8492,-3.8508,-3.8508,-3.7892,-3.6538,-3.6492,-3.6492,-3.6492,-3.7134,-3.7417,-3.7417,-3.7417,-3.7594,-3.7886,-3.7594,-3.8195,-3.9618,-3.9611,-4.0254,-4.1308,-4.1827,-4.1992,-4.213,-4.3664,-4.4268,-4.4371,-4.513,-4.5079,-4.4739,0.0,0.0,0.0,0.0,0.0,0.0,0.0,-2.1582,-2.1846,-2.2712,-2.2789,-2.2932,-2.3399,-2.2957,-2.305,-2.4079,-2.4054,0.0,0.0,0.0,0.0,0.0,0.0,0.0,0.0,0.0,-2.2695,-2.2192,-2.2068,-2.1928,-2.1797,-2.1886,-2.2003,-2.213,-2.1974,-2.2003,0.0,0.0,0.0,0.0,0.0,0.0,-2.1198,0.0,0.0,0.0,0.0,0.0,0.0,0.0,0.0,0.0,0.0,0.0,0.0,-2.1635,-2.4744,-2.8216,-2.9772,-3.087,-3.1251,-3.0036,-2.8709,-2.7446,-2.649,-2.5535,-2.5021,-2.5545,-2.5749,-2.5856,-2.595,-2.6043,-2.601,-2.5554,-2.6311,-2.6929,-2.6887,-2.8739,-3.0645,-3.2185,-3.4525,-3.5742,-3.5091,-3.6302,-3.7327,-3.7754,-3.8183,-3.8231,-3.7815,-3.7815,-3.7415,-3.6522,-3.6492,-3.6723,-3.7134,-3.7738,-3.7796,-3.7417,-3.8042,-3.8001,-3.7317,-3.8594,-3.9344,-3.9683,-4.1205,-4.1971,-4.2158,-4.2635,-4.3095,-4.3595,-4.4096,-4.4596,-4.5096,-4.5337,-4.5407,-4.5401,0.0,0.0,0.0,0.0,0.0,0.0,0.0,-2.1126,-2.1305,-2.1943,-2.1964,-2.212,-2.2602,-2.2491,-2.2642,-2.329,-2.351,0.0,0.0,0.0,0.0,0.0,0.0,0.0,-2.3494,-2.3295,-2.2993,-2.2493,-2.2248,-2.2027,-2.1768,-2.1738,-2.1797,-2.1882,-2.184,-2.1928,0.0,0.0,0.0,0.0,0.0,0.0,-2.1479,0.0,0.0,0.0,0.0,0.0,0.0,0.0,0.0,0.0,0.0,0.0,0.0,0.0,-2.22,-2.4528,-2.6398,-2.7582,-2.8045,-2.7154,-2.6377,-2.5745,-2.5292,-2.4875,-2.4782,-2.555,-2.584,-2.5967,-2.5987,-2.6096,-2.6079,-2.5811,-2.6401,-2.689,-2.6944,-2.8852,-3.09,-3.2619,-3.4697,-3.5928,-3.5676,-3.6891,-3.7745,-3.7857,-3.8215,-3.8153,-3.7556,-3.7746,-3.7546,-3.6862,-3.6831,-3.7118,-3.7738,-3.8124,-3.8124,-3.7738,-3.8214,-3.8116,-3.7539,-3.8679,-3.9337,-3.9682,-4.1067,-4.1909,0.0,-4.2926,-4.3613,-4.4302,-4.4596,-4.501,-4.5423,-4.5511,-4.5701,-4.5918,0.0,0.0,0.0,0.0,0.0,0.0,0.0,-2.0965,-2.1192,-2.1673,-2.18,-2.1832,-2.1821,-2.2488,-2.2656,-2.1959,0.0,0.0,0.0,0.0,0.0,0.0,0.0,0.0,-2.3625,-2.3607,-2.3407,-2.2993,-2.2704,-2.2313,-2.194,-2.184,-2.1797,-2.1738,-2.1899,-2.2101,-2.2349,-2.2377,-2.2231,-2.1998,-2.1998,-2.1869,0.0,0.0,0.0,0.0,0.0,0.0,0.0,0.0,0.0,0.0,0.0,0.0,0.0,0.0,0.0,0.0,0.0,-2.468,-2.5308,-2.5308,-2.479,-2.4288,-2.4405,-2.4541,0.0,-2.554,-2.5893,-2.6007,-2.602,-2.6129,-2.622,-2.622,-2.6303,-2.6869,-2.8289,-2.9309,-3.0784,-3.309,-3.397,-3.4768,-3.5786,-3.7397,-3.8341,-3.8318,-3.8365,-3.8136,-3.7542,-3.8013,-3.8049,-3.7472,-3.7504,-3.7796,-3.8278,-3.8334,-3.8351,-3.8278,-3.8141,-3.8157,-3.8327,-3.8164,-3.8639,-3.961,-3.9661,-4.0578,-4.213,-4.2871,-4.3647,-4.4423,-4.5079,-4.5372,-4.5459,-4.5631,-4.5935,-4.6284,0.0,0.0,0.0,0.0,0.0,0.0,0.0,0.0,0.0,0.0,-2.0144,-2.04,-2.0997,-2.0682,-2.0834,0.0,0.0,0.0,0.0,0.0,0.0,0.0,0.0,0.0,-2.3761,-2.3652,-2.3394,-2.2989,-2.2908,-2.2695,-2.2275,-2.2068,-2.194,-2.1911,-2.1768,-2.1768,-2.1945,-2.2044,-2.2056,-2.1998,-2.184,-2.184,0.0,0.0,0.0,0.0,-2.1198,-2.0974,0.0,0.0,0.0,0.0,0.0,0.0,0.0,0.0,-2.099,-2.1167,-2.1843,0.0,-2.2329,-2.2329,-2.2199,-2.2345,0.0,-2.3816,-2.4225,-2.5599,-2.593,-2.604,-2.6112,-2.6184,-2.622,-2.622,-2.7147,-2.803,-2.8422,-3.124,-3.3406,-3.3795,-3.5768,-3.6739,-3.5641,-3.7633,-3.86,-3.7698,-3.8035,-3.8035,-3.749,-3.7534,-3.7732,-3.7937,-3.8461,-3.8629,-3.8278,-3.8739,-3.8794,-3.8446,-3.9098,-3.9098,-3.8479,-3.925,-3.9589,-3.9627,-4.0213,-4.1374,-4.2906,-4.3145,-4.3958,-4.5113,-4.4699,-4.5044,-4.5631,-4.5142,-4.5597,-4.6542,0.0,0.0,0.0,0.0,0.0,0.0,0.0,0.0,0.0,0.0,0.0,0.0,0.0,0.0,0.0,0.0,0.0,0.0,0.0,0.0,0.0,0.0,0.0,-2.3807,-2.3804,-2.3739,-2.3549,-2.3283,-2.314,-2.2968,-2.2652,-2.2248,-2.201,-2.1998,-2.1827,-2.1797,-2.184,-2.1911,-2.1998,-2.201,-2.1827,0.0,0.0,0.0,0.0,0.0,-2.1355,-2.1135,0.0,-2.0662,-2.0695,-2.0794,0.0,0.0,0.0,0.0,-2.1103,-2.1135,-2.1246,-2.1568,-2.1811,-2.1811,-2.2054,-2.2605,-2.378,-2.4078,-2.4507,-2.5721,-2.6003,-2.6112,-2.6184,-2.6239,-2.6374,-2.6706,-2.7457,-2.8398,-2.9515,-3.1918,-3.3881,-3.4792,-3.6486,-3.7508,-3.7199,-3.8619,-3.9135,-3.7895,-3.8351,-3.8351,-3.7476,-3.7911,-3.8193,-3.8112,-3.877,-3.897,-3.8639,-3.9304,-3.9523,-3.9348,-3.9713,-3.9661,-3.9242,-3.9473,-3.9711,-3.9935,-4.052,-4.1494,-4.2664,-4.3076,-4.3854,-4.4854,-4.444,-4.4922,-4.5784,-4.5484,-4.5884,-4.6637,0.0,0.0,0.0,0.0,0.0,0.0,0.0,0.0,0.0,0.0,0.0,0.0,0.0,0.0,0.0,0.0,0.0,0.0,0.0,0.0,0.0,0.0,-2.3876,-2.3813,-2.3825,-2.3804,-2.3739,-2.3629,-2.3389,-2.3206,-2.3084,-2.2537,-2.2164,-2.2027,-2.1911,-2.1869,-2.1869,-2.1869,-2.1911,-2.2027,-2.184,0.0,0.0,0.0,0.0,0.0,0.0,0.0,0.0,-2.086,-2.086,-2.086,-2.086,0.0,0.0,0.0,0.0,0.0,-2.1277,-2.1956,-2.2556,-2.2426,-2.2978,-2.3761,-2.4531,-2.4783,-2.505,-2.5839,-2.6112,-2.6203,-2.6203,-2.6341,-2.6678,-2.7348,-2.7805,-2.8904,-3.1183,-3.241,-3.3736,-3.553,-3.6688,-3.7768,-3.8758,-3.9613,-3.9627,-3.8518,-3.892,-3.8707,-3.7594,-3.8482,-3.8695,-3.79,-3.8488,-3.8768,-3.8667,-3.9427,-3.99,-4.0184,-3.9918,-3.9935,-4.0138,-3.9487,-3.9609,-4.0339,-4.0592,-4.1223,-4.2043,-4.2765,-4.3592,-4.4353,-4.4249,-4.492,-4.592,-4.6063,-4.6341,-4.6684,0.0,0.0,0.0,0.0,0.0,0.0,0.0,0.0,0.0,0.0,0.0,0.0,0.0,0.0,0.0,0.0,0.0,0.0,0.0,0.0,0.0,-2.4037,-2.3937,-2.3876,-2.3876,-2.3828,-2.3783,-2.3761,-2.3678,-2.3589,-2.3499,-2.3182,-2.2704,-2.2181,-2.1869,-2.1738,-2.1724,-2.1664,-2.1664,-2.1664,-2.1634,0.0,0.0,0.0,0.0,0.0,0.0,0.0,0.0,-2.1167,-2.1167,-2.1183,-2.1103,0.0,0.0,0.0,0.0,0.0,-2.1355,-2.2362,-2.3256,-2.2573,-2.3078,-2.3932,-2.457,-2.4839,-2.5174,-2.5848,-2.6118,-2.6239,-2.6279,-2.6795,-2.7314,-2.754,-2.9227,-3.1268,-3.3583,-3.461,-3.5115,-3.4965,-3.7166,-3.8354,-3.7484,-3.9026,-3.9799,-3.9082,-3.9152,-3.8871,-3.8031,-3.8157,-3.7869,-3.7003,-3.7689,-3.777,-3.7127,-3.7916,-3.8738,-3.9546,-3.9559,-3.9805,-4.0255,-4.0138,-4.0188,-4.0305,-4.0357,-4.1015,-4.204,-4.2371,-4.3353,-4.4602,-4.4135,-4.4987,-4.6406,-4.5817,-4.6181,-4.6934,0.0,0.0,0.0,0.0,0.0,0.0,0.0,0.0,0.0,0.0,0.0,0.0,0.0,0.0,0.0,0.0,0.0,0.0,0.0,0.0,-2.3805,-2.4133,-2.4074,-2.3976,-2.3896,-2.3873,-2.385,-2.3804,-2.3783,-2.3739,-2.3652,-2.3324,-2.2849,-2.2192,-2.2039,-2.1899,-2.1738,-2.1708,-2.1694,-2.1664,0.0,0.0,0.0,0.0,0.0,0.0,0.0,0.0,0.0,0.0,-2.1309,-2.1294,-2.123,0.0,0.0,0.0,0.0,0.0,-2.1386,-2.2247,-2.3112,-2.3112,-2.4028,-2.5086,-2.5417,-2.5603,-2.5789,-2.6108,-2.6191,-2.626,-2.6314,-2.6966,-2.7958,-2.9299,-3.1095,-3.2647,-3.3693,-3.4513,-3.5059,-3.522,-3.675,-3.7877,-3.8119,-3.8941,-3.9278,-3.8662,-3.8887,-3.8621,-3.7566,-3.7803,-3.7631,-3.6823,-3.711,-3.6924,-3.6163,-3.665,-3.7536,-3.8743,-3.8836,-3.9277,-3.9949,-3.9756,-3.9995,-4.0617,-4.0813,-4.1098,-4.1471,-4.2124,-4.281,-4.3502,-4.3775,-4.4712,-4.5953,-4.6227,-4.6585,-4.6998,0.0,0.0,0.0,0.0,0.0,0.0,0.0,0.0,0.0,0.0,0.0,0.0,0.0,0.0,0.0,0.0,0.0,0.0,0.0,0.0,-2.421,-2.419,-2.4151,-2.4074,-2.3937,-2.3917,-2.3855,-2.3828,-2.3807,-2.3765,-2.37,-2.3348,-2.2925,-2.2385,-2.2275,-2.2096,-2.1899,-2.1827,-2.1768,-2.1708,0.0,0.0,0.0,0.0,0.0,0.0,0.0,0.0,0.0,0.0,0.0,0.0,0.0,0.0,0.0,-2.1309,-2.1309,-2.134,-2.1448,-2.2097,-2.2866,-2.3605,-2.4789,-2.5865,-2.6134,-2.6405,-2.6557,-2.6616,-2.6582,-2.6599,-2.6616,-2.7492,-2.8895,-3.1106,-3.2696,-3.3728,-3.3897,-3.4404,-3.4979,-3.5554,-3.6315,-3.7229,-3.8362,-3.8633,-3.857,-3.8069,-3.8454,-3.8201,-3.7036,-3.7379,-3.7297,-3.6535,-3.6502,-3.6231,-3.5667,-3.5888,-3.6642,-3.7957,-3.8111,-3.8642,-3.9439,-3.9286,-3.9744,-4.0647,-4.1114,-4.1163,-4.097,-4.1841,-4.2329,-4.262,-4.3634,-4.4746,-4.585,-4.672,-4.6998,-4.6998,0.0,0.0,0.0,0.0,0.0,0.0,0.0,0.0,0.0,0.0,0.0,0.0,0.0,0.0,0.0,0.0,0.0,0.0,0.0,0.0,-2.4266,-2.419,-2.4208,-2.417,-2.4094,-2.3958,-2.3896,-2.3896,-2.3816,-2.3771,-2.37,-2.3348,-2.3133,-2.3003,-2.2456,-2.2192,-2.2136,-2.1928,-2.1797,-2.1781,-2.1781,0.0,0.0,0.0,0.0,0.0,0.0,0.0,0.0,0.0,0.0,0.0,0.0,0.0,-2.1309,-2.1355,-2.1386,-2.1417,-2.1617,-2.2221,-2.2994,-2.3786,-2.4563,-2.534,-2.6054,-2.6789,-2.7364,-2.7473,-2.7509,-2.7509,-2.758,-2.8884,-3.0446,-3.1952,-3.344,-3.4658,-3.5368,-3.5504,-3.5554,-3.556,-3.6315,-3.6823,-3.6924,-3.7584,-3.799,-3.7925,-3.7925,-3.7652,-3.6844,-3.6857,-3.6502,-3.5723,-3.5707,-3.5735,-3.5773,-3.5932,-3.6385,-3.7188,-3.7428,-3.7956,-3.8698,-3.9388,-3.9686,-3.9819,-4.0612,-4.0922,-4.0935,-4.1433,-4.2113,-4.2896,-4.4085,-4.5508,-4.6908,-4.6962,-4.6998,-4.6998,0.0,0.0,0.0,0.0,0.0,0.0,0.0,0.0,0.0,0.0,0.0,0.0,0.0,0.0,0.0,0.0,0.0,0.0,0.0,-2.4321,-2.4266,-2.4191,-2.4209,-2.419,-2.417,-2.4074,-2.3996,-2.3958,-2.3896,-2.3831,-2.3761,-2.3594,-2.3389,-2.3133,-2.2712,-2.2402,-2.2164,-2.1911,-2.1797,-2.1797,-2.1797,-2.1797,0.0,0.0,0.0,0.0,0.0,0.0,0.0,0.0,-2.1634,-2.1511,-2.1511,-2.1511,-2.1481,-2.1511,-2.1511,-2.1542,-2.1664,-2.2283,-2.3058,-2.3818,-2.4663,-2.558,-2.6816,-2.7688,-2.828,-2.8333,-2.8723,-2.8891,-2.8474,-2.9694,-3.1106,-3.2121,-3.3525,-3.4759,-3.552,-3.5622,-3.5622,-3.5622,-3.5876,-3.6248,-3.6738,-3.7043,-3.7212,-3.7212,-3.7212,-3.6874,-3.6096,-3.6107,-3.6034,-3.5728,-3.58,-3.5888,-3.5932,-3.6079,-3.626,-3.6551,-3.6664,-3.7146,-3.7922,-3.8663,-3.9267,-3.9733,-4.0543,-4.0965,-4.1117,-4.1471,-4.1851,-4.2361,-4.3479,-4.4874,-4.6248,-4.6248,-4.6569,-4.6926,0.0,0.0,0.0,0.0,0.0,0.0,0.0,0.0,0.0,0.0,0.0,0.0,0.0,0.0,0.0,0.0,0.0,0.0,-2.4481,-2.4461,-2.4373,-2.421,-2.4247,-2.4247,-2.419,-2.4151,-2.4094,-2.4016,-2.3937,-2.3873,-2.3807,-2.3743,-2.3589,-2.3319,-2.301,-2.2669,-2.2375,-2.2101,-2.1928,-2.184,-2.184,-2.1899,0.0,0.0,0.0,0.0,0.0,0.0,0.0,0.0,-2.1768,-2.165,-2.165,-2.162,-2.162,-2.162,-2.165,-2.1694,-2.1738,-2.2374,-2.3183,-2.3866,-2.4746,-2.5849,-2.7595,-2.8589,-2.9231,-2.9505,-2.9758,-2.9808,-2.9303,-3.0306,-3.1427,-3.2195,-3.3728,-3.503,-3.5537,-3.5622,-3.5622,-3.5622,-3.5622,-3.5825,-3.6366,-3.6417,-3.6417,-3.6417,-3.6417,-3.618,-3.5639,-3.5684,-3.5773,-3.5817,-3.5667,-3.5753,-3.6079,-3.5925,-3.5967,-3.6251,-3.6276,-3.6577,-3.7129,-3.7905,-3.8646,-3.9388,-4.0164,-4.077,-4.1209,-4.1498,-4.1921,-4.2463,-4.3202,-4.4446,-4.5802,-4.5802,-4.6302,-4.6873,0.0,0.0,0.0,0.0,0.0,0.0,0.0,0.0,0.0,0.0,0.0,0.0,0.0,0.0,0.0,0.0,0.0,0.0,-2.4623,-2.4723,-2.4613,-2.4211,-2.4409,-2.441,-2.4209,-2.419,-2.417,-2.4094,-2.3976,-2.3876,-2.3795,-2.3807,-2.3739,-2.3585,-2.3319,-2.306,-2.279,-2.2508,-2.2215,-2.1911,-2.1969,-2.2068,-2.222,0.0,0.0,0.0,0.0,0.0,0.0,0.0,-2.1969,-2.1694,-2.1694,-2.1664,-2.162,-2.1694,-2.1738,-2.1827,-2.1882,-2.2525,-2.3354,-2.4009,-2.4811,-2.6,-2.8269,-2.9366,-3.0145,-3.1038,-3.0632,-3.0142,-3.0125,-3.0717,-3.1444,-3.2171,-3.4167,-3.5605,-3.5622,-3.5622,-3.5622,-3.5622,-3.5622,-3.5622,-3.5622,-3.5622,-3.5622,-3.5622,-3.5622,-3.5622,-3.5622,-3.5622,-3.5667,-3.5817,-3.5103,-3.5155,-3.6208,-3.5393,-3.5418,-3.6284,-3.6301,-3.6301,-3.6335,-3.7129,-3.7887,-3.8629,-3.937,-4.0268,-4.1209,-4.1498,-4.2326,-4.35,-4.35,-4.4428,-4.5784,-4.5784,-4.6284,-4.6855,0.0,0.0,0.0,0.0,0.0,0.0,0.0,0.0,0.0,0.0,0.0,0.0,0.0,0.0,0.0,0.0,0.0,0.0,-2.4814,-2.4795,-2.4747,-2.4629,-2.4636,-2.4575,-2.4409,-2.4266,-2.417,-2.4094,-2.4016,-2.3937,-2.3876,-2.3828,-2.3783,-2.3739,-2.3412,-2.323,-2.3133,-2.2599,-2.233,-2.2248,-2.2068,-2.2153,-2.2341,0.0,0.0,0.0,0.0,0.0,0.0,0.0,0.0,0.0,-2.1768,-2.1768,-2.1768,-2.1811,-2.184,-2.1882,-2.194,-2.3013,-2.3933,-2.3522,-2.5278,-2.7282,-2.7992,-2.8682,-2.9673,-3.1579,-3.2343,-3.2491,-3.1772,-3.2337,-3.2913,-3.3034,-3.4066,-3.5013,-3.5537,-3.5622,-3.5622,-3.5622,-3.5622,-3.5622,-3.5622,-3.5684,-3.5711,-3.5622,-3.5684,-3.5711,-3.5622,-3.5684,-3.5817,-3.5949,-3.5283,-3.5094,-3.5483,-3.526,-3.526,-3.5525,-3.6042,-3.6301,-3.6335,-3.7129,-3.7887,-3.8629,-3.937,-4.036,-4.1498,-4.1934,-4.2305,-4.2662,-4.2662,-4.3286,-4.4196,-4.4196,-4.4678,-4.5213,0.0,0.0,0.0,0.0,0.0,0.0,0.0,0.0,0.0,0.0,-2.5212,-2.519,0.0,0.0,0.0,0.0,0.0,0.0,0.0,-2.5,-2.4943,-2.4823,-2.4809,-2.4712,-2.4459,-2.4303,-2.417,-2.4151,-2.4054,-2.3976,-2.3937,-2.3852,-2.3807,-2.3804,-2.3594,-2.344,-2.3301,-2.2824,-2.2625,-2.2565,-2.2347,-2.2456,-2.2755,0.0,0.0,0.0,0.0,0.0,0.0,0.0,0.0,0.0,-2.1869,-2.1899,-2.1899,-2.194,-2.1986,-2.2032,-2.2061,-2.3224,-2.4312,-2.3796,-2.5796,-2.7979,-2.8371,-2.9384,-3.0852,-3.2822,-3.3291,-3.3281,-3.3277,-3.3488,-3.3734,-3.3981,-3.4558,-3.5084,-3.5209,-3.5436,-3.5504,-3.5199,-3.5436,-3.5622,-3.5622,-3.5667,-3.5684,-3.5622,-3.5711,-3.5773,-3.5667,-3.5817,-3.5949,-3.6079,-3.5368,-3.5194,-3.5628,-3.5335,-3.5335,-3.5628,-3.6094,-3.6301,-3.6318,-3.6801,-3.7465,-3.833,-3.9608,-4.0517,-4.1227,-4.1997,-4.2287,-4.2287,-4.2287,-4.2787,-4.3518,-4.3518,-4.3982,-4.45,0.0,0.0,0.0,0.0,0.0,0.0,0.0,0.0,0.0,0.0,-2.5361,-2.5389,0.0,0.0,0.0,0.0,0.0,0.0,0.0,0.0,-2.5171,-2.4864,-2.4949,-2.4828,-2.4441,-2.4303,-2.4209,-2.419,-2.4074,-2.3996,-2.3996,-2.3876,-2.3792,-2.3786,-2.3786,-2.366,-2.3417,-2.3126,-2.2993,-2.294,-2.2756,-2.2952,-2.3324,-2.3371,0.0,0.0,0.0,0.0,0.0,0.0,0.0,0.0,-2.1969,-2.1998,-2.1998,-2.2027,-2.2106,-2.2214,-2.2214,-2.3296,-2.4388,-2.4337,-2.6078,-2.81,-2.916,-3.0933,-3.2706,-3.4134,-3.3478,-3.3059,-3.438,-3.4175,-3.4035,-3.466,-3.5258,-3.5375,-3.4721,-3.5084,-3.5182,-3.4573,-3.5098,-3.5537,-3.556,-3.5622,-3.5622,-3.5622,-3.5711,-3.5817,-3.5817,-3.5905,-3.6002,-3.6079,-3.5307,-3.5246,-3.5973,-3.5318,-3.5352,-3.6094,-3.6163,-3.6232,-3.6301,-3.6301,-3.6859,-3.7902,-3.9946,-4.0718,-4.0619,-4.1801,-4.2287,-4.2287,-4.2287,-4.2751,-4.3393,-4.3393,-4.3822,-4.4303,0.0,0.0,0.0,0.0,0.0,0.0,0.0,0.0,0.0,0.0,0.0,0.0,0.0,0.0,0.0,0.0,0.0,0.0,0.0,0.0,-2.5264,-2.5192,-2.5065,-2.4885,-2.4651,-2.4493,-2.4357,-2.419,-2.4113,-2.4054,-2.3996,-2.3917,-2.3855,-2.3813,-2.3813,-2.3771,-2.3689,-2.3259,-2.3188,-2.333,-2.2876,-2.2985,-2.3458,-2.3463,-2.3594,0.0,0.0,0.0,0.0,0.0,0.0,0.0,-2.1998,-2.1998,-2.2027,-2.2123,-2.2225,-2.2282,-2.2282,-2.3011,-2.3653,-2.3017,-2.4654,-2.7089,-2.9659,-3.0583,-3.1162,-3.2008,-3.3036,-3.3762,-3.3909,-3.3881,-3.3911,-3.3943,-3.4055,-3.4106,-3.3936,-3.3989,-3.4194,-3.4618,-3.4701,-3.4962,-3.5554,-3.5684,-3.5711,-3.5622,-3.5711,-3.5817,-3.5817,-3.5817,-3.5659,-3.5273,-3.4535,-3.3957,-3.3628,-3.3473,-3.3783,-3.4576,-3.5145,-3.5732,-3.6301,-3.6301,-3.6859,-3.7902,-3.9946,-4.0801,-4.0813,-4.1884,-4.2287,-4.2287,-4.2287,-4.2394,-4.2555,-4.2555,-4.2644,-4.2769,0.0,0.0,0.0,0.0,0.0,0.0,0.0,0.0,0.0,0.0,0.0,0.0,0.0,0.0,0.0,0.0,0.0,0.0,0.0,0.0,-2.5303,-2.5312,-2.5118,-2.4949,-2.4842,-2.4666,-2.4543,-2.4444,-2.4302,-2.4154,-2.3996,-2.3917,-2.3858,-2.3795,-2.3795,-2.3795,-2.3774,-2.3422,-2.344,-2.362,-2.323,-2.3301,-2.3642,-2.3642,-2.3707,-2.3789,-2.3786,0.0,0.0,0.0,0.0,0.0,0.0,0.0,-2.2163,-2.2225,-2.2282,-2.2366,-2.2366,-2.3232,-2.4308,-2.5026,-2.5874,-2.712,-2.9472,-3.004,-3.0125,-3.0484,-3.2101,-3.3527,-3.375,-3.39,-3.398,-3.39,-3.3842,-3.3682,-3.3322,-3.3516,-3.3673,-3.3683,-3.393,-3.4381,-3.5118,-3.5246,-3.5355,-3.5588,-3.58,-3.5735,-3.5394,-3.5446,-3.5231,-3.4599,-3.4203,-3.3847,-3.3473,-3.3473,-3.368,-3.4093,-3.4473,-3.5059,-3.5783,-3.6394,-3.6876,-3.7404,-3.9464,-4.0281,-4.0329,-4.1724,-4.2287,-4.2287,-4.2287,-4.2287,-4.2287,-4.2287,-4.2287,-4.2287,0.0,0.0,0.0,0.0,0.0,0.0,0.0,0.0,0.0,0.0,0.0,0.0,0.0,0.0,0.0,0.0,0.0,0.0,0.0,0.0,0.0,-2.5292,-2.513,-2.503,-2.5006,-2.4828,-2.4727,-2.4716,-2.4491,-2.4284,-2.4056,-2.3958,-2.3876,-2.3795,-2.3795,-2.3795,-2.3795,-2.3576,-2.362,-2.3774,-2.3576,-2.362,-2.3795,-2.3795,-2.3795,-2.3795,-2.3765,-2.3399,-2.294,-2.2935,0.0,0.0,0.0,0.0,-2.231,-2.231,-2.2366,-2.2405,-2.2405,-2.3431,-2.5039,-2.7203,-2.7324,-2.7306,-2.8766,-2.923,-2.9351,-2.9472,-3.0952,-3.2479,-3.3218,-3.3451,-3.3542,-3.3662,-3.3481,-3.3184,-3.2702,-3.2911,-3.3003,-3.2662,-3.314,-3.3782,-3.444,-3.4525,-3.4737,-3.5243,-3.5453,-3.5326,-3.4711,-3.4885,-3.4645,-3.3904,-3.3886,-3.3818,-3.368,-3.368,-3.3766,-3.3886,-3.4185,-3.4673,-3.5296,-3.6501,-3.6948,-3.6853,-3.8841,-3.9672,-3.9767,-4.1444,-4.2162,-4.2287,-4.2287,-4.2287,-4.2287,-4.2287,-4.2287,-4.2287,0.0,0.0,0.0,0.0,0.0,0.0,0.0,0.0,0.0,0.0,-2.5393,-2.5412,0.0,0.0,0.0,0.0,0.0,0.0,-2.5303,0.0,0.0,-2.5303,-2.5274,-2.5171,-2.5006,-2.4981,-2.4874,-2.4689,-2.451,-2.4355,-2.4247,-2.4075,-2.3917,-2.3795,-2.3795,-2.3795,-2.3795,-2.3576,-2.362,-2.3774,-2.3576,-2.362,-2.3795,-2.3795,-2.3795,-2.3774,-2.3598,-2.3348,-2.3042,-2.2825,-2.2542,0.0,0.0,0.0,-2.231,-2.231,-2.2377,-2.2487,-2.2422,-2.3084,-2.4099,-2.5183,-2.5837,-2.6458,-2.7385,-2.8092,-2.873,-2.9368,-2.9748,-3.0161,-3.0989,-3.1145,-3.1351,-3.199,-3.1558,-3.1334,-3.1869,-3.1345,-3.1391,-3.2647,-3.2752,-3.3054,-3.3748,-3.3816,-3.3843,-3.3879,-3.3945,-3.396,-3.3874,-3.3997,-3.3773,-3.3076,-3.3059,-3.2748,-3.211,-3.211,-3.2421,-3.3076,-3.4601,-3.5374,-3.5496,-3.6696,-3.7143,-3.704,-3.8368,-3.9269,-3.9946,-4.0877,-4.1663,-4.2287,-4.2287,-4.2287,-4.2287,-4.2287,-4.2287,-4.2287,0.0,0.0,0.0,0.0,0.0,0.0,0.0,0.0,0.0,0.0,0.0,-2.5393,0.0,0.0,0.0,-2.5313,-2.5303,-2.5303,-2.5303,-2.5303,-2.5303,-2.5303,-2.5303,-2.5262,-2.5176,-2.5134,-2.5068,-2.4974,-2.4771,-2.4588,-2.4408,-2.4247,-2.4058,-2.3876,-2.3876,-2.3876,-2.3837,-2.3771,-2.3732,-2.3795,-2.3792,-2.3834,-2.3917,-2.3917,-2.3955,-2.3917,-2.3624,-2.3335,-2.3056,-2.2833,-2.2579,-2.2349,-2.2405,0.0,0.0,0.0,-2.2487,-2.2654,-2.3065,-2.3155,-2.3536,-2.5183,-2.5212,-2.5143,-2.635,-2.6557,-2.6713,-2.7454,-2.7282,-2.7609,-2.9644,-3.0024,-3.0127,-3.0455,-3.0248,-3.0144,-3.0472,-3.0195,-3.0195,-3.0866,-3.1293,-3.1806,-3.2466,-3.2929,-3.3317,-3.3622,-3.368,-3.3533,-3.3203,-3.3242,-3.2977,-3.23,-3.2283,-3.2127,-3.18,-3.18,-3.1955,-3.23,-3.3599,-3.4457,-3.4909,-3.6083,-3.6834,-3.7235,-3.8338,-3.8986,-3.9397,-4.061,-4.1306,-4.1663,-4.2109,-4.2287,-4.2287,-4.2287,-4.2287,-4.2287,0.0,0.0,0.0,0.0,0.0,0.0,0.0,0.0,0.0,0.0,0.0,0.0,0.0,0.0,0.0,0.0,-2.5303,-2.5303,-2.5303,-2.5303,-2.5303,-2.5303,-2.5303,-2.5293,-2.5262,-2.5222,-2.5201,-2.5206,-2.5013,-2.4771,-2.4522,-2.4388,-2.4192,-2.3917,-2.3917,-2.3917,-2.3917,-2.3917,-2.3876,-2.3837,-2.3976,-2.4016,-2.3996,-2.4054,-2.4074,-2.4074,-2.361,-2.3323,-2.3111,-2.2807,-2.2579,-2.2432,-2.2487,-2.2515,0.0,0.0,0.0,-2.2777,-2.3598,-2.3392,-2.3374,-2.5109,-2.4816,-2.4419,-2.5574,-2.5402,-2.5212,-2.5954,-2.5523,-2.5695,-2.7954,-2.8506,-2.8765,-2.9161,-2.9058,-2.9006,-2.9196,-2.923,-2.923,-2.923,-2.992,-3.0557,-3.1035,-3.162,-3.2149,-3.2581,-3.2804,-3.2723,-3.2252,-3.2445,-3.2328,-3.1817,-3.18,-3.18,-3.18,-3.18,-3.18,-3.18,-3.2802,-3.3574,-3.4222,-3.5578,-3.6485,-3.7124,-3.8073,-3.8611,-3.8915,-4.0253,-4.0913,-4.1181,-4.1984,-4.2287,-4.2287,-4.2287,-4.2287,-4.2287,0.0,0.0,0.0,0.0,0.0,0.0,0.0,0.0,0.0,0.0,0.0,0.0,-2.5415,-2.5406,-2.5369,-2.5313,-2.5303,-2.5303,-2.5303,-2.5303,-2.5303,-2.5303,-2.5303,0.0,-2.5212,-2.5192,-2.5209,-2.5191,-2.5,-2.4804,-2.4591,-2.4458,-2.4266,-2.3996,-2.3917,-2.3955,-2.3996,-2.3917,-2.3896,-2.3917,-2.4036,-2.4054,-2.4016,-2.4151,-2.419,-2.4132,-2.3522,-2.33,-2.3206,-2.2677,-2.2515,-2.2487,-2.2515,-2.2515,-2.2515,0.0,0.0,0.0,-2.3598,-2.3753,-2.3753,-2.3874,-2.4436,-2.4971,-2.504,-2.504,-2.5212,-2.5954,-2.5523,-2.5057,-2.5212,-2.5816,-2.6764,-2.823,-2.7868,-2.7661,-2.8368,-2.8454,-2.8454,-2.8454,-2.911,-2.9575,-2.9627,-2.9661,-2.9644,-2.9643,-3.0384,-3.0798,-3.0638,-3.1382,-3.1834,-3.18,-3.18,-3.18,-3.18,-3.18,-3.18,-3.18,-3.2947,-3.3512,-3.3599,-3.551,-3.6417,-3.6506,-3.7309,-3.8094,-3.8879,-3.9646,-4.0414,-4.1181,-4.1984,-4.2287,-4.2287,-4.2287,-4.2287,-4.2287,0.0,0.0,0.0,0.0,0.0,0.0,0.0,0.0,0.0,0.0,0.0,0.0,0.0,-2.5397,-2.5167,-2.4591,-2.4524,-2.4524,-2.4524,-2.5005,-2.5303,-2.5303,-2.5303,-2.5264,-2.5192,-2.5192,-2.5209,-2.5191,-2.5125,-2.4974,-2.4723,-2.4639,-2.4459,-2.4192,-2.4019,-2.3976,-2.3996,-2.3917,-2.3917,-2.3976,-2.4113,-2.4152,-2.4135,-2.4228,-2.4284,-2.4266,-2.3783,-2.3508,-2.3323,-2.2958,-2.2703,-2.2569,-2.2605,-2.2632,-2.2632,-2.2632,-2.2632,-2.2728,-2.3013,-2.3081,-2.3202,-2.3667,-2.3732,-2.3769,-2.4126,-2.4303,-2.4427,-2.4687,-2.4531,-2.4368,-2.4478,-2.4982,-2.5574,-2.6126,-2.6006,-2.5919,-2.6178,-2.6212,-2.6212,-2.6212,-2.7316,-2.8092,-2.8092,-2.8937,-2.9472,-2.9455,-3.016,-3.0607,-3.0643,-3.1296,-3.1709,-3.18,-3.18,-3.18,-3.18,-3.18,-3.18,-3.18,-3.2947,-3.3476,-3.3582,-3.5492,-3.6399,-3.6435,-3.7238,-3.7755,-3.8076,-3.8879,-3.9361,-3.9753,-4.102,-4.152,-4.1591,-4.2091,-4.2287,-4.2287,0.0,0.0,0.0,0.0,0.0,0.0,0.0,0.0,0.0,-2.3751,0.0,0.0,0.0,0.0,-2.5042,-2.4187,-2.436,-2.4399,-2.4129,-2.4851,-2.5303,-2.5303,-2.5303,-2.5264,-2.5192,-2.5192,-2.5209,-2.5191,-2.5191,-2.5044,-2.4771,-2.4719,-2.4526,-2.4229,-2.4096,-2.4054,-2.4074,-2.3996,-2.3996,-2.4054,-2.4171,-2.4228,-2.421,-2.4303,-2.4358,-2.4339,-2.4001,-2.3741,-2.357,-2.3282,-2.308,-2.2917,-2.2892,-2.2859,-2.2842,-2.279,-2.2816,-2.2842,-2.2842,-2.2842,-2.2963,-2.3449,-2.3259,-2.3136,-2.3779,-2.3815,-2.3842,-2.4365,-2.426,-2.42,-2.4568,-2.4923,-2.5045,-2.4728,-2.4648,-2.4666,-2.4609,-2.4833,-2.4902,-2.4643,-2.5747,-2.6523,-2.6523,-2.742,-2.8092,-2.8351,-2.9248,-2.9833,-2.992,-3.102,-3.1709,-3.18,-3.18,-3.18,-3.18,-3.18,-3.1819,-3.191,-3.2703,-3.3125,-3.3248,-3.5137,-3.5864,-3.5703,-3.7023,-3.7577,-3.7648,-3.8469,-3.8808,-3.8933,-4.0199,-4.086,-4.1163,-4.1698,-4.2055,-4.2287,0.0,0.0,0.0,0.0,0.0,0.0,0.0,0.0,-2.2919,-2.29,0.0,0.0,0.0,0.0,0.0,-2.4168,-2.4812,-2.4928,-2.4149,-2.4851,-2.5303,-2.5303,-2.5303,-2.5264,-2.5192,-2.5192,-2.5209,-2.5191,-2.5191,-2.5038,-2.4723,-2.4707,-2.4478,-2.4113,-2.4113,-2.4151,-2.4208,-2.4132,-2.4094,-2.4113,-2.4229,-2.4266,-2.4209,-2.4358,-2.4412,-2.4376,-2.4095,-2.3999,-2.3963,-2.3696,-2.3588,-2.3566,-2.3369,-2.3194,-2.3052,-2.2927,-2.2995,-2.3095,0.0,0.0,0.0,-2.3095,-2.3102,-2.3295,-2.4024,-2.3621,-2.3576,-2.5033,-2.4796,-2.4532,-2.5314,-2.5473,-2.5156,-2.4216,-2.4023,-2.3952,-2.3877,-2.4471,-2.4678,-2.3936,-2.454,-2.5005,-2.504,-2.5057,-2.5367,-2.6092,-2.7558,-2.8437,-2.8437,-3.0575,-3.18,-3.18,-3.1783,-3.1783,-3.18,-3.1783,-3.1875,-3.2108,-3.2232,-3.2386,-3.2659,-3.4371,-3.4793,-3.4258,-3.656,-3.7559,-3.7648,-3.8433,-3.8772,-3.8843,-3.9593,-4.0342,-4.1038,-4.1056,-4.1556,-4.2216,0.0,0.0,0.0,0.0,0.0,-2.1951,-2.1963,-2.3021,-2.3608,0.0,0.0,0.0,-2.5041,-2.4696,-2.4369,-2.4129,-2.4302,-2.4341,-2.411,-2.4851,-2.5303,-2.5303,-2.5303,-2.5293,-2.5282,-2.5222,-2.5201,-2.5206,-2.5203,-2.5156,-2.5051,-2.4813,-2.4645,-2.4512,-2.4284,-2.417,-2.419,-2.4074,-2.4094,-2.417,-2.421,-2.4247,-2.4284,-2.443,-2.4465,-2.4465,-2.4375,-2.421,-2.3983,-2.3903,-2.3656,-2.3364,-2.3212,-2.3126,-2.3077,-2.307,-2.307,-2.3095,-2.3095,0.0,0.0,0.0,0.0,0.0,-2.3383,-2.3731,-2.4017,-2.3894,-2.4141,-2.4484,-2.4857,-2.4917,-2.4974,-2.52,-2.4655,-2.4419,-2.4952,-2.4147,-2.3796,-2.4708,-2.4908,-2.5212,-2.5747,-2.6316,-2.6747,-2.6954,-2.8351,-2.9196,-2.9196,-3.0851,-3.18,-3.18,-3.1282,-3.1248,-3.1783,-3.1265,-3.1373,-3.2108,-3.2232,-3.2386,-3.2623,-3.3837,-3.4597,-3.4972,-3.6203,-3.7059,-3.7612,-3.7826,-3.7916,-3.8005,-3.8808,-3.9254,-3.9504,-4.0057,-4.0378,-4.0574,0.0,0.0,0.0,0.0,0.0,-2.1745,-2.2086,-2.3002,-2.3485,0.0,0.0,0.0,-2.5322,-2.4899,-2.4466,-2.4129,-2.4409,-2.4447,-2.4129,-2.4851,-2.5303,-2.5303,-2.5303,-2.512,-2.4773,-2.5079,-2.5058,-2.4711,-2.5034,-2.513,-2.4993,-2.4794,-2.4626,-2.4479,-2.4303,-2.419,-2.419,-2.4132,-2.4133,-2.4209,-2.4229,-2.4266,-2.4303,-2.443,-2.4465,-2.4465,-2.4465,-2.4303,-2.4097,-2.4173,-2.3941,-2.3584,-2.3422,-2.3324,-2.3265,-2.3193,-2.3217,-2.3265,-2.3265,-2.3265,-2.3265,-2.3265,0.0,0.0,-2.3289,-2.3667,-2.3998,-2.3898,-2.4235,-2.4644,-2.508,-2.5426,-2.5775,-2.6187,-2.579,-2.5438,-2.55,-2.4638,-2.4313,-2.5205,-2.5171,-2.523,-2.568,-2.613,-2.6545,-2.6782,-2.7967,-2.9056,-2.9955,-3.0612,-3.1216,-3.1765,-3.1219,-3.1254,-3.1929,-3.1567,-3.169,-3.2301,-3.2404,-3.2521,-3.2773,-3.369,-3.4151,-3.4311,-3.5774,-3.647,-3.6649,-3.7309,-3.7577,-3.763,-3.8112,-3.8504,-3.8861,-3.9289,-3.9646,-3.9914,0.0,0.0,-2.0605,-2.1533,-2.1765,-2.2075,-2.2784,-2.306,-2.3141,0.0,-2.373,-2.4523,-2.5216,-2.5303,-2.5005,-2.4302,-2.4889,-2.5005,-2.4283,-2.4909,-2.5303,-2.5303,-2.5303,-2.4947,-2.4159,-2.4908,-2.4917,-2.4138,-2.4847,-2.5037,-2.4727,-2.4697,-2.4526,-2.4228,-2.4209,-2.4209,-2.4209,-2.4209,-2.4209,-2.4229,-2.4284,-2.4303,-2.4321,-2.4394,-2.4412,-2.4412,-2.4412,-2.4339,-2.4248,-2.4429,-2.4284,-2.3998,-2.3878,-2.3728,-2.3549,-2.3407,-2.343,-2.3557,-2.3624,-2.3642,-2.3642,-2.3642,-2.3713,0.0,-2.3552,-2.3588,-2.382,-2.4468,-2.4593,-2.4825,-2.5551,-2.6264,-2.6826,-2.696,-2.6996,-2.6703,-2.5906,-2.564,-2.5588,-2.5764,-2.5512,-2.5366,-2.5471,-2.5471,-2.5692,-2.6208,-2.7122,-2.8511,-3.0473,-3.0195,-3.049,-3.1627,-3.1376,-3.1444,-3.1969,-3.2109,-3.2263,-3.2464,-3.2553,-3.2705,-3.2934,-3.3633,-3.3633,-3.3134,-3.5239,-3.5792,-3.5328,-3.6827,-3.7505,-3.7577,-3.7577,-3.8041,-3.8683,-3.8683,-3.9093,-3.9646,0.0,-2.0379,-2.065,-2.1553,-2.2249,-2.2726,-2.2881,-2.4045,-2.4659,-2.3948,-2.458,-2.5139,-2.5284,-2.5303,-2.5245,-2.5082,-2.5207,-2.5226,-2.5082,-2.5207,-2.5303,-2.5303,-2.5303,-2.5226,-2.5053,-2.5206,-2.5215,-2.5051,-2.5143,-2.5099,-2.4953,-2.4779,-2.461,-2.4426,-2.4266,-2.4229,-2.4284,-2.4284,-2.4303,-2.4358,-2.4321,-2.4339,-2.4394,-2.4465,-2.4482,-2.4482,-2.4482,-2.4465,-2.4429,-2.4373,-2.4301,-2.4211,-2.4079,-2.4041,-2.4003,-2.3714,-2.3728,-2.3916,-2.4405,-2.4538,-2.4538,-2.4538,-2.504,0.0,-2.3889,-2.4086,-2.4431,-2.3997,-2.3889,-2.4118,-2.4879,-2.5124,-2.5618,-2.6826,-2.6996,-2.7148,-2.761,-2.6517,-2.6127,-2.7366,-2.682,-2.6538,-2.7004,-2.7145,-2.7227,-2.7222,-2.8106,-2.9015,-2.9951,-3.0573,-3.0906,-3.0922,-3.108,-3.1164,-3.1133,-3.1304,-3.1505,-3.1618,-3.2287,-3.2705,-3.2916,-3.3045,-3.3384,-3.3883,-3.4347,-3.4811,-3.5275,-3.6238,-3.7006,-3.7577,-3.7577,-3.7684,-3.7826,-3.7826,-3.7916,-3.8041,-2.0399,-2.0399,-2.0811,-2.2075,-2.2622,-2.3183,-2.406,-2.488,-2.5252,-2.4857,-2.5119,-2.5341,-2.5313,-2.5322,-2.5341,-2.5303,-2.5303,-2.5303,-2.5303,-2.5303,-2.5303,-2.5303,-2.5303,-2.5111,-2.4649,-2.5081,-2.509,-2.4657,-2.5009,-2.5087,-2.4865,-2.4794,-2.4654,-2.4491,-2.4321,-2.4321,-2.4444,-2.4339,-2.4339,-2.4394,-2.4358,-2.4375,-2.4447,-2.4482,-2.45,-2.45,-2.4551,-2.4566,-2.458,-2.4442,-2.4372,-2.4301,-2.4301,-2.4229,-2.4118,-2.3919,-2.4169,-2.4548,-2.4802,-2.5123,-2.5404,-2.5434,-2.5428,0.0,0.0,-2.4244,-2.4266,-2.4293,-2.3988,-2.3952,-2.4716,-2.5159,-2.5637,-2.6333,-2.6798,-2.7308,-2.8102,-2.7495,-2.7228,-2.801,-2.7632,-2.743,-2.773,-2.7806,-2.7806,-2.7766,-2.8456,-2.9039,-2.933,-3.0229,-3.065,-3.0367,-3.1049,-3.1341,-3.1144,-3.1729,-3.2086,-3.2151,-3.2559,-3.2802,-3.2916,-3.2916,-3.3098,-3.3508,-3.3937,-3.4311,-3.474,-3.5917,-3.6631,-3.7023,-3.7434,-3.7577,-3.7577,-3.7577,-3.7577,-3.7577,-2.0399,-2.054,-2.1121,-2.2655,-2.3062,-2.37,-2.5275,-2.5476,-2.5443,-2.5483,-2.5446,-2.5408,-2.5341,-2.5399,-2.5399,-2.5351,-2.5332,-2.5332,-2.5322,-2.5313,-2.5313,-2.5303,-2.5303,-2.4966,-2.4274,-2.4946,-2.4955,-2.4244,-2.4896,-2.5037,-2.4727,-2.4771,-2.47,-2.4474,-2.4374,-2.4426,-2.4578,-2.4428,-2.4393,-2.4447,-2.4447,-2.4465,-2.45,-2.4517,-2.4517,-2.4534,-2.4599,-2.4645,-2.4692,-2.4594,-2.4552,-2.4576,-2.4752,-2.4725,-2.4652,-2.4593,-2.4974,-2.5421,-2.5443,-2.5823,-2.6242,-2.6159,-2.587,-2.5487,0.0,0.0,0.0,-2.4892,-2.4432,-2.4136,-2.4802,-2.5409,-2.5829,-2.5924,-2.6455,-2.7092,-2.7683,-2.7888,-2.8031,-2.8164,-2.7956,-2.7865,-2.7996,-2.8014,-2.8014,-2.8042,-2.8511,-2.8727,-2.8745,-2.9607,-3.0031,-2.9808,-3.1022,-3.1524,-3.1176,-3.2339,-3.2813,-3.2684,-3.2844,-3.2916,-3.2916,-3.2916,-3.2916,-3.2952,-3.358,-3.3865,-3.399,-3.5525,-3.6167,-3.6256,-3.722,-3.7577,-3.7577,-3.7577,-3.7577,-3.7577,-2.0399,-2.1011,-2.1856,-2.2817,-2.3636,-2.4469,-2.5447,-2.5583,-2.5557,-2.5515,-2.5481,-2.5495,-2.5475,-2.5486,-2.5486,-2.5486,-2.5476,-2.5457,-2.539,-2.5399,-2.5361,-2.5303,-2.5303,-2.5245,-2.5149,-2.5245,-2.5245,-2.5139,-2.5234,-2.5122,-2.4795,-2.4799,-2.4673,-2.4411,-2.4462,-2.4497,-2.4498,-2.4549,-2.4582,-2.4582,-2.4582,-2.4549,-2.4517,-2.4566,-2.4599,-2.4599,-2.466,-2.4692,-2.4707,-2.4749,-2.5075,-2.5519,-2.5812,-2.6249,-2.6673,-2.6655,-2.6637,-2.6722,-2.7248,-2.7271,-2.7019,-2.6504,-2.7374,-2.7844,-2.5945,0.0,-2.6015,-2.5454,0.0,-2.4896,-2.4978,0.0,0.0,-2.5883,-2.6081,-2.617,-2.6236,-2.6795,-2.7459,-2.812,-2.754,-2.7353,-2.7943,-2.8014,-2.8042,-2.8154,-2.8243,-2.8223,-2.811,-2.8987,-2.9355,-2.9035,-3.0769,-3.1275,-3.0433,-3.2058,-3.2527,-3.1831,-3.2545,-3.2916,-3.2916,-3.2916,-3.2916,-3.2916,-3.2991,-3.3027,-3.3184,-3.4704,-3.5346,-3.5489,-3.7006,-3.7577,-3.7577,-3.7577,-3.7577,-3.7577,-2.132,-2.1507,-2.2177,-2.3528,-2.4068,-2.4612,-2.5517,-2.5615,-2.5562,-2.5448,-2.5434,-2.5427,-2.539,-2.5409,-2.5447,-2.5447,-2.5438,-2.5428,-2.5399,-2.539,-2.5361,-2.5303,-2.5303,-2.5303,-2.5302,-2.5302,-2.5283,-2.5243,-2.5233,-2.5091,-2.4799,-2.4851,-2.4749,-2.4526,-2.4545,-2.4594,-2.467,-2.4629,-2.4599,-2.4599,-2.4599,-2.4582,-2.4566,-2.4629,-2.4676,-2.4723,-2.4753,-2.4798,-2.4875,-2.4903,-2.5344,-2.5909,-2.6103,-2.6638,-2.7182,-2.7133,-2.7417,-2.7774,-2.7913,-2.8154,-2.8346,-2.8138,-2.8218,-2.811,-2.7249,-2.6895,-2.678,-2.693,0.0,0.0,0.0,0.0,0.0,0.0,-2.5703,-2.5577,-2.5937,-2.5506,-2.5727,-2.737,-2.7263,-2.7344,-2.8093,-2.7727,-2.7656,-2.8146,-2.8182,-2.82,-2.8126,-2.893,-2.9134,-2.851,-3.0594,-3.1301,-3.0409,-3.2068,-3.2706,-3.2384,-3.2755,-3.2916,-3.2916,-3.2916,-3.2916,-3.2916,-3.2916,-3.2916,-3.3005,-3.4097,-3.4811,-3.5328,-3.6453,-3.7184,-3.7577,-3.7577,-3.7577,-3.7577,-2.2581,-2.2505,-2.2893,-2.4127,-2.4514,-2.491,-2.5607,-2.5638,-2.5576,-2.5476,-2.5443,-2.5416,-2.537,-2.5438,-2.5476,-2.5466,-2.5444,-2.5456,-2.5453,-2.5425,-2.538,-2.5332,-2.5322,-2.5332,-2.5331,-2.5302,-2.5273,-2.5233,-2.5233,-2.5091,-2.4832,-2.4879,-2.4775,-2.4572,-2.4578,-2.4657,-2.4741,-2.4657,-2.4629,-2.4645,-2.4645,-2.4679,-2.4711,-2.4723,-2.4783,-2.4856,-2.4856,-2.4917,-2.5029,-2.5256,-2.5777,-2.6419,-2.6767,-2.7365,-2.7945,-2.7961,-2.8325,-2.8725,-2.8577,-2.8872,-2.9184,-2.9078,-2.8724,-2.8427,-2.8297,-2.7774,-2.7475,-2.8091,-2.7563,0.0,0.0,0.0,-2.6549,-2.5978,0.0,-2.5499,-2.547,-2.4737,-2.4932,-2.6874,-2.7271,-2.7647,-2.8246,-2.7513,-2.7246,-2.7835,-2.7888,-2.7888,-2.7888,-2.8637,-2.8816,-2.8217,-3.0261,-3.11,-3.0511,-3.2081,-3.2916,-3.2916,-3.2916,-3.2916,-3.2916,-3.2916,-3.2916,-3.2916,-3.2916,-3.3041,-3.3277,-3.4079,-3.4847,-3.5614,-3.6417,-3.7077,-3.7577,-3.7577,-3.7577,-3.7577,-2.4161,-2.4325,-2.4322,-2.4395,-2.5094,-2.5663,-2.5699,-2.5632,-2.5596,-2.5595,-2.5534,-2.5492,-2.5495,-2.5601,-2.5669,-2.5601,-2.5596,-2.5593,-2.5593,-2.5479,-2.5412,-2.5406,-2.5407,-2.5398,-2.5398,-2.5322,-2.5303,-2.5303,-2.5303,-2.5149,-2.4902,-2.4902,-2.4764,-2.4517,-2.4566,-2.4615,-2.4596,-2.4676,-2.4719,-2.4794,-2.4794,-2.4875,-2.4964,-2.4842,-2.4889,-2.4977,-2.4977,-2.4996,-2.5124,-2.5901,-2.6528,-2.7153,-2.8272,-2.9034,-2.9587,-2.9829,-2.9796,-2.9658,-2.9658,-2.9476,-2.9173,-2.8575,-2.8987,-2.9418,-2.89,-2.8558,-2.8383,-2.8472,-2.8259,-2.7808,-2.699,-2.7491,-2.7432,-2.5621,-2.6131,0.0,0.0,-2.4892,-2.586,-2.6979,-2.7719,-2.8201,-2.83,-2.7513,-2.6996,-2.7032,-2.7032,-2.7032,-2.7032,-2.7817,-2.8217,-2.8182,-2.9726,-3.0529,-3.0511,-3.2081,-3.2916,-3.2916,-3.2916,-3.2916,-3.2916,-3.2916,-3.2916,-3.2916,-3.2916,-3.333,-3.4133,-3.4865,-3.565,-3.6435,-3.7238,-3.7559,-3.7577,-3.7577,-3.7577,-3.7577,-2.5199,-2.5254,-2.5252,-2.5256,-2.5497,-2.5698,-2.5703,-2.5681,-2.5643,-2.5599,-2.5587,-2.5543,-2.549,-2.5544,-2.5587,-2.5607,-2.5594,-2.5575,-2.5543,-2.5484,-2.5443,-2.5387,-2.5407,-2.5398,-2.5398,-2.5322,-2.5303,-2.5303,-2.5203,-2.508,-2.4902,-2.4823,-2.4676,-2.45,-2.4566,-2.4613,-2.466,-2.4692,-2.4753,-2.4794,-2.4794,-2.4889,-2.4996,-2.495,-2.4964,-2.501,-2.5004,-2.5378,-2.5891,-2.6165,-2.711,-2.8275,-2.8639,-2.9308,-2.994,-3.0038,-3.0022,-2.9953,-2.9953,-2.9886,-2.9794,-2.958,-2.9728,-2.9877,-2.9696,-2.9589,-2.9539,-2.9554,-2.9353,-2.8913,-2.8087,-2.7587,-2.6897,-2.569,-2.582,-2.5652,0.0,-2.4986,-2.565,-2.6062,-2.6136,-2.6309,-2.6745,-2.6025,-2.5725,-2.6175,-2.6693,-2.6996,-2.6996,-2.7763,-2.8431,-2.8994,-2.9976,-3.0761,-3.1296,-3.2349,-3.2916,-3.2916,-3.2916,-3.2916,-3.2916,-3.2916,-3.2916,-3.2916,-3.2916,-3.3045,-3.3366,-3.4151,-3.4936,-3.5685,-3.6488,-3.7113,-3.7577,-3.7577,-3.7577,-3.7577,-2.5709,-2.5693,-2.5697,-2.5697,-2.5697,-2.5698,-2.5701,-2.5689,-2.5651,-2.5645,-2.5605,-2.557,-2.5546,-2.5556,-2.5585,-2.5596,-2.5608,-2.5575,-2.5498,-2.5498,-2.5479,-2.5432,-2.5415,-2.5397,-2.5397,-2.5361,-2.5341,-2.5341,-2.5233,-2.508,-2.4902,-2.4804,-2.4676,-2.45,-2.4551,-2.4596,-2.4707,-2.4707,-2.4768,-2.4856,-2.4856,-2.4917,-2.5004,-2.5004,-2.5004,-2.5004,-2.5044,-2.5576,-2.635,-2.6667,-2.7671,-2.8846,-2.917,-2.9646,-3.0098,-3.0098,-3.0132,-3.0132,-3.0132,-3.0128,-3.0018,-2.9736,-2.966,-2.9641,-2.9679,-2.9646,-2.9741,-3.0041,-2.9953,-2.9607,-2.8758,-2.8301,-2.7636,-2.6371,-2.6255,-2.5933,0.0,-2.5026,-2.5312,-2.5276,-2.5501,-2.5765,-2.6085,-2.5366,-2.5062,-2.5372,-2.6147,-2.6593,-2.6568,-2.762,-2.8431,-2.8976,-2.9976,-3.0761,-3.126,-3.2349,-3.2916,-3.2916,-3.2916,-3.2916,-3.2916,-3.2916,-3.2916,-3.2916,-3.2916,-3.3045,-3.3384,-3.4169,-3.4954,-3.5721,-3.6506,-3.7131,-3.7577,-3.7577,-3.7577,-3.7577,-2.5691,-2.57,-2.5703,-2.5703,-2.5703,-2.5703,-2.5691,-2.5644,-2.5622,-2.5699,-2.5636,-2.5609,-2.5591,-2.5652,-2.5671,-2.5611,-2.5592,-2.5569,-2.5511,-2.5511,-2.5511,-2.5511,-2.5429,-2.5401,-2.5401,-2.5397,-2.5398,-2.5389,-2.5313,-2.5138,-2.4888,-2.4888,-2.4749,-2.45,-2.45,-2.4566,-2.4707,-2.4707,-2.4817,-2.501,-2.501,-2.5004,-2.4993,-2.4993,-2.4993,-2.5025,-2.5127,-2.5672,-2.651,-2.7366,-2.8184,-2.9017,-2.9836,-3.0098,-3.0109,-3.0109,-3.0157,-3.0204,-3.0204,-3.0157,-2.9918,-2.9155,-2.8879,-2.8812,-2.8888,-2.8822,-2.8965,-2.9808,-3.0003,-2.9779,-2.8903,-2.9455,-2.9414,-2.7522,-2.7373,-2.6954,-2.5408,-2.5162,-2.505,-2.487,-2.5875,-2.6471,-2.622,-2.5524,-2.4994,-2.4724,-2.5499,-2.5947,-2.5854,-2.7353,-2.8227,-2.8253,-2.9726,-3.0529,-3.0564,-3.2117,-3.2916,-3.2916,-3.2916,-3.2916,-3.2916,-3.2916,-3.2916,-3.2916,-3.2916,-3.333,-3.4115,-3.4847,-3.5596,-3.6363,-3.7202,-3.7541,-3.7577,-3.7577,-3.7577,-3.7577,-2.5702,-2.5703,-2.5703,-2.5703,-2.5703,-2.5703,-2.5702,-2.5683,-2.5682,-2.5693,-2.5699,-2.5663,-2.5664,-2.5683,-2.5663,-2.5616,-2.5602,-2.5569,-2.5511,-2.5511,-2.5511,-2.5511,-2.5429,-2.5401,-2.5401,-2.5397,-2.5322,-2.5173,-2.5049,-2.4915,-2.4749,-2.4645,-2.4566,-2.45,-2.45,-2.4566,-2.4707,-2.4707,-2.4817,-2.501,-2.4985,-2.4999,-2.5012,-2.5063,-2.5057,-2.5165,-2.5825,-2.6568,-2.7388,-2.8273,-2.9126,-2.987,-3.0099,-3.0171,-3.0171,-3.0171,-3.0204,-3.0204,-3.0204,-3.0185,-3.0114,-2.9923,-2.9374,-2.8897,-2.8957,-2.8466,-2.8038,-2.8255,-2.8796,-2.8973,-2.8134,-2.864,-2.8822,-2.7676,-2.7495,-2.7561,-2.7725,-2.7233,-2.6835,-2.679,-2.6506,-2.5916,-2.4894,-2.4992,-2.5063,-2.4932,-2.6177,-2.6871,-2.6718,-2.7797,-2.8622,-2.9084,-3.0011,-3.0796,-3.1385,-3.2384,-3.2916,-3.2916,-3.2916,-3.2916,-3.2916,-3.2916,-3.2916,-3.2916,-3.2916,-3.3009,-3.3259,-3.4062,-3.4508,-3.4829,-3.6185,-3.7059,-3.7577,-3.7577,-3.7577,-3.7577,-2.5703,-2.5703,-2.5703,-2.5703,-2.5702,-2.57,-2.57,-2.5703,-2.5703,-2.5702,-2.5698,-2.5694,-2.5694,-2.5691,-2.5679,-2.5641,-2.5629,-2.5569,-2.5511,-2.5511,-2.5511,-2.5511,-2.5456,-2.5437,-2.5437,-2.5404,-2.5331,-2.5225,-2.5072,-2.4923,-2.4794,-2.4645,-2.4549,-2.45,-2.45,-2.4549,-2.466,-2.4723,-2.4842,-2.5004,-2.5012,-2.5025,0.0,-2.5088,-2.5113,-2.5251,-2.6091,-2.6931,-2.7714,-2.8204,-2.9192,-3.0204,-3.0204,-3.0204,-3.0204,-3.0204,-3.0204,-3.0204,-3.0204,-3.0204,-3.0109,-2.9726,-2.9,-2.8389,-2.8428,-2.7778,-2.7268,-2.7668,-2.8383,-2.8798,-2.8358,-2.8924,-2.9178,-2.8311,-2.8122,-2.8099,-2.8202,-2.7808,-2.749,-2.749,-2.7058,-2.634,-2.5239,-2.5227,-2.521,-2.5045,-2.6428,-2.7202,-2.7048,-2.7905,-2.873,-2.9387,-3.0118,-3.0886,-3.1689,-3.2491,-3.2916,-3.2916,-3.2916,-3.2916,-3.2916,-3.2916,-3.2916,-3.2916,-3.2916,-3.2916,-3.2969,-3.3776,-3.4115,-3.4258,-3.5792,-3.6881,-3.7577,-3.7577,-3.7577,-3.7577,-2.5703,-2.5703,-2.5703,-2.5703,-2.5698,-2.5707,-2.5707,-2.5699,-2.5703,-2.5699,-2.5703,-2.5699,-2.5701,-2.5696,-2.5737,-2.5858,-2.5805,-2.5786,-2.582,-2.584,-2.584,-2.584,-2.5724,-2.5666,-2.5666,-2.5487,-2.5385,-2.5369,-2.5165,-2.5005,-2.4874,-2.4734,-2.4615,-2.45,-2.45,-2.4532,-2.4631,-2.4881,-2.505,-2.5183,-2.5291,-2.5311,-2.5265,-2.5265,-2.5232,-2.5306,-2.6097,-2.6956,-2.772,-2.7816,-2.8905,-3.0204,-3.0204,-3.0204,-3.0204,-3.0204,-3.0204,-3.0204,-3.0204,-3.0204,-3.0013,-2.9268,-2.8466,-2.7848,-2.7752,-2.7158,-2.6826,-2.7359,-2.8298,-2.8976,-2.8855,-2.9589,-2.9964,-2.9188,-2.9013,-2.8732,-2.8027,-2.7885,-2.7837,-2.7823,-2.7717,0.0,-2.6588,-2.6127,-2.5705,-2.5395,-2.6644,-2.7414,-2.7294,-2.7976,-2.8676,-2.9387,-3.0118,-3.0886,-3.1689,-3.2491,-3.2916,-3.2916,-3.2916,-3.2916,-3.2916,-3.2916,-3.2916,-3.2916,-3.2916,-3.2916,-3.2938,-3.3651,-3.4008,-3.424,-3.5685,-3.672,-3.7452,-3.7541,-3.7577,-3.7577,-2.5703,-2.5703,-2.5703,-2.5703,-2.5698,-2.5707,-2.5707,-2.5691,-2.5697,-2.5703,-2.5699,-2.5696,-2.5703,-2.5703,-2.5974,-2.663,-2.6675,-2.6928,-2.7511,-2.7561,-2.7561,-2.7561,-2.6865,-2.6489,-2.6489,-2.5777,-2.535,-2.5243,-2.503,-2.4883,-2.4719,-2.4599,-2.4534,-2.45,-2.45,-2.4566,-2.4729,-2.5655,-2.6043,-2.6146,-2.6866,-2.6753,-2.6174,-2.618,-2.5772,-2.5306,-2.6097,-2.6956,-2.7797,-2.8471,-2.9363,-3.0204,-3.0204,-3.0204,-3.0204,-3.0204,-3.0204,-3.0204,-3.0204,-3.0204,-3.0161,-3.0002,-2.9365,-2.8594,-2.7927,-2.7677,-2.7225,-2.5992,-2.7478,-2.8797,-2.8133,-2.9219,-3.0136,-2.9918,-2.9865,-2.9827,-2.9684,-2.965,-2.9616,-2.957,-2.8981,-2.8491,-2.8275,-2.799,-2.7494,-2.673,-2.7938,-2.8589,-2.8347,-2.8478,-2.881,-2.9369,-3.0118,-3.0886,-3.1689,-3.2491,-3.2916,-3.2916,-3.2916,-3.2916,-3.2916,-3.2916,-3.2916,-3.2916,-3.2916,-3.2916,-3.2902,-3.3045,-3.3491,-3.4204,-3.5079,-3.5899,-3.6684,-3.7345,-3.7577,-3.7577,-2.5703,-2.5703,-2.5703,-2.57,-2.5697,-2.5694,-2.5707,-2.5707,-2.5696,-2.5702,-2.5703,-2.5703,-2.5707,-2.5693,-2.6021,-2.6838,-2.6895,-2.7222,-2.7997,-2.8025,-2.7995,-2.7995,-2.76,-2.7155,-2.6702,-2.6288,-2.5829,-2.5293,-2.5072,-2.491,-2.4799,-2.4596,-2.45,-2.4518,-2.5013,-2.5298,-2.5491,-2.6498,-2.6944,-2.7018,-2.7426,-2.7395,-2.702,-2.6574,-2.6154,-2.5822,-2.5803,-2.6612,-2.7816,-2.8624,-2.9478,-3.0204,-3.0204,-3.0204,-3.0204,-3.0204,-3.0204,-3.0204,-3.0204,-3.0204,-3.0199,-3.0207,-2.9608,-2.8913,-2.8552,-2.8123,-2.7585,-2.6811,-2.7588,-2.8441,-2.8456,-2.9423,-3.0194,-3.0166,-3.0152,-3.0157,-3.0161,-3.0113,-2.9927,-2.9478,-2.9464,-2.911,-2.8173,-2.8742,-2.8739,-2.7699,-2.8547,-2.8948,-2.8608,-2.8633,-2.9042,-2.994,-3.0315,-3.1082,-3.2295,-3.2719,-3.2916,-3.2916,-3.2916,-3.2916,-3.2916,-3.2916,-3.2916,-3.2916,-3.2916,-3.2916,-3.2916,-3.2916,-3.3366,-3.4169,-3.4918,-3.5685,-3.6453,-3.6827,-3.722,-3.7577,-2.5703,-2.5703,-2.5701,-2.5693,-2.5696,-2.5696,-2.5709,-2.5707,-2.5696,-2.5702,-2.5703,-2.5693,-2.5704,-2.5874,-2.6288,-2.7083,-2.7324,-2.7759,-2.8588,-2.8586,-2.8548,-2.8548,-2.8373,-2.7871,-2.7,-2.6779,-2.6268,-2.5401,-2.516,-2.4975,-2.4904,-2.4845,-2.4922,-2.5125,-2.5895,-2.6305,-2.6464,-2.7395,-2.7828,-2.7878,-2.8082,-2.8076,-2.7892,-2.7186,-2.6823,-2.6593,-2.5956,-2.6689,-2.8064,-2.8681,-2.9478,-3.0204,-3.0204,-3.0204,-3.0204,-3.0204,-3.0204,-3.0204,-3.0204,-3.0204,-3.0199,-3.0221,-2.9749,-2.9282,-2.9148,-2.875,-2.8308,-2.8,-2.8087,-2.8453,-2.9256,-2.985,-3.0184,-2.9991,-3.0098,-3.0128,-2.9956,-2.9889,-2.967,-2.9213,-2.9546,-2.9364,-2.816,-2.9228,-2.959,-2.8633,-2.9001,-2.9123,-2.8791,-2.8761,-2.925,-3.0313,-3.0492,-3.1261,-3.2616,-3.2827,-3.2916,-3.2916,-3.2916,-3.2916,-3.2916,-3.2916,-3.2916,-3.2916,-3.2916,-3.2916,-3.2916,-3.2916,-3.3259,-3.3919,-3.4686,-3.5453,-3.6167,-3.6328,-3.6899,-3.7577,-2.5693,-2.5709,-2.5693,-2.5698,-2.5694,-2.5709,-2.5707,-2.5707,-2.5693,-2.5701,-2.5703,-2.5703,-2.5701,-2.6406,-2.7181,-2.7921,-2.871,-2.9516,-3.0308,-3.0366,-3.0366,-3.0366,-2.9592,-2.876,-2.789,-2.7097,-2.6268,-2.5401,-2.5184,-2.5037,-2.4904,-2.5571,-2.6282,-2.7043,-2.7198,-2.7297,-2.7437,-2.8375,-2.876,-2.885,-2.9636,-2.9497,-2.8777,-2.8701,-2.8204,-2.7568,-2.7491,-2.8045,-2.8796,-2.8872,-2.9478,-3.0204,-3.0204,-3.0204,-3.0204,-3.0204,-3.0204,-3.0204,-3.0204,-3.0204,-3.0199,-3.0286,-3.0283,-3.0074,-2.9352,-2.9799,-2.9919,-2.8392,-2.8702,-2.9482,-3.0231,-3.0383,-3.0106,-2.9251,-2.9715,-2.9917,-2.9121,-2.9025,-2.926,-2.9918,-2.9422,-2.9236,-2.9798,-2.9943,-2.9921,-2.9746,-2.957,-2.9433,-2.933,-2.9082,-2.9229,-2.9746,-3.0541,-3.1225,-3.1796,-3.2527,-3.2916,-3.2916,-3.2916,-3.2916,-3.2916,-3.2916,-3.2916,-3.2916,-3.2916,-3.2916,-3.2916,-3.2916,-3.2952,-3.308,-3.3883,-3.4668,-3.54,-3.6131,-3.6899,-3.7577,-2.5697,-2.5691,-2.5709,-2.5693,-2.5691,-2.5709,-2.5693,-2.5693,-2.5693,-2.5693,-2.5702,-2.5703,-2.5703,-2.6484,-2.7298,-2.8037,-2.89,-2.9747,-3.0559,-3.0598,-3.0598,-3.0598,-3.0269,-2.9669,-2.8799,-2.8431,-2.7832,-2.6953,-2.6241,-2.6084,-2.6505,-2.6195,-2.6563,-2.7433,-2.7983,-2.8278,-2.8394,-2.9303,-2.9693,-2.9713,-3.007,-2.9994,-2.9631,-2.9102,-2.8701,-2.828,-2.7281,-2.7778,-2.8834,-2.8338,-2.9077,-3.0204,-3.0204,-3.0204,-3.0204,-3.0204,-3.0204,-3.0204,-3.0204,-3.0204,-3.0226,-3.034,-3.0389,-3.0337,-3.0098,-3.0319,-3.0399,-2.9745,-2.9881,-3.0055,-2.9826,-3.018,-3.0376,-2.9969,-3.009,-3.0132,-2.9787,-2.9723,-2.9598,-2.9393,-2.9565,-2.9589,-2.9345,-2.9768,-3.0216,-3.0646,-3.0089,-2.9383,-2.8606,-2.9016,-2.9392,-2.9647,-3.0628,-3.1583,-3.2416,-3.2862,-3.3024,-3.2916,-3.2916,-3.2916,-3.2916,-3.2916,-3.2916,-3.2916,-3.2916,-3.2916,-3.2916,-3.2916,-3.2916,-3.2987,-3.3794,-3.4294,-3.4597,-3.49,-3.581,-3.6809,-2.5697,-2.5693,-2.5707,-2.5707,-2.5709,-2.5691,-2.5694,-2.5694,-2.5693,-2.5707,-2.5698,-2.5702,-2.5703,-2.6688,-2.7557,-2.8072,-2.9113,-2.9989,-3.0559,-3.0598,-3.0598,-3.0598,-3.0598,-3.0192,-2.9321,-2.9302,-2.8876,-2.7995,-2.7217,-2.7117,-2.7649,-2.7105,-2.7381,-2.8311,-2.8922,-2.9227,-2.9322,-2.9942,-3.0204,-3.0204,-3.0204,-3.0204,-3.0128,-2.9516,-2.9273,-2.9096,-2.7644,-2.8064,-2.9134,-2.8064,-2.8637,-2.986,-3.0109,-3.0204,-3.0204,-3.0204,-3.0204,-3.0199,-3.0221,-3.0234,-3.0267,-3.0432,-3.0472,-3.0507,-3.0607,-3.0639,-3.065,-3.065,-3.065,-3.0464,-2.9836,-3.0217,-3.051,-3.0206,-3.0269,-3.0263,-3.0012,-2.9944,-2.9756,-2.9359,-2.9627,-2.9664,-2.9227,-2.9726,-3.0304,-3.0812,-3.0265,-2.96,-2.8911,-2.9326,-2.9669,-2.9828,-3.0895,-3.1869,-3.2652,-3.3064,-3.3129,-3.2916,-3.2916,-3.2916,-3.2916,-3.2916,-3.2916,-3.2916,-3.2916,-3.2916,-3.2916,-3.2916,-3.2916,-3.2969,-3.3526,-3.3901,-3.4115,-3.4115,-3.4936,-3.6006,-2.5707,-2.5707,-2.5707,-2.5707,-2.5693,-2.5694,-2.5709,-2.5707,-2.5707,-2.5707,-2.5707,-2.5694,-2.5703,-2.7185,-2.8163,-2.8116,-2.9625,-3.0598,-3.0598,-3.0598,-3.0598,-3.0598,-3.0598,-3.0192,-2.9321,-2.9302,-2.8876,-2.7995,-2.7923,-2.7845,-2.7811,-2.8406,-2.9198,-3.0163,-3.0109,-3.0113,-3.0185,-3.0204,-3.0204,-3.0204,-3.0204,-3.0204,-3.0204,-3.0185,-3.0185,-3.007,-2.9178,-2.944,-2.9917,-2.8255,-2.8242,-2.9063,-2.9937,-3.0204,-3.0204,-3.0204,-3.0204,-3.0213,-3.0285,-3.0302,-3.0348,-3.0548,-3.0644,-3.0709,-3.0701,-3.0758,-3.0799,-3.0799,-3.0796,-3.0765,-3.0696,-3.0695,-3.0393,-2.947,-2.9976,-3.0192,-2.933,-2.9214,-2.9477,-3.0198,-2.954,-2.9295,-3.0009,-3.0034,-3.0007,-3.0007,-2.994,-3.0215,-3.0921,-3.0223,-2.9983,-3.0376,-3.1371,-3.1964,-3.2094,-3.2969,-3.3232,-3.2916,-3.2916,-3.2916,-3.2916,-3.2916,-3.2916,-3.2916,-3.2916,-3.2916,-3.2916,-3.2916,-3.2916,-3.2916,-3.2902,-3.3384,-3.4115,-3.4115,-3.4579,-3.5346,-2.5707,-2.5707,-2.5707,-2.5707,-2.5709,-2.5709,-2.5707,-2.5707,-2.5707,-2.5707,-2.5707,-2.5918,-2.6468,-2.752,-2.8182,-2.8105,-2.9629,-3.0598,-3.0598,-3.0598,-3.0598,-3.0598,-3.0598,-3.0462,-3.0192,-3.0192,-3.0056,-2.9766,-2.912,-2.879,-2.8769,-2.9423,-2.9934,-3.0343,-3.0213,-3.019,-3.0204,-3.0204,-3.0204,-3.0204,-3.0204,-3.0204,-3.0204,-3.0204,-3.0204,-3.0089,-2.9197,-2.9459,-2.9937,-2.8275,-2.8223,-2.8949,-2.9216,-2.9312,-2.944,-3.0032,-3.0234,-3.0273,-3.029,-3.0362,-3.0472,-3.0625,-3.0678,-3.0716,-3.0758,-3.0774,-3.0801,-3.0801,-3.0796,-3.0788,-3.0774,-3.0774,-3.0677,-3.0378,-3.0464,-3.0459,-3.0195,-3.012,-3.0163,-3.0414,-3.0098,-2.9747,-2.9372,-2.9785,-3.0022,-2.994,-3.0454,-3.0383,-2.941,-2.967,-3.002,-3.0372,-3.1553,-3.24,-3.2841,-3.333,-3.3372,-3.2916,-3.2916,-3.2916,-3.2916,-3.2916,-3.2916,-3.2916,-3.2916,-3.2916,-3.2916,-3.2916,-3.2916,-3.2916,-3.2916,-3.3045,-3.3277,-3.3277,-3.4097,-3.5168,-2.5707,-2.5707,-2.5707,-2.5707,-2.5707,-2.5707,-2.5707,-2.5699,-2.5703,-2.5703,-2.5683,-2.5978,-2.6817,-2.7649,-2.828,-2.8569,-2.9825,-3.0598,-3.0598,-3.0598,-3.0598,-3.0598,-3.0598,-3.0598,-3.0598,-3.0598,-3.0598,-3.0598,-3.0018,-2.9708,-2.9657,-3.0054,-3.0267,-3.0311,-3.0213,-3.0171,-3.0204,-3.0204,-3.0204,-3.0204,-3.0204,-3.0204,-3.0204,-3.0204,-3.0204,-3.0128,-2.9593,-2.9746,-2.9994,-2.8618,-2.8471,-2.8891,-2.8891,-2.8931,-2.9143,-2.995,-3.0241,-3.0314,-3.0359,-3.0472,-3.0591,-3.072,-3.0745,-3.0747,-3.0796,-3.0799,-3.0799,-3.0799,-3.0794,-3.0807,-3.0804,-3.0794,-3.0798,-3.0808,-3.0739,-3.0671,-3.0671,-3.0632,-3.0587,-3.0535,-3.0414,-3.0094,-2.9519,-2.9832,-3.0022,-2.9905,-3.04,-3.0232,-2.9158,-3.0194,-3.0903,-3.103,-3.2201,-3.3044,-3.3465,-3.368,-3.3524,-3.3024,-3.2948,-3.2916,-3.2916,-3.2916,-3.2916,-3.2916,-3.2916,-3.2916,-3.2916,-3.2916,-3.2916,-3.2916,-3.2916,-3.2916,-3.2916,-3.2916,-3.3687,-3.4722,-2.5707,-2.5707,-2.5707,-2.5707,-2.5707,-2.5707,-2.5709,-2.5701,-2.571,-2.5701,-2.5644,-2.5959,-2.688,-2.7651,-2.8472,-2.94,-3.0163,-3.0598,-3.0598,-3.0598,-3.0598,-3.0598,-3.0598,-3.0598,-3.0598,-3.0598,-3.0598,-3.0598,-3.0598,-3.054,-3.0417,-3.034,-3.0279,-3.0196,-3.0152,-3.0138,-3.0204,-3.0204,-3.0204,-3.0204,-3.0204,-3.0204,-3.0204,-3.0204,-3.0204,-3.0204,-3.0204,-3.0204,-3.007,-2.9178,-2.8891,-2.8891,-2.8891,-2.8995,-2.9221,-2.9991,-3.0267,-3.0359,-3.0463,-3.0595,-3.0722,-3.0786,-3.0804,-3.0794,-3.0799,-3.0796,-3.0794,-3.0799,-3.0807,-3.0801,-3.081,-3.0794,-3.0798,-3.0798,-3.0808,-3.0799,-3.0799,-3.0799,-3.0745,-3.0626,-3.0488,-3.0325,-3.0145,-3.0052,-2.9953,-2.9829,-2.9907,-2.9945,-2.9888,-3.1497,-3.2316,-3.2123,-3.3091,-3.3684,-3.3876,-3.3891,-3.3661,-3.319,-3.2993,-3.2916,-3.2916,-3.2916,-3.2916,-3.2916,-3.2916,-3.2916,-3.2916,-3.2916,-3.2916,-3.2916,-3.2916,-3.2916,-3.2916,-3.2916,-3.3437,-3.4169,-2.5707,-2.5707,-2.5707,-2.5707,-2.5707,-2.5689,-2.5697,-2.5701,-2.5697,-2.5699,-2.5628,-2.6164,-2.766,-2.7987,-2.8704,-3.0182,-3.0501,-3.0598,-3.0598,-3.0598,-3.0598,-3.0598,-3.0598,-3.0598,-3.0598,-3.0598,-3.0598,-3.0598,-3.0598,-3.0569,-3.0469,-3.0402,-3.0343,-3.0279,-3.0213,-3.0204,-3.0204,-3.0204,-3.0204,-3.0204,-3.0204,-3.0204,-3.0204,-3.0204,-3.0204,-3.0204,-3.0204,-3.0204,-3.007,-2.9178,-2.8891,-2.8891,-2.8891,-2.8918,-2.9111,-3.0011,-3.0393,-3.054,-3.0564,-3.0671,-3.0789,-3.0802,-3.0801,-3.0794,-3.0794,-3.0794,-3.0791,-3.0804,-3.0794,-3.0806,-3.081,-3.0798,-3.0804,-3.0804,-3.0804,-3.0799,-3.0799,-3.0799,-3.0794,-3.0764,-3.0595,-3.0182,-2.9436,-2.9786,-2.9756,-2.9052,-3.017,-3.0606,-2.9926,-3.1497,-3.2353,-3.226,-3.2543,-3.3043,-3.3742,-3.3847,-3.3579,-3.2961,-3.3086,-3.3055,-3.2916,-3.2916,-3.2916,-3.2916,-3.2916,-3.2916,-3.2916,-3.2916,-3.2916,-3.2916,-3.2916,-3.2916,-3.2916,-3.2916,-3.3758,-3.4865,-2.5707,-2.5707,-2.5707,-2.5707,-2.5707,-2.5709,-2.5694,-2.5677,-2.5648,-2.565,-2.5917,-2.6605,-2.7901,-2.8403,-2.9177,-3.0482,-3.0598,-3.0598,-3.0598,-3.0598,-3.0598,-3.0598,-3.0598,-3.0598,-3.0598,-3.0598,-3.0598,-3.0598,-3.0597,-3.054,-3.0406,-3.0406,-3.0336,-3.0213,-3.0199,-3.0204,-3.0204,-3.0204,-3.0204,-3.0204,-3.0204,-3.0204,-3.0204,-3.0204,-3.0204,-3.0204,-3.0204,-3.0204,-3.0128,-2.965,-2.9518,-2.9551,-2.9551,-2.9598,-2.9775,-3.0298,-3.049,-3.0568,-3.0586,-3.0695,-3.0802,-3.0806,-3.0798,-3.0807,-3.0807,-3.0804,-3.0801,-3.0798,-3.081,-3.0802,-3.0802,-3.0793,-3.0808,-3.0804,-3.0799,-3.0799,-3.0799,-3.0799,-3.0774,-3.0728,-3.056,-3.024,-2.9663,-2.9874,-2.9832,-2.9298,-3.0078,-3.04,-2.9926,-3.076,-3.1389,-3.1657,-3.2543,-3.3162,-3.3463,-3.3808,-3.3625,-3.2916,-3.3099,-3.3099,-3.2916,-3.2916,-3.2916,-3.2916,-3.2916,-3.2916,-3.2916,-3.2916,-3.2916,-3.2916,-3.2916,-3.2916,-3.2916,-3.2916,-3.3651,-3.4597,-2.5707,-2.5707,-2.5707,-2.5707,-2.5707,-2.5707,-2.5707,-2.5634,-2.5595,-2.5604,-2.6238,-2.7039,-2.789,-2.878,-2.965,-3.052,-3.0598,-3.0598,-3.0598,-3.0598,-3.0598,-3.0598,-3.0598,-3.0598,-3.0598,-3.0607,-3.0607,-3.0607,-3.0613,-3.0462,-3.0136,-3.0312,-3.0232,-2.9918,-3.0114,-3.0204,-3.0204,-3.0204,-3.0204,-3.0204,-3.0204,-3.0204,-3.0204,-3.0204,-3.0204,-3.0185,-3.0213,-3.0226,-3.0226,-3.024,-3.0292,-3.0337,-3.0337,-3.0453,-3.0598,-3.0593,-3.0568,-3.0527,-3.0613,-3.072,-3.0802,-3.0794,-3.0798,-3.0798,-3.0798,-3.081,-3.0802,-3.079,-3.0806,-3.0798,-3.0798,-3.0798,-3.0754,-3.0628,-3.0701,-3.074,-3.0624,-3.0721,-3.0745,-3.062,-3.0488,-3.0353,-3.0209,-3.009,-2.9972,-2.9924,-2.9888,-2.9888,-2.9888,-2.9888,-3.0162,-3.0716,-3.2543,-3.3449,-3.3314,-3.3685,-3.3552,-3.2916,-3.3021,-3.3021,-3.2916,-3.2916,-3.2916,-3.2916,-3.2916,-3.2916,-3.2916,-3.2916,-3.2916,-3.2916,-3.2916,-3.2916,-3.2916,-3.2916,-3.3401,-3.4008,-2.5707,-2.5707,-2.5707,-2.5707,-2.5707,-2.5707,-2.5707,-2.5641,-2.5609,-2.5592,-2.6238,-2.7039,-2.789,-2.878,-2.965,-3.052,-3.0598,-3.0598,-3.0598,-3.0598,-3.0598,-3.0598,-3.0598,-3.0598,-3.0598,-3.0595,-3.0593,-3.0593,-3.0661,-3.0233,-2.9378,-3.0074,-2.9936,-2.9121,-2.9879,-3.0204,-3.0204,-3.0204,-3.0204,-3.0204,-3.0204,-3.0204,-3.0204,-3.0204,-3.0204,-3.0199,-3.026,-3.0278,-3.029,-3.0422,-3.0462,-3.0472,-3.0472,-3.0501,-3.0537,-3.0571,-3.0586,-3.0613,-3.0734,-3.0774,-3.0808,-3.0802,-3.0802,-3.0802,-3.0802,-3.0802,-3.0798,-3.0808,-3.0804,-3.0804,-3.0804,-3.0804,-3.057,-2.9825,-3.0312,-3.0546,-2.9805,-3.0331,-3.0745,-3.062,-3.0488,-3.0353,-3.0209,-3.009,-2.9972,-2.9924,-2.9888,-2.9888,-2.9888,-2.9888,-2.9931,-2.9979,-3.1691,-3.2973,-3.3771,-3.3088,-3.2801,-3.2898,-3.2658,-3.2665,-3.2916,-3.2916,-3.2916,-3.2916,-3.2916,-3.2916,-3.2916,-3.2916,-3.2916,-3.2916,-3.2916,-3.2916,-3.2916,-3.2916,-3.3401,-3.4079,-2.5707,-2.5707,-2.5707,-2.5707,-2.5707,-2.5707,-2.5707,-2.5642,-2.5765,-2.6242,-2.6951,-2.7735,-2.8606,-2.9476,-3.0153,-3.0559,-3.0598,-3.0598,-3.0598,-3.0598,-3.0598,-3.0598,-3.0598,-3.0607,-3.0595,-3.0593,-3.0574,-3.0548,-3.0618,-3.0113,-2.9102,-2.9952,-2.9824,-2.893,-2.9803,-3.0204,-3.0204,-3.0204,-3.0204,-3.0204,-3.0204,-3.0204,-3.0204,-3.0204,-3.0221,-3.0267,-3.029,-3.0348,-3.0413,-3.0482,-3.0518,-3.056,-3.056,-3.0603,-3.0665,-3.0697,-3.0703,-3.0709,-3.0774,-3.0799,-3.0804,-3.0808,-3.0789,-3.0789,-3.0789,-3.0789,-3.0808,-3.0804,-3.0799,-3.0799,-3.0799,-3.0799,-3.0662,-3.0273,-3.0546,-3.0662,-3.0253,-3.0486,-3.0633,-3.0505,-3.0365,-3.0247,-3.0099,-3.0,-2.994,-2.9888,-2.9888,-2.9888,-2.9888,-2.9888,-2.9891,-2.9857,-3.1337,-3.2505,-3.3284,-3.3261,-3.3148,-3.2948,-3.2877,-3.2865,-3.2916,-3.2916,-3.2916,-3.2916,-3.2916,-3.2916,-3.2916,-3.2916,-3.2916,-3.2916,-3.2916,-3.2916,-3.2916,-3.2916,-3.3116,-3.3508,-2.5707,-2.5707,-2.5707,-2.5707,-2.5691,-2.5693,-2.5694,-2.5815,-2.6142,-2.6817,-2.7731,-2.859,-2.924,-3.0092,-3.0615,-3.0615,-3.0606,-3.0597,-3.0597,-3.0597,-3.0607,-3.0598,-3.0607,-3.0615,-3.0618,-3.0614,-3.0591,-3.0519,-3.0563,-3.0066,-2.9032,-2.9906,-2.98,-2.893,-2.9803,-3.0204,-3.0204,-3.0204,-3.0204,-3.0204,-3.0204,-3.0204,-3.0204,-3.0204,-3.0228,-3.0302,-3.0337,-3.0423,-3.0537,-3.0554,-3.061,-3.0659,-3.0659,-3.0728,-3.0799,-3.0799,-3.0799,-3.0799,-3.0799,-3.0799,-3.0799,-3.0799,-3.0799,-3.0799,-3.0799,-3.0799,-3.0799,-3.0799,-3.0799,-3.0799,-3.0799,-3.0799,-3.0721,-3.0526,-3.0662,-3.0721,-3.0526,-3.0561,-3.0556,-3.0424,-3.0275,-3.0136,-3.0003,-2.994,-2.9888,-2.9888,-2.9888,-2.9888,-2.9888,-2.9888,-2.9888,-2.9888,-3.0995,-3.1976,-3.2797,-3.3103,-3.3176,-3.3011,-3.2949,-3.2937,-3.2916,-3.2916,-3.2916,-3.2916,-3.2916,-3.2916,-3.2916,-3.2916,-3.2916,-3.2916,-3.2916,-3.2991,-3.3169,-3.3169,-3.3277,-3.3508,-2.5707,-2.5707,-2.5707,-2.5707,-2.5697,-2.5702,-2.5703,-2.6332,-2.6829,-2.6884,-2.8294,-2.9311,-2.9389,-3.0166,-3.0683,-3.0683,-3.0645,-3.0602,-3.0602,-3.0602,-3.0604,-3.0598,-3.0595,-3.0626,-3.069,-3.0698,-3.0658,-3.0582,-3.061,-3.0081,-2.9102,-2.9917,-2.98,-2.893,-2.9803,-3.0204,-3.0204,-3.0204,-3.0204,-3.0204,-3.0204,-3.0204,-3.0204,-3.0204,-3.0228,-3.0325,-3.0433,-3.0535,-3.0613,-3.0734,-3.0774,-3.0794,-3.0794,-3.0799,-3.0799,-3.0799,-3.0799,-3.0799,-3.0799,-3.0799,-3.0799,-3.0799,-3.0799,-3.0799,-3.0799,-3.0799,-3.0799,-3.0799,-3.0799,-3.0799,-3.0799,-3.0799,-3.0546,-2.9727,-3.0273,-3.0526,-2.9708,-3.0191,-3.0556,-3.0424,-3.0275,-3.0136,-3.0003,-2.994,-2.9888,-2.9888,-2.9888,-2.9888,-2.9888,-2.9888,-2.9888,-2.9888,-3.0354,-3.131,-3.2797,-3.1873,-3.1936,-3.2979,-3.2451,-3.2427,-3.2916,-3.2916,-3.2916,-3.2916,-3.2916,-3.2916,-3.2916,-3.2916,-3.2916,-3.2916,-3.2916,-3.3348,-3.4008,-3.4008,-3.4454,-3.5043,-2.5707,-2.5707,-2.5707,-2.5707,-2.5698,-2.5703,-2.5703,-2.6371,-2.709,-2.7639,-2.8688,-2.9609,-3.0153,-3.0503,-3.069,-3.069,-3.0676,-3.0668,-3.0668,-3.0668,-3.0661,-3.0665,-3.0661,-3.0664,-3.0704,-3.0697,-3.0658,-3.0548,-3.0546,-2.9989,-2.9002,-2.9845,-2.9761,-2.893,-2.9803,-3.0204,-3.0204,-3.0204,-3.0204,-3.0204,-3.0204,-3.0204,-3.0199,-3.0241,-3.0333,-3.0433,-3.0535,-3.0639,-3.0734,-3.0774,-3.0799,-3.0799,-3.0799,-3.0799,-3.0799,-3.0799,-3.0799,-3.0799,-3.0799,-3.0799,-3.0799,-3.0799,-3.0799,-3.0799,-3.0799,-3.037,-2.9981,-2.9981,-2.9552,-2.9357,-2.9883,-2.9981,-3.0059,-3.0273,-3.0585,-3.0682,-3.0351,-3.0445,-3.0509,-3.0414,-3.0241,-3.0094,-2.9956,-2.9905,-2.9888,-2.9888,-2.9888,-2.9888,-2.9888,-2.9888,-2.9888,-2.9888,-2.9813,-3.0253,-3.1298,-3.1581,-3.1892,-3.2258,-3.2517,-3.2737,-3.2916,-3.2916,-3.2916,-3.2916,-3.2916,-3.2916,-3.2916,-3.2916,-3.2916,-3.2916,-3.2916,-3.308,-3.3419,-3.3919,-3.4294,-3.465,-2.5707,-2.5707,-2.5709,-2.5693,-2.5701,-2.5703,-2.5703,-2.6618,-2.7519,-2.8123,-2.9162,-3.0069,-3.0665,-3.0724,-3.0724,-3.0724,-3.0717,-3.0711,-3.0711,-3.0711,-3.0711,-3.0711,-3.0711,-3.0704,-3.0734,-3.0697,-3.0598,-3.0501,-3.0462,-3.0037,-2.9325,-2.9917,-2.9879,-2.9344,-2.9937,-3.0204,-3.0204,-3.0204,-3.0204,-3.0204,-3.0204,-3.0204,-3.0199,-3.0273,-3.0381,-3.051,-3.0583,-3.0697,-3.0799,-3.0799,-3.0799,-3.0799,-3.0799,-3.0799,-3.074,-3.0468,-3.039,-3.039,-3.039,-3.039,-3.0468,-3.0721,-3.0799,-3.0799,-3.0799,-3.0331,-2.9825,-2.9552,-2.924,-2.9124,-2.9435,-2.9727,-3.0098,-3.0701,-3.0799,-3.0794,-3.0739,-3.0576,-3.0443,-3.0359,-3.0188,-3.0022,-2.9905,-2.9888,-2.9888,-2.9888,-2.9888,-2.9888,-2.9888,-2.9888,-2.9888,-2.9888,-2.9551,-2.9574,-3.0024,-3.0865,-3.1337,-3.1482,-3.2258,-3.2603,-3.2559,-3.2791,-3.2916,-3.2916,-3.2916,-3.2916,-3.2916,-3.2916,-3.2916,-3.2916,-3.2916,-3.3045,-3.333,-3.3901,-3.4418,-3.4972,-2.5707,-2.5707,-2.5693,-2.5702,-2.5703,-2.5697,-2.5703,-2.7121,-2.8193,-2.8193,-2.9727,-3.0799,-3.0799,-3.0799,-3.0799,-3.0799,-3.0739,-3.0703,-3.0703,-3.0703,-3.0703,-3.0703,-3.0703,-3.0734,-3.0799,-3.0665,-3.0576,-3.0501,-3.037,-3.026,-3.0204,-3.0204,-3.0204,-3.0204,-3.0204,-3.0204,-3.0204,-3.0204,-3.0204,-3.0204,-3.0204,-3.0204,-3.0199,-3.0273,-3.0381,-3.051,-3.0583,-3.0697,-3.0799,-3.0799,-3.0799,-3.0799,-3.0799,-3.0799,-3.0624,-2.9766,-2.9513,-2.9513,-2.9513,-2.9513,-2.9727,-3.0585,-3.0799,-3.0799,-3.0799,-3.0779,-3.0546,-2.9669,-3.0175,-3.0526,-2.9649,-3.0214,-3.0779,-3.0799,-3.0799,-3.0745,-3.0626,-3.0488,-3.0353,-3.0209,-3.009,-2.9972,-2.9924,-2.9888,-2.9888,-2.9888,-2.9888,-2.9888,-2.9888,-2.9888,-2.9888,-2.9888,-2.9644,-2.9398,-2.9209,-2.9526,-3.0071,-3.0815,-3.1464,-3.1793,-3.1816,-3.2541,-3.2898,-3.2916,-3.2916,-3.2916,-3.2916,-3.2916,-3.2916,-3.2916,-3.2916,-3.3384,-3.4097,-3.4115,-3.5079,-3.6381,-2.5707,-2.5707,-2.5693,-2.5702,-2.5703,-2.5697,-2.5703,-2.7121,-2.8193,-2.8193,-2.9727,-3.0799,-3.0799,-3.0799,-3.0799,-3.0799,-3.0739,-3.0703,-3.0703,-3.0703,-3.0709,-3.0769,-3.0769,-3.0774,-3.0799,-3.0764,-3.0665,-3.0501,-3.0462,-3.0356,-3.0204,-3.0204,-3.0204,-3.0204,-3.0204,-3.0204,-3.0204,-3.0204,-3.0204,-3.0204,-3.0204,-3.0221,-3.0285,-3.0411,-3.05,-3.0591,-3.0697,-3.0769,-3.0799,-3.0799,-3.0799,-3.0799,-3.0799,-3.0799,-3.074,-3.0487,-3.0409,-3.0409,-3.0409,-3.0409,-3.0468,-3.074,-3.0799,-3.0799,-3.0799,-3.0331,-2.9805,-2.9552,-2.9221,-2.9085,-2.9435,-2.9708,-3.0098,-3.0701,-3.0709,-3.0652,-3.0618,-3.0434,-3.029,-3.0209,-3.0075,-2.9972,-2.9924,-2.9888,-2.9888,-2.9888,-2.9888,-2.9888,-2.9888,-2.9888,-2.9888,-2.9888,-2.9551,-2.9314,-2.9209,-2.9637,-2.988,-2.9988,-3.0733,-3.1339,-3.1798,-3.2049,-3.2429,-3.2916,-3.2916,-3.2916,-3.2916,-3.2916,-3.2916,-3.2916,-3.2916,-3.3059,-3.3312,-3.3901,-3.4401,-3.4954,-2.5707,-2.5707,-2.5693,-2.5703,-2.5702,-2.5813,-2.6139,-2.7328,-2.8329,-2.868,-2.9922,-3.0799,-3.0799,-3.0799,-3.0799,-3.0799,-3.0769,-3.0739,-3.0739,-3.0739,-3.0764,-3.0799,-3.0799,-3.0799,-3.0799,-3.0739,-3.0652,-3.0535,-3.0463,-3.0367,-3.0247,-3.0213,-3.0204,-3.0204,-3.0204,-3.0213,-3.0247,-3.0213,-3.0226,-3.0247,-3.0213,-3.0228,-3.0314,-3.0462,-3.0543,-3.0626,-3.0745,-3.0799,-3.0799,-3.0799,-3.0799,-3.0799,-3.0799,-3.0799,-3.0721,-3.039,-3.0292,-3.0292,-3.0292,-3.0292,-3.037,-3.0701,-3.0799,-3.0799,-3.0799,-3.039,-2.9922,-2.9572,-2.9357,-2.9279,-2.9474,-2.9786,-3.0171,-3.0637,-3.0652,-3.0576,-3.0491,-3.0348,-3.0228,-3.0133,-3.0034,-2.994,-2.9905,-2.9888,-2.9888,-2.9888,-2.9888,-2.9888,-2.9888,-2.9888,-2.9888,-2.9888,-2.9589,-2.9375,-2.923,-2.9402,-2.9341,-2.9134,-3.0173,-3.0783,-3.0962,-3.1512,-3.2018,-3.2451,-3.2451,-3.2599,-3.2916,-3.2916,-3.2916,-3.2916,-3.2916,-3.2916,-3.2969,-3.3437,-3.383,-3.424,-2.5707,-2.5707,-2.5696,-2.5702,-2.57,-2.5947,-2.6681,-2.7589,-2.8485,-2.9279,-3.0214,-3.0799,-3.0799,-3.0799,-3.0799,-3.0799,-3.0799,-3.0799,-3.0799,-3.0799,-3.0799,-3.0799,-3.0799,-3.0799,-3.0799,-3.0671,-3.062,-3.0586,-3.0414,-3.0314,-3.029,-3.0234,-3.0204,-3.0204,-3.0204,-3.0234,-3.0278,-3.0221,-3.0247,-3.0297,-3.0234,-3.0254,-3.0337,-3.0453,-3.0552,-3.0633,-3.0764,-3.0799,-3.0799,-3.0799,-3.0799,-3.0799,-3.0799,-3.0799,-3.0643,-2.9844,-2.9611,-2.9611,-2.9611,-2.9611,-2.9781,-3.058,-3.0769,-3.0789,-3.0799,-3.0799,-3.056,-2.9786,-3.0253,-3.0546,-2.9742,-3.0249,-3.0739,-3.0613,-3.0583,-3.05,-3.0321,-3.0241,-3.0133,-3.0003,-2.994,-2.9888,-2.9888,-2.9888,-2.9888,-2.9888,-2.9888,-2.9888,-2.9888,-2.9872,-2.9872,-2.9888,-2.9662,-2.9456,-2.9293,-2.9003,-2.873,-2.8424,-2.9704,-3.0062,-2.9637,-3.0939,-3.1625,-3.1798,-3.1737,-3.2152,-3.2916,-3.2916,-3.2916,-3.2916,-3.2916,-3.2916,-3.2916,-3.2916,-3.3348,-3.4008,-2.5707,-2.5707,-2.5696,-2.5702,-2.57,-2.5751,-2.5921,-2.7238,-2.8271,-2.8466,-2.9844,-3.0799,-3.0799,-3.0799,-3.0799,-3.0799,-3.0745,-3.0709,-3.0709,-3.0709,-3.0739,-3.0799,-3.0799,-3.0799,-3.0799,-3.0769,-3.0678,-3.0509,-3.0492,-3.0378,-3.0207,-3.0199,-3.0204,-3.0204,-3.0204,-3.0199,-3.0207,-3.0199,-3.0213,-3.0221,-3.026,-3.0337,-3.0472,-3.0552,-3.0652,-3.0764,-3.0799,-3.0799,-3.0799,-3.0799,-3.0799,-3.0799,-3.0799,-3.0799,-3.076,-3.0565,-3.0526,-3.0526,-3.0526,-3.0442,-3.04,-3.0601,-3.0591,-3.0614,-3.0764,-3.0728,-3.0613,-3.0541,-3.0662,-3.0711,-3.0412,-3.0516,-3.0613,-3.0527,-3.0423,-3.0325,-3.0241,-3.0114,-3.0019,-2.994,-2.9905,-2.9888,-2.9888,-2.9888,-2.9888,-2.9888,-2.9888,-2.9888,-2.9888,-2.9751,-2.9734,-2.9907,-2.9395,-2.9163,-2.923,-2.9418,-2.9158,-2.8484,-2.8721,-2.9107,-2.9601,-2.9914,-3.0693,-3.1798,-3.1798,-3.2215,-3.2916,-3.2916,-3.2916,-3.2916,-3.2916,-3.2916,-3.2916,-3.2916,-3.2991,-3.3312,-2.5707,-2.5707,-2.5696,-2.5702,-2.57,-2.5829,-2.6213,-2.7024,-2.7725,-2.8154,-2.9357,-3.002,-2.9611,-3.0292,-3.0799,-3.0799,-3.0399,-3.0292,-3.072,-3.0739,-3.0769,-3.0799,-3.0799,-3.0799,-3.0799,-3.0799,-3.0722,-3.0552,-3.0519,-3.0411,-3.0241,-3.0213,-3.0204,-3.0204,-3.0204,-3.0226,-3.0241,-3.0213,-3.0226,-3.0241,-3.0254,-3.0309,-3.0402,-3.0443,-3.0543,-3.0658,-3.0691,-3.0739,-3.0799,-3.0799,-3.0799,-3.0799,-3.0799,-3.0799,-3.0799,-3.0799,-3.0745,-3.0703,-3.0703,-3.0632,-3.0552,-3.0552,-3.0537,-3.0537,-3.0659,-3.0659,-3.0633,-3.0769,-3.0799,-3.0764,-3.0626,-3.0593,-3.0556,-3.0433,-3.0314,-3.0235,-3.0161,-3.0049,-2.994,-2.9905,-2.9888,-2.9888,-2.9888,-2.9888,-2.9888,-2.9888,-2.9888,-2.9888,-2.9888,-2.9805,-2.9734,-2.977,-2.9355,-2.9141,-2.9097,-2.9162,-2.8951,-2.851,-2.9179,-2.9322,-2.8999,-2.9376,-3.0004,-3.0765,-3.1159,-3.1721,-3.2411,-3.2787,-3.2916,-3.2916,-3.2916,-3.2916,-3.2916,-3.2916,-3.2916,-3.3094,-2.5707,-2.5707,-2.5696,-2.5702,-2.57,-2.5927,-2.6584,-2.6809,-2.716,-2.7881,-2.8738,-2.9007,-2.829,-2.9494,-3.0409,-3.0565,-2.9922,-2.9864,-3.074,-3.0662,-3.0585,-3.0585,-3.0585,-3.0585,-3.0585,-3.0721,-3.0734,-3.0593,-3.0527,-3.0423,-3.0302,-3.0234,-3.0204,-3.0204,-3.0204,-3.0234,-3.0285,-3.0221,-3.0234,-3.0285,-3.0215,-3.0254,-3.0314,-3.0329,-3.0413,-3.051,-3.0598,-3.0703,-3.0799,-3.0799,-3.0799,-3.0799,-3.0769,-3.0769,-3.0764,-3.0753,-3.0678,-3.0571,-3.0571,-3.0527,-3.0472,-3.0472,-3.0462,-3.0472,-3.0532,-3.0579,-3.0633,-3.0739,-3.0769,-3.0734,-3.0605,-3.0564,-3.0498,-3.0302,-3.0216,-3.0155,-3.0083,-2.9972,-2.9888,-2.9888,-2.9888,-2.9888,-2.9888,-2.9888,-2.9888,-2.9888,-2.9888,-2.9888,-2.9888,-2.9872,-2.9769,-2.9608,-2.9336,-2.9144,-2.898,-2.8839,-2.876,-2.8683,-3.0096,-2.9968,-2.8542,-2.9205,-2.9627,-2.9844,-3.0528,-3.1189,-3.1852,-3.2657,-3.2948,-3.2916,-3.2916,-3.2916,-3.2916,-3.2916,-3.2916,-3.3009,-2.5707,-2.5707,-2.5696,-2.5702,-2.57,-2.5732,-2.5843,-2.6459,-2.6946,-2.7063,-2.7823,-2.8329,-2.8212,-2.8407,-2.8851,-2.9611,-2.9572,-2.9864,-3.074,-3.0098,-2.9669,-2.9669,-2.9669,-2.9669,-2.9669,-3.0409,-3.0734,-3.0593,-3.0527,-3.0423,-3.0302,-3.0234,-3.0204,-3.0204,-3.0204,-3.0218,-3.0213,-3.0199,-3.0218,-3.0226,-3.026,-3.029,-3.0325,-3.0479,-3.0524,-3.0519,-3.071,-3.0774,-3.0799,-3.0799,-3.0799,-3.0774,-3.0665,-3.0626,-3.0613,-3.0563,-3.0528,-3.0519,-3.0519,-3.0423,-3.0325,-3.0325,-3.0273,-3.026,-3.0325,-3.0481,-3.062,-3.0626,-3.0626,-3.0605,-3.0537,-3.0423,-3.0283,-3.0161,-3.0109,-3.0083,-3.0022,-2.9956,-2.9888,-2.9888,-2.9888,-2.9888,-2.9888,-2.9888,-2.9888,-2.9888,-2.9888,-2.9888,-2.9888,-2.9734,-2.9626,-2.9608,-2.9111,-2.886,-2.8832,-2.9315,-2.9512,-2.9458,-3.0404,-3.0368,-2.9422,-2.9539,-2.997,-3.0653,-3.0761,-3.1189,-3.1852,-3.2657,-3.2948,-3.2916,-3.2916,-3.2916,-3.2916,-3.2916,-3.2916,-3.3009,-2.5707,-2.5707,-2.5696,-2.5702,-2.57,-2.5693,-2.5707,-2.5991,-2.6225,-2.6225,-2.6965,-2.7297,-2.6848,-2.6809,-2.7336,-2.866,-2.8329,-2.8427,-2.9279,-2.8987,-2.8773,-2.8773,-2.8773,-2.9007,-2.9494,-2.9839,-3.0255,-3.07,-3.0579,-3.0423,-3.0302,-3.0228,-3.0199,-3.0204,-3.0199,-3.0199,-3.0204,-3.0204,-3.0204,-3.0199,-3.0234,-3.0241,-3.0254,-3.0337,-3.0356,-3.0364,-3.0554,-3.0665,-3.0697,-3.0697,-3.0652,-3.063,-3.0552,-3.0543,-3.0535,-3.051,-3.0452,-3.0392,-3.0392,-3.0321,-3.0241,-3.0241,-3.0254,-3.0254,-3.0241,-3.0402,-3.0543,-3.0543,-3.0543,-3.0518,-3.0413,-3.0337,-3.0253,-3.0118,-3.0098,-3.0087,-3.0007,-2.994,-2.9888,-2.9888,-3.0324,-3.0419,-2.9945,-3.0324,-3.0644,-3.0644,-3.0173,-3.0097,-3.0606,-3.0086,-2.9716,-2.9608,-2.9699,-2.9678,-2.9538,-3.0104,-3.0405,-3.0378,-3.1237,-3.1117,-3.022,-3.023,-3.0456,-3.0833,-3.1294,-3.169,-3.202,-3.275,-3.3011,-3.2948,-3.2916,-3.2916,-3.2916,-3.2916,-3.2916,-3.3009]}]]